     2              OBSERVATION DATA    GPS                 RINEX VERSION / TYPE
teqc 1997Jul24 19970902 21:15:28UTC                         PGM / RUN BY / DATE
                                                            COMMENT
BIT 2 OF LLI FLAGS DATA COLLECTED UNDER A-S CONDITION       COMMENT
BIT 2 OF LLI FLAGS DATA COLLECTED UNDER A-S CONDITION       COMMENT
Original Marker Name: 55496.YUMA                            COMMENT
Campaign Name: Salt. Tr. Crust. Monit. May-Jun 1986         COMMENT
4-Character Station Name: YUMA                              COMMENT
6-Character Antenna Code: TI4100                            COMMENT
Vertical Measurement Point: PAE                             COMMENT
Vertical Offset to Rinex Ref. Point: 0.0000                 COMMENT
Radial Measurement Point: RRP                               COMMENT
Radial Offset to Rinex Ref. Point: 0.0000                   COMMENT
Antenna Height from Field Measurement: 1.4350 m             COMMENT
Original XYZ: -2197478.5462 -4889611.5158 3444783.6672      COMMENT
New XYZ position is based on association with SCEC monument COMMENT
E1C9S0R6+0011. Position of that monument is believed to be  COMMENT
valid to within 1 m horizontally; vertical accuracy         COMMENT
should be no worse than 3-times this value.                 COMMENT
                                                            COMMENT
Revised Rinex header created by UCSD GPS archive for        COMMENT
GSAC on 12-Apr-1999 (1999:102) 01:18:02 GMT                 COMMENT
For assistance contact dagnew@ucsd.edu or hjohnson@ucsd.edu COMMENT
                                                            COMMENT
YUMA NCMN 1983                                              MARKER NAME
5 NATIONAL GEODETIC SURVEY                                  OBSERVER / AGENCY
UT04 TI 4100 1.0                                            REC # / TYPE / VERS
108 TI 4100                                                 ANT # / TYPE
 -2196778.0000 -4887337.0000  3448425.0000                  APPROX POSITION XYZ
        1.4350        0.0000        0.0000                  ANTENNA: DELTA H/E/N
     1     1     0                                          WAVELENGTH FACT L1/2
     4    P1    P2    L1    L2                              # / TYPES OF OBSERV
     6                                                      INTERVAL
  1986     6    11    23    22   59.000000                  TIME OF FIRST OBS
  1986     6    12     1    11   35.000000                  TIME OF LAST OBS
     0                                                      # OF SATELLITES
                                                            END OF HEADER
 86  6 11 23 22 59.4200000  0  1G11
  22943753.063    22943759.174      216889.106 7    -25634.975 8
 86  6 11 23 24 35.0800000  0  2G 6G 9
                  22836558.473     -435312.432 9
                  25397467.360     -477780.943 8
 86  6 11 23 24 41.0800000  0  2G 6G 9
                  22834748.956     -444859.480 9
                  25394076.580     -495626.402 8
 86  6 11 23 24 47.0800000  0  3G 6G 8G 9
                  22832936.169     -454398.206 9
                  22623715.746     -312685.730 9
                  25390706.926     -513473.410 6
 86  6 11 23 24 53.0800000  0  4G 6G 8G 9G11
                  22831120.247     -463928.610 9
                  22625609.926     -302711.234 9
  25387308.922    25387312.345     -531321.527 6    841370.627 6
                  22900227.330     -486738.596 9
 86  6 11 23 24 59.0800000  0  4G 6G 8G 9G11
                  22829310.456     -473450.638 9
                  22627544.479     -292713.323 8
  25383913.476    25383917.307     -549170.830 8    827462.009 7
                  22897959.543     -498596.211 9
 86  6 11 23 25  5.0800000  0  4G 6G 8G 9G11
                  22827493.564     -482964.291 9
  22629452.486    22629455.404     -282690.485 9    940039.706 9
  25380516.721    25380521.682     -567021.453 7    813552.463 8
                  22895747.605     -510433.491 8
 86  6 11 23 25 11.0800000  0  4G 6G 8G 9G11
                  22825683.252     -492469.561 9
  22631364.159    22631368.130     -272643.435 9    947868.611 8
  25377121.425    25377122.885     -584873.300 6    799641.941 8
  22893498.181    22893505.624     -522248.937 9    979534.125 9
 86  6 11 23 25 17.0800000  0  4G 6G 8G 9G11
                  22823878.043     -501966.414 9
  22633279.676    22633282.968     -262572.233 8    955716.800 7
  25373721.277    25373726.876     -602726.398 7    785730.439 8
  22891254.785    22891259.846     -534043.297 7    970343.697 6
 86  6 11 23 25 23.0800000  0  3G 8G 9G11
  22635200.488    22635204.651     -252476.939 8    963583.265 8
  25370324.940    25370330.499     -620580.793 7    771817.928 7
  22889014.544    22889018.057     -545816.603 8    961169.710 8
 86  6 11 23 25 29.0800000  0  4G 6G 8G 9G11
                  22820274.531     -520934.942 9
  22637126.382    22637129.794     -242357.578 8    971468.487 7
  25366926.194    25366930.403     -638436.554 7    757904.348 7
  22886778.721    22886782.291     -557568.855 9    952012.116 8
 86  6 11 23 25 35.0800000  0  4G 6G 8G 9G11
                  22818472.230     -530406.583 9
  22639057.374    22639059.659     -232214.148 8    979372.443 8
  25363527.629    25363533.669     -656293.553 6    743989.821 7
  22884545.743    22884548.436     -569300.038 8    942870.946 6
 86  6 11 23 25 41.0800000  0  4G 6G 8G 9G11
                  22816698.123     -539870.094 8
  22640991.640    22640994.584     -222046.728 9    987295.111 8
  25360131.005    25360135.160     -674151.770 6    730074.336 8
  22882317.195    22882320.700     -581010.122 8    933746.190 7
 86  6 11 23 25 47.0800000  0  4G 6G 8G 9G11
  22814900.119    22814904.814     -549324.923 7   1253220.648 8
  22642931.048    22642935.457     -211855.298 9    995236.486 8
  25356729.380    25356736.518     -692011.214 8    716157.886 7
  22880092.460    22880096.256     -592699.110 8    924637.885 8
 86  6 11 23 25 53.0800000  0  4G 6G 8G 9G11
  22813101.474    22813106.263     -558771.302 9   1245859.828 8
  22644874.856    22644878.817     -201639.962 8   1003196.481 8
  25353330.980    25353335.843     -709871.967 6    702240.441 7
  22877871.970    22877877.553     -604367.045 9    915546.002 8
 86  6 11 23 25 59.0800000  0  4G 6G 8G 9G11
  22811305.723    22811309.830     -568209.256 9   1238505.588 9
  22646822.746    22646827.458     -191400.636 9   1011175.178 8
  25349931.974    25349938.614     -727733.942 6    688322.035 7
  22875656.673    22875662.238     -616013.839 8    906470.575 7
 86  6 11 23 26  5.0800000  0  4G 6G 8G 9G11
  22809512.224    22809515.753     -577638.678 9   1231157.983 8
  22648776.207    22648780.710     -181137.357 8   1019172.531 8
  25346533.057    25346538.727     -745597.101 7    674402.708 8
  22873443.178    22873448.028     -627639.488 8    897411.631 7
 86  6 11 23 26 11.0800000  0  4G 6G 8G 9G11
  22807719.368    22807722.849     -587059.605 8   1223817.008 9
  22650733.019    22650737.749     -170850.159 9   1027188.536 8
  25343134.263    25343140.104     -763461.475 6    660482.412 8
  22871235.516    22871240.395     -639243.891 8    888369.244 7
 86  6 11 23 26 17.0800000  0  4G 6G 8G 9G11
  22805927.809    22805931.872     -596471.993 9   1216482.688 9
  22652696.204    22652699.545     -160538.973 8   1035223.226 8
  25339734.731    25339740.189     -781327.007 7    646561.234 7
  22869031.213    22869036.676     -650827.131 8    879343.338 7
 86  6 11 23 26 23.0800000  0  4G 6G 8G 9G11
  22804138.526    22804142.424     -605875.668 9   1209155.140 9
  22654662.742    22654667.259     -150203.833 8   1043276.577 8
  25336334.101    25336341.757     -799193.646 6    632639.209 7
  22866829.985    22866835.090     -662389.129 8    870334.010 7
 86  6 11 23 26 29.0800000  0  4G 6G 8G 9G11
  22802350.053    22802355.471     -615270.672 8   1201834.363 8
  22656634.216    22656638.647     -139844.676 9   1051348.655 8
  25332931.763    25332940.498     -817061.258 7    618716.373 7
  22864635.734    22864639.476     -673929.752 8    861341.313 7
 86  6 11 23 26 35.0800000  0  4G 6G 8G 9G11
  22800565.148    22800568.825     -624656.959 8   1194520.380 8
  22658610.625    22658613.068     -129461.550 8   1059439.402 7
  25329533.684    25329539.956     -834929.940 7    604792.748 7
  22862443.245    22862447.663     -685449.017 8    852365.255 7
 86  6 11 23 26 41.0800000  0  4G 6G 8G 9G11
  22798779.690    22798784.660     -634034.502 8   1187213.205 8
  22660589.352    22660593.830     -119054.474 8   1067548.811 8
  25326134.123    25326140.213     -852799.603 6    590868.344 8
  22860254.986    22860259.962     -696946.908 8    843405.868 7
 86  6 11 23 26 47.0800000  0  4G 6G 8G 9G11
  22796997.560    22797001.286     -643403.281 9   1179912.851 8
  22662574.604    22662578.884     -108623.441 8   1075676.888 7
  25322734.189    25322738.400     -870670.279 7    576943.140 8
  22858071.128    22858075.686     -708423.493 8    834463.080 7
 86  6 11 23 26 53.0800000  0  4G 6G 8G 9G11
  22795216.978    22795220.660     -652763.366 9   1172619.291 8
  22664564.038    22664568.720      -98168.506 8   1083823.593 8
  25319332.465    25319337.328     -888541.973 7    563017.145 7
  22855891.123    22855897.186     -719878.682 8    825536.965 7
 86  6 11 23 26 59.0800000  0  4G 6G 8G 9G11
  22793437.744    22793440.691     -662114.692 9   1165332.527 8
  22666558.914    22666562.139      -87689.720 8   1091988.883 8
  25315930.989    25315936.471     -906414.717 7    549090.343 7
  22853715.645    22853720.721     -731312.532 9    816627.483 7
 86  6 11 23 27  5.0800000  0  4G 6G 8G 9G11
  22791659.746    22791663.194     -671457.279 8   1158052.602 9
  22668557.568    22668560.969      -77187.124 8   1100172.716 8
  25312528.303    25312535.675     -924288.450 7    535162.767 8
  22851543.785    22851549.468     -742725.093 8    807734.575 8
 86  6 11 23 27 11.0800000  0  4G 6G 8G 9G11
  22789882.357    22789887.108     -680791.176 9   1150779.441 8
  22670559.876    22670564.989      -66660.799 8   1108375.052 8
  25309128.690    25309134.090     -942163.317 7    521234.315 7
  22849375.696    22849381.903     -754116.369 9    798858.253 7
 86  6 11 23 27 17.0800000  0  4G 6G 8G 9G11
  21031982.103    21031985.251     -690090.418 9   1143461.373 8
  20916444.955    20916449.288      -56065.424 8   1116559.279 8
  23549598.298    23549604.433     -960021.665 7    507246.806 7
  21091085.597    21091090.696     -765462.423 8    789945.266 7
 86  6 11 23 27 23.0800000  0  4G 6G 8G 9G11
  21030209.248    21030211.840     -699407.097 9   1136201.621 8
  20918457.179    20918461.229      -45491.905 8   1124798.386 9
  23546195.636    23546203.218     -977898.915 6    493316.509 8
  21088925.941    21088932.077     -776811.284 8    781101.994 8
 86  6 11 23 27 29.0800000  0  4G 6G 8G 9G11
  21028438.371    21028441.263     -708715.169 9   1128948.584 8
  20920473.699    20920477.108      -34894.823 8   1133055.852 7
  23542794.490    23542800.794     -995777.318 6    479385.296 7
  21086769.224    21086775.384     -788138.889 8    772275.302 7
 86  6 11 23 27 35.0800000  0  4G 6G 8G 9G11
  21026668.213    21026672.504     -718014.512 8   1121702.338 9
  20922493.854    20922498.253      -24274.145 8   1141331.706 7
  23539391.341    23539398.619    -1013656.849 6    465453.213 8
  21084619.447    21084624.315     -799445.176 8    763465.204 8
 86  6 11 23 27 41.0800000  0  4G 6G 8G 9G11
  21024900.279    21024905.143     -727305.154 9   1114462.887 8
  20924520.390    20924524.389      -13629.883 8   1149625.946 8
  23535989.983    23535996.474    -1031537.371 8    451520.340 7
  21082472.289    21082476.219     -810730.113 8    754671.758 8
 86  6 11 23 27 47.0800000  0  4G 6G 8G 9G11
  21023134.639    21023137.445     -736586.924 9   1107230.343 9
  20926549.428    20926553.547       -2962.012 7   1157938.568 8
  23532586.865    23532594.541    -1049418.903 7    437586.700 8
  21080327.683    21080333.294     -821993.648 8    745894.969 7
 86  6 11 23 27 53.0800000  0  4G 6G 8G 9G11
  21021369.658    21021373.665     -745859.778 9   1100004.735 9
  20928584.212    20928588.216        7729.566 8   1166269.676 8
  23529182.865    23529191.279    -1067301.354 7    423652.314 7
  21078188.461    21078193.682     -833235.752 8    737134.896 7
 86  6 11 23 27 59.0800000  0  4G 6G 8G 9G11
  21019606.938    21019610.915     -755123.738 9   1092786.071 9
  20930623.120    20930627.579       18444.849 9   1174619.240 8
  23525780.301    23525787.331    -1085184.823 7    409717.161 7
  21076053.945    21076058.230     -844456.416 9    728391.534 8
 86  6 11 23 28  5.0800000  0  4G 6G 8G 9G11
  21017845.931    21017849.298     -764378.867 9   1085574.273 8
  20932666.882    20932672.958       29183.644 8   1182987.124 7
  23522377.139    23522383.697    -1103069.312 7    395781.213 7
  21073922.631    21073927.657     -855655.687 9    719664.827 7
 86  6 11 23 28 11.0800000  0  4G 6G 8G 9G11
  21016085.701    21016089.422     -773625.014 8   1078369.489 8
  20934714.899    20934720.443       39946.035 9   1191373.399 8
  23518973.866    23518979.808    -1120954.619 6    381844.609 7
  21071795.409    21071799.924     -866833.442 8    710954.886 7
 86  6 11 23 28 17.0800000  0  4G 6G 8G 9G11
  21014327.928    21014331.265     -782862.307 9   1071171.604 8
  20936767.791    20936771.660       50731.949 8   1199778.016 8
  23515570.660    23515576.345    -1138840.853 7    367907.308 8
  21069671.555    21069676.885     -877989.742 8    702261.680 7
 86  6 11 23 28 23.0800000  0  4G 6G 8G 9G11
  21012572.392    21012575.714     -792090.654 9   1063980.689 8
  20938824.004    20938830.095       61541.408 8   1208200.977 8
  23512167.114    23512172.062    -1156728.030 8    353969.234 7
  21067553.126    21067559.162     -889124.545 8    693585.212 8
 86  6 11 23 28 29.0800000  0  4G 6G 8G 9G11
  21010818.176    21010822.037     -801310.049 9   1056796.738 9
  20940885.593    20940889.783       72374.415 9   1216642.276 8
  23508763.069    23508768.974    -1174616.136 8    340030.474 7
  21065437.958    21065444.354     -900237.821 9    684925.522 8
 86  6 11 23 28 35.0800000  0  4G 6G 8G 9G11
  21009064.867    21009069.673     -810520.405 9   1049619.852 9
  20942951.465    20942955.778       83230.942 8   1225101.904 7
  23505358.819    23505364.810    -1192505.036 7    326091.066 8
  21063328.385    21063333.646     -911329.531 8    676282.625 8
 86  6 11 23 28 41.0800000  0  4G 6G 8G 9G11
  21007314.649    21007317.374     -819721.727 9   1042449.987 9
  20945022.526    20945025.901       94110.970 9   1233579.847 8
  23501953.671    23501960.166    -1210394.806 8    312150.982 8
  21061221.098    21061225.025     -922399.720 8    667656.505 8
 86  6 11 23 28 47.0800000  0  4G 6G 8G 9G11
  21005565.495    21005567.845     -828914.030 9   1035287.162 9
  20947097.462    20947100.940      105014.439 8   1242076.054 7
  23498550.099    23498556.007    -1228285.428 7    298210.261 7
  21059119.024    21059125.430     -933448.367 8    659047.178 7
 86  6 11 23 28 53.0800000  0  4G 6G 8G 9G11
  21003817.715    21003821.025     -838097.273 8   1028131.386 8
  20949175.795    20949180.483      115941.341 8   1250590.535 7
  23495144.689    23495152.027    -1246176.855 8    284268.895 7
  21057020.038    21057026.206     -944475.489 8    650454.610 7
 86  6 11 23 28 59.0800000  0  4G 6G 8G 9G11
  21002071.676    21002075.085     -847271.510 8   1020982.626 9
  20951260.624    20951264.617      126891.597 9   1259123.204 8
  23491739.556    23491747.422    -1264069.185 7    270326.839 7
  21054926.164    21054931.124     -955481.110 8    641878.814 8
 86  6 11 23 29  5.0800000  0  4G 6G 8G 9G11
  21000327.299    21000331.551     -856436.754 9   1013840.885 9
  20953349.245    20953352.889      137865.213 8   1267674.068 8
  23488336.200    23488340.927    -1281962.424 8    256384.075 7
  21052836.143    21052840.199     -966465.160 9    633319.815 8
 86  6 11 23 29 11.0800000  0  4G 6G 8G 9G11
  20998585.069    20998589.077     -865592.879 9   1006706.251 8
  20955441.696    20955445.305      148862.263 8   1276243.204 7
  23484930.314    23484935.864    -1299856.432 8    242440.703 8
  21050749.301    21050755.548     -977427.555 8    624777.689 7
 86  6 11 23 29 17.0800000  0  4G 6G 8G 9G11
  20996844.758    20996847.276     -874739.817 9    999578.766 9
  20957538.430    20957541.126      159882.737 8   1284830.587 7
  23481527.131    23481531.681    -1317751.166 7    228496.767 7
  21048667.801    21048673.389     -988368.274 7    616252.464 7
 86  6 11 23 29 23.0800000  0  4G 6G 8G 9G11
  20995104.848    20995108.518     -883877.598 9    992458.416 8
  20959639.998    20959643.931      170926.517 8   1293436.127 7
  23478120.802    23478125.076    -1335646.751 8    214552.165 8
  21046589.591    21046595.078     -999287.375 8    607744.075 8
 86  6 11 23 29 29.0800000  0  4G 6G 8G 9G11
  20993368.226    20993371.629     -893006.286 8    985345.150 8
  20961746.349    20961750.833      181993.589 8   1302059.812 7
  23474714.391    23474720.028    -1353543.177 8    200606.906 8
  21044516.355    21044521.165    -1010184.919 8    599252.476 8
 86  6 11 23 29 35.0800000  0  4G 6G 8G 9G11
  20991632.232    20991636.254     -902125.891 9    978238.969 9
  20963857.830    20963859.276      193083.901 7   1310701.623 7
  23471307.883    23471314.424    -1371440.410 8    186661.021 9
  21042446.349    21042452.043    -1021060.899 9    590777.686 6
 86  6 11 23 29 41.0800000  0  4G 6G 8G 9G11
  20989899.849    20989903.269     -911236.386 8    971139.882 9
  20965972.426    20965974.953      204197.413 9   1319361.485 8
  23467903.017    23467908.670    -1389338.312 8    172714.601 7
  21040380.929    21040385.419    -1031915.252 8    582319.760 8
 86  6 11 23 29 47.0800000  0  4G 6G 8G 9G11
  20988167.491    20988170.953     -920337.776 8    964047.889 8
  20968090.009    20968094.831      215334.036 9   1328039.371 8
  23464496.797    23464502.258    -1407237.161 9    158767.468 8
  21038320.103    21038324.651    -1042748.016 8    573878.657 7
 86  6 11 23 29 53.0800000  0  4G 6G 8G 9G11
  20986437.164    20986441.102     -929430.082 9    956962.970 9
  20970214.595    20970217.634      226493.800 8   1336735.280 7
  23461091.457    23461095.150    -1425136.862 8    144819.647 8
  21036262.096    21036267.818    -1053559.200 8    565454.357 7
 86  6 11 23 29 59.0800000  0  4G 6G 8G 9G11
  20984708.529    20984712.780     -938513.255 9    949885.173 9
  20972342.812    20972345.028      237676.719 8   1345449.270 8
  23457684.128    23457688.941    -1443037.377 9    130871.206 8
  21034209.795    21034214.275    -1064348.778 8    557046.899 7
 86  6 11 23 30  5.0800000  0  4G 6G 8G 9G11
  20982981.296    20982985.620     -947587.196 9    942814.573 8
  20974474.221    20974477.830      248882.790 8   1354181.249 8
  23454278.756    23454282.494    -1460938.660 9    116922.160 8
  21032159.039    21032165.119    -1075116.675 8    548656.341 8
 86  6 11 23 30 11.0800000  0  4G 6G 8G 9G11
  20981257.009    20981260.971     -956651.840 9    935751.218 9
  20976611.438    20976615.486      260111.968 9   1362931.264 7
  23450871.667    23450877.362    -1478840.614 7    102972.599 8
  21030114.737    21030120.670    -1085862.915 7    540282.646 8
 86  6 11 23 30 17.0800000  0  4G 6G 8G 9G11
  20979532.808    20979536.547     -965707.195 9    928695.102 9
  20978751.782    20978756.513      271364.304 9   1371699.302 8
  23447464.130    23447469.459    -1496743.272 8     89022.484 8
  21028075.562    21028079.807    -1096587.457 8    531925.872 7
 86  6 11 23 30 23.0800000  0  4G 6G 8G 9G11
  20977810.953    20977816.004     -974753.405 9    921646.097 9
  20980898.615    20980903.040      282639.682 8   1380485.313 8
  23444057.423    23444062.268    -1514646.692 8     75071.784 8
  21026036.558    21026043.506    -1107290.347 8    523585.951 7
 86  6 11 23 30 29.0800000  0  4G 6G 8G 9G11
  20976092.216    20976096.009     -983790.303 8    914604.376 9
  20983048.234    20983051.646      293938.116 8   1389289.280 8
  23440650.554    23440655.034    -1532550.859 8     61120.482 8
  21024005.665    21024009.765    -1117971.470 8    515263.009 8
 86  6 11 23 30 35.0800000  0  4G 6G 8G 9G11
  20974374.884    20974378.203     -992817.989 9    907569.811 8
  20985202.878    20985207.274      305259.523 8   1398111.164 8
  23437244.197    23437248.418    -1550455.748 8     47168.632 8
  21021976.345    21021983.174    -1128630.953 8    506956.914 7
 86  6 11 23 30 41.0800000  0  4G 6G 8G 9G11
  20972658.670    20972661.732    -1001836.571 8    900542.340 9
  20987361.666    20987364.648      316603.716 8   1406950.792 7
  23433835.792    23433842.181    -1568361.490 8     33216.117 9
  21019952.389    21019958.521    -1139268.978 8    498667.557 8
 86  6 11 23 30 47.0800000  0  4G 6G 8G 9G11
  20970943.137    20970947.535    -1010845.953 8    893522.046 9
  20989524.208    20989528.994      327970.820 9   1415808.273 7
  23430428.929    23430433.806    -1586268.050 9     19262.979 9
  21017931.719    21017936.385    -1149885.334 7    490395.080 8
 86  6 11 23 30 53.0800000  0  4G 6G 8G 9G11
  20969230.475    20969234.551    -1019845.949 8    886509.058 8
  20991692.932    20991695.772      339360.924 8   1424683.673 7
  23427021.080    23427026.220    -1604175.229 8      5309.338 9
  21015916.255    21015922.327    -1160479.888 7    482139.576 7
 86  6 11 23 30 59.0800000  0  4G 6G 8G 9G11
  20967519.524    20967524.588    -1028836.536 9    879503.409 9
  20993863.628    20993866.905      350774.013 8   1433576.988 8
  23423613.763    23423618.532    -1622083.017 7     -8644.780 7
  21013904.780    21013909.548    -1171052.719 7    473901.007 7
 86  6 11 23 31  5.0800000  0  4G 6G 8G 9G11
  20965810.463    20965814.107    -1037817.745 9    872505.074 9
  20996040.649    20996043.929      362210.051 8   1442488.172 8
  23420205.790    23420209.781    -1639991.444 8    -22599.392 8
  21011896.380    21011902.503    -1181603.795 7    465679.384 7
 86  6 11 23 31 11.0800000  0  4G 6G 8G 9G11
  20964103.375    20964108.585    -1046789.570 8    865514.023 8
  20998221.115    20998224.466      373668.979 9   1451417.221 7
  23416798.119    23416801.439    -1657900.541 7    -36554.517 8
  21009892.550    21009898.223    -1192133.102 8    457474.744 6
 86  6 11 23 31 17.0800000  0  4G 6G 8G 9G11
  20962397.631    20962403.354    -1055751.965 8    858530.350 9
  21000405.187    21000407.574      385150.818 8   1460364.104 8
  23413388.226    23413394.660    -1675810.209 9    -50510.098 9
  21007893.555    21007897.785    -1202640.598 8    449287.089 7
 86  6 11 23 31 23.0800000  0  4G 6G 8G 9G11
  20960694.299    20960698.918    -1064704.924 8    851554.020 9
  21002595.071    21002599.885      396655.567 8   1469328.837 8
  23409980.956    23409985.138    -1693720.525 8    -64466.173 8
  21005898.272    21005903.201    -1213126.197 8    441116.487 8
 86  6 11 23 31 29.0800000  0  4G 6G 8G 9G11
  20958991.757    20958995.826    -1073648.403 8    844585.080 9
  21004787.886    21004792.002      408183.150 8   1478311.355 8
  23406572.561    23406576.769    -1711631.392 7    -78422.690 8
  21003906.035    21003911.489    -1223589.919 8    432962.942 8
 86  6 11 23 31 35.0800000  0  4G 6G 8G 9G11
  20957290.772    20957296.734    -1082582.422 9    837623.501 9
  21006986.039    21006990.272      419733.518 8   1487311.654 8
  23403163.497    23403168.502    -1729542.876 8    -92379.677 8
  21001919.813    21001925.447    -1234031.860 7    424826.364 7
 86  6 11 23 31 41.0800000  0  4G 6G 8G 9G11
  20955594.241    20955598.344    -1091507.051 8    830669.248 8
  21009189.027    21009193.000      431306.625 8   1496329.657 8
  23399755.884    23399759.636    -1747454.916 8   -106337.097 8
  20999936.180    20999942.315    -1244452.050 9    416706.748 7
 86  6 11 23 31 47.0800000  0  4G 6G 8G 9G11
  20953896.258    20953901.704    -1100422.239 8    823722.346 9
  21011394.767    21011399.146      442902.474 9   1505365.384 8
  23396345.988    23396352.065    -1765367.622 7   -120295.033 8
  20997958.262    20997963.974    -1254850.401 8    408604.129 7
 86  6 11 23 31 53.0800000  0  4G 6G 8G 9G11
  20952202.586    20952205.868    -1109327.797 8    816782.949 9
  21013605.763    21013609.241      454521.092 9   1514418.846 8
  23392939.084    23392943.567    -1783280.851 8   -134253.371 8
  20995982.778    20995988.599    -1265226.906 7    400518.552 8
 86  6 11 23 31 59.0800000  0  4G 6G 8G 9G11
  20950508.785    20950514.678    -1118223.879 9    809850.944 9
  21015820.568    21015826.089      466162.432 8   1523490.017 7
  23389530.304    23389533.468    -1801194.626 8   -148212.152 9
  20994012.174    20994017.577    -1275581.554 8    392449.979 7
 86  6 11 23 32  5.0800000  0  4G 6G 8G 9G11
  20948818.923    20948823.374    -1127110.460 8    802926.339 9
  21018041.675    21018044.918      477826.457 8   1532578.862 8
  23386120.467    23386124.656    -1819108.956 8   -162171.367 8
  20992046.911    20992051.468    -1285914.409 8    384398.425 7
 86  6 11 23 32 11.0800000  0  4G 6G 8G 9G11
  20947128.753    20947133.185    -1135987.490 8    796009.181 9
  21020264.771    21020268.899      489513.154 8   1541685.380 7
  23382711.722    23382715.666    -1837023.826 7   -176130.998 9
  20990084.130    20990088.955    -1296225.397 8    376363.886 8
 86  6 11 23 32 17.0800000  0  4G 6G 8G 9G11
  20945442.610    20945445.686    -1144854.908 8    789099.503 9
  21022491.923    21022497.000      501222.495 8   1550809.550 7
  23379302.137    23379306.512    -1854939.187 7   -190091.020 8
  20988125.751    20988131.964    -1306514.503 8    368346.386 8
 86  6 11 23 32 23.0800000  0  4G 6G 8G 9G11
  20943756.243    20943760.877    -1153712.720 9    782197.308 9
  21024725.196    21024730.104      512954.556 8   1559951.408 7
  23375892.893    23375897.045    -1872855.107 8   -204051.463 8
  20986172.197    20986178.829    -1316781.688 9    360345.998 7
 86  6 11 23 32 29.0800000  0  4G 6G 8G 9G11
  20942073.770    20942077.259    -1162560.803 9    775302.691 9
  21026961.882    21026966.413      524709.264 8   1569110.923 7
  23372482.004    23372488.012    -1890771.401 8   -218012.199 8
  20984222.616    20984229.010    -1327026.853 9    352362.753 9
 86  6 11 23 32 35.0800000  0  4G 6G 8G 9G11
  20940390.091    20940394.899    -1171399.265 8    768415.586 9
  21029202.888    21029207.130      536486.628 8   1578288.082 8
  23369073.151    23369078.491    -1908688.118 8   -231973.267 8
  20982278.307    20982283.401    -1337250.052 8    344396.642 7
 86  6 11 23 32 41.0800000  0  4G 6G 8G 9G11
  20938711.508    20938715.012    -1180228.063 8    761536.009 9
  21031449.145    21031453.593      548286.585 9   1587482.858 8
  23365663.115    23365668.511    -1926605.253 8   -245934.663 9
  20980337.387    20980342.639    -1347451.203 9    336447.684 8
 86  6 11 23 32 47.0800000  0  4G 6G 8G 9G11
  20937031.725    20937036.245    -1189047.158 9    754663.990 8
  21033699.826    21033703.645      560109.084 8   1596695.195 8
  23362255.018    23362259.496    -1944522.850 8   -259896.418 9
  20978399.961    20978404.644    -1357630.436 8    328515.834 7
 86  6 11 23 32 53.0800000  0  4G 6G 8G 9G11
  20935355.514    20935360.282    -1197856.500 8    747799.565 7
  21035952.254    21035956.907      571954.166 7   1605925.115 8
  23358845.064    23358849.067    -1962440.779 8   -273858.429 8
  20976467.994    20976472.722    -1367787.667 8    320601.104 8
 86  6 11 23 32 59.0800000  0  4G 6G 8G 9G11
  20933681.824    20933686.144    -1206656.117 8    740942.717 9
  21038210.725    21038215.848      583821.827 8   1615172.650 7
  23355435.142    23355439.423    -1980359.120 7   -287820.760 9
  20974538.045    20974543.647    -1377922.883 8    312703.530 8
 86  6 11 23 33  5.0800000  0  4G 6G 8G 9G11
  20932009.279    20932014.091    -1215445.980 9    734093.474 9
  21040473.580    21040479.081      595711.998 8   1624437.717 7
  23352025.344    23352030.516    -1998277.837 7   -301783.387 8
  20972613.820    20972617.933    -1388036.107 8    304823.107 7
 86  6 11 23 33 11.0800000  0  4G 6G 8G 9G11
  20930338.796    20930342.876    -1224226.060 9    727251.859 9
  21042740.915    21042746.396      607624.632 7   1633720.287 8
  23348615.308    23348619.936    -2016196.913 7   -315746.289 8
  20970693.241    20970698.882    -1398127.290 9    296959.860 8
 86  6 11 23 33 17.0800000  0  4G 6G 8G 9G11
  20928669.198    20928673.882    -1232996.327 8    720417.888 8
  21045011.606    21045017.121      619559.759 8   1643020.384 8
  23345205.221    23345209.785    -2034116.328 7   -329709.465 8
  20968778.818    20968783.107    -1408196.436 8    289113.778 7
 86  6 11 23 33 23.0800000  0  4G 6G 8G 9G11
  20927002.041    20927006.184    -1241756.808 9    713591.545 8
  21047287.569    21047292.197      631517.293 8   1652337.948 8
  23341795.337    23341800.237    -2052036.090 8   -343672.909 8
  20966865.562    20966871.107    -1418243.549 8    281284.852 8
 86  6 11 23 33 29.0800000  0  4G 6G 8G 9G11
  20925337.502    20925341.109    -1250507.436 8    706772.875 9
  21049566.646    21049571.829      643497.314 9   1661673.023 8
  23338383.873    23338389.841    -2069956.159 7   -357636.600 8
  20964958.665    20964963.249    -1428268.641 8    273473.107 8
 86  6 11 23 33 35.0800000  0  4G 6G 8G 9G11
  20923674.060    20923676.480    -1259248.183 9    699961.908 8
  21051851.002    21051856.234      655499.813 8   1671025.614 8
  23334974.883    23334979.436    -2087876.564 6   -371600.535 8
  20963054.167    20963058.692    -1438271.584 8    265678.604 7
 86  6 11 23 33 41.0800000  0  4G 6G 8G 9G11
  20922013.053    20922016.857    -1267979.061 8    693158.622 8
  21054139.199    21054144.354      667524.677 8   1680395.637 8
  23331564.462    23331569.409    -2105797.215 7   -385564.665 8
  20961154.700    20961159.574    -1448252.429 7    257901.326 8
 86  6 11 23 33 47.0800000  0  4G 6G 8G 9G11
  20920353.154    20920357.259    -1276700.074 9    686363.031 8
  21056432.580    21056437.454      679571.904 8   1689783.089 8
  23328154.255    23328158.943    -2123718.209 6   -399529.065 9
  20959258.791    20959265.116    -1458211.165 7    250141.265 8
 86  6 11 23 33 53.0800000  0  4G 6G 8G 9G11
  20918695.404    20918699.339    -1285411.222 9    679575.123 8
  21058729.806    21058732.625      691641.428 9   1699187.914 8
  23324742.539    23324749.029    -2141639.598 7   -413493.790 8
  20957370.032    20957373.542    -1468147.905 8    242398.369 7
 86  6 11 23 33 59.0800000  0  4G 6G 8G 9G11
  20917038.691    20917043.823    -1294112.447 9    672794.951 9
  21061029.222    21061033.944      703733.254 8   1708610.119 9
  23321333.533    23321338.030    -2159561.195 6   -427458.657 8
  20955483.491    20955487.857    -1478062.562 8    234672.664 8
 86  6 11 23 34  5.0800000  0  4G 6G 8G 9G11
  20915386.258    20915390.238    -1302803.731 8    666022.527 8
  21063335.130    21063339.595      715847.408 9   1718049.707 8
  23317922.323    23317927.977    -2177482.998 6   -441423.680 8
  20953600.983    20953603.561    -1487955.038 8    226964.231 7
 86  6 11 23 34 11.0800000  0  4G 6G 8G 9G11
  20913733.521    20913737.653    -1311485.077 8    659257.842 8
  21065643.761    21065648.802      727983.828 9   1727506.661 8
  23314512.500    23314517.140    -2195405.014 6   -455388.882 8
  20951722.052    20951726.595    -1497825.462 8    219273.000 7
 86  6 11 23 34 17.0800000  0  4G 6G 8G 9G11
  20912084.906    20912088.149    -1320156.443 8    652500.933 9
  21067958.099    21067962.214      740142.500 9   1736980.955 8
  23311102.667    23311107.207    -2213327.285 7   -469354.268 9
  20949847.103    20949851.678    -1507673.736 7    211599.031 8
 86  6 11 23 34 23.0800000  0  4G 6G 8G 9G11
  20910435.055    20910438.943    -1328817.815 9    645751.818 9
  21070276.732    21070279.376      752323.424 8   1746472.584 8
  23307690.380    23307696.190    -2231249.740 6   -483319.814 9
  20947976.413    20947980.963    -1517499.840 9    203942.317 8
 86  6 11 23 34 29.0800000  0  4G 6G 8G 9G11
  20908789.491    20908793.094    -1337469.158 9    639010.520 9
  21072598.736    21072603.252      764526.615 8   1755981.550 8
  23304281.714    23304284.920    -2249172.407 6   -497285.503 8
  20946111.685    20946116.369    -1527303.733 8    196302.936 7
 86  6 11 23 34 35.0800000  0  4G 6G 8G 9G11
  20907144.624    20907149.059    -1346110.380 8    632277.090 8
  21074925.522    21074928.868      776752.060 8   1765507.879 8
  23300869.277    23300875.341    -2267095.178 7   -511251.304 9
  20944249.948    20944255.437    -1537085.368 9    188680.884 7
 86  6 11 23 34 41.0800000  0  4G 6G 8G 9G11
  20905501.899    20905507.237    -1354741.422 9    625551.605 9
  21077256.569    21077259.835      788999.774 8   1775051.548 9
  23297458.696    23297464.066    -2285018.023 6   -525217.146 8
  20942393.941    20942398.223    -1546844.679 9    181076.233 8
 86  6 11 23 34 47.0800000  0  4G 6G 8G 9G11
  20903862.835    20903866.474    -1363362.368 9    618833.992 9
  21079591.306    21079594.821      801269.719 8   1784612.540 8
  23294049.293    23294054.123    -2302940.940 6   -539183.029 8
  20940541.712    20940545.587    -1556581.676 9    173488.963 7
 86  6 11 23 34 53.0800000  0  4G 6G 8G 9G11
  20902224.460    20902226.942    -1371973.220 9    612124.233 9
  21081930.346    21081933.458      813561.753 8   1794190.748 8
  23290640.932    23290642.570    -2320864.029 6   -553149.051 7
  20938692.230    20938697.622    -1566296.490 8    165918.983 7
 86  6 11 23 34 59.0800000  0  4G 6G 8G 9G11
  20900587.260    20900590.725    -1380574.074 8    605422.279 8
  21084272.813    21084276.256      825875.830 9   1803786.126 8
  23287227.357    23287233.272    -2338787.354 6   -567115.278 8
  20936847.224    20936852.302    -1575989.218 8    158366.195 7
 86  6 11 23 35  5.0800000  0  4G 6G 8G 9G11
  20898952.036    20898955.887    -1389164.912 8    598728.122 9
  21086621.235    21086624.297      838211.807 8   1813398.575 8
  23283817.667    23283821.659    -2356710.956 6   -581081.724 8
  20935006.411    20935011.085    -1585659.906 8    150830.608 8
 86  6 11 23 35 11.0800000  0  4G 6G 8G 9G11
  20897320.018    20897322.976    -1397745.817 8    592041.696 8
  21088972.833    21088976.276      850569.717 8   1823028.115 8
  23280407.020    23280411.503    -2374634.789 6   -595048.314 8
  20933170.314    20933173.892    -1595308.541 8    143312.194 7
 86  6 11 23 35 17.0800000  0  4G 6G 8G 9G11
  20895689.135    20895692.061    -1406316.703 8    585363.097 8
  21091327.422    21091332.284      862949.541 8   1832674.736 8
  23276995.651    23276999.777    -2392558.851 7   -609015.099 8
  20931338.889    20931344.113    -1604935.031 8    135811.030 8
 86  6 11 23 35 23.0800000  0  4G 6G 8G 9G11
  20894058.234    20894062.310    -1414877.453 8    578692.371 9
  21093688.647    21093691.287      875351.293 9   1842338.440 7
  23273585.914    23273589.221    -2410483.061 6   -622982.007 7
  20929511.691    20929515.873    -1614539.262 9    128327.221 8
 86  6 11 23 35 29.0800000  0  4G 6G 8G 9G11
  20892431.250    20892436.472    -1423428.078 8    572029.551 9
  21096052.317    21096056.482      887774.970 8   1852019.224 8
  23270174.641    23270178.622    -2428407.404 6   -636949.034 7
  20927688.092    20927694.414    -1624121.279 8    120860.696 7
 86  6 11 23 35 35.0800000  0  4G 6G 8G 9G11
  20890806.783    20890809.460    -1431968.539 8    565374.659 9
  21098420.311    21098423.073      900220.533 8   1861717.059 8
  23266761.981    23266767.004    -2446331.895 6   -650916.147 8
  20925869.078    20925873.978    -1633681.146 8    113411.454 7
 86  6 11 23 35 41.0800000  0  4G 6G 8G 9G11
  20889183.746    20889187.057    -1440498.826 9    558727.677 8
  21100793.029    21100795.961      912688.016 9   1871431.975 7
  23263352.327    23263356.863    -2464256.412 6   -664883.296 8
  20924053.108    20924058.101    -1643218.766 7    105979.560 7
 86  6 11 23 35 47.0800000  0  4G 6G 8G 9G11
  20887560.974    20887565.583    -1449018.853 9    552088.698 8
  21103169.938    21103172.191      925177.428 9   1881163.992 9
  23259941.317    23259945.487    -2482180.983 6   -678850.498 8
  20922243.093    20922248.576    -1652734.119 8     98565.002 7
 86  6 11 23 35 53.0800000  0  4G 6G 8G 9G11
  20885942.548    20885946.454    -1457528.622 8    545457.707 9
  21105550.012    21105554.986      937688.747 9   1890913.066 8
  23256530.404    23256534.831    -2500105.638 7   -692817.739 8
  20920436.415    20920442.131    -1662227.143 8     91167.843 7
 86  6 11 23 35 59.0800000  0  4G 6G 8G 9G11
  20884324.895    20884329.299    -1466028.123 9    538834.720 9
  21107935.100    21107939.018      950221.917 9   1900679.180 8
  23253117.578    23253125.146    -2518030.268 7   -706784.962 8
  20918635.230    20918639.287    -1671697.800 9     83788.119 7
 86  6 11 23 36  5.0800000  0  4G 6G 8G 9G11
  20882709.268    20882713.532    -1474517.302 8    532219.785 8
  21110324.431    21110328.601      962776.957 9   1910462.318 8
  23249706.371    23249713.446    -2535954.940 6   -720752.239 8
  20916836.539    20916841.161    -1681146.086 8     76425.806 8
 86  6 11 23 36 11.0800000  0  4G 6G 8G 9G11
  20881095.653    20881100.127    -1482996.139 8    525612.903 8
  21112718.161    21112720.686      975353.886 8   1920262.513 7
  23246297.194    23246302.551    -2553879.516 7   -734719.430 7
  20915042.280    20915047.923    -1690572.042 9     69080.907 8
 86  6 11 23 36 17.0800000  0  4G 6G 8G 9G11
  20879484.348    20879488.556    -1491464.556 9    519014.135 8
  21115115.924    21115118.523      987952.722 8   1930079.797 8
  23242887.606    23242892.015    -2571803.947 7   -748686.508 8
  20913253.537    20913258.164    -1699975.637 8     61753.428 6
 86  6 11 23 36 23.0800000  0  4G 6G 8G 9G11
  20877875.394    20877879.501    -1499922.594 8    512423.451 9
  21117516.620    21117519.795     1000573.344 8   1939914.046 8
  23239476.171    23239480.292    -2589728.402 8   -762653.603 8
  20911467.786    20911473.414    -1709356.842 8     54443.420 8
 86  6 11 23 36 29.0800000  0  4G 6G 8G 9G11
  20876268.356    20876271.202    -1508370.257 8    505840.857 8
  21119923.049    21119926.486     1013215.742 8   1949765.252 7
  23236066.039    23236069.059    -2607652.748 8   -776620.633 8
  20909687.476    20909692.311    -1718715.676 9     47150.818 7
 86  6 11 23 36 35.0800000  0  4G 6G 8G 9G11
  20874662.406    20874666.615    -1516807.578 9    499266.323 8
  21122333.063    21122336.835     1025879.849 8   1959633.385 7
  23232655.128    23232659.514    -2625577.128 8   -790587.663 8
  20907911.612    20907915.495    -1728052.209 9     39875.592 9
 86  6 11 23 36 41.0800000  0  4G 6G 8G 9G11
  20873058.345    20873063.340    -1525234.566 9    492699.844 8
  21124747.052    21124750.252     1038565.618 9   1969518.406 7
  23229243.861    23229248.437    -2643501.416 8   -804554.664 8
  20906137.740    20906141.464    -1737366.419 8     32617.777 7
 86  6 11 23 36 47.0800000  0  4G 6G 8G 9G11
  20871456.062    20871460.723    -1533651.156 8    486141.468 9
  21127164.144    21127168.420     1051273.044 8   1979420.280 8
  23225833.520    23225836.881    -2661425.654 8   -818521.577 8
  20904370.783    20904375.007    -1746658.312 8     25377.339 7
 86  6 11 23 36 53.0800000  0  4G 6G 8G 9G11
  20869856.350    20869861.285    -1542057.361 9    479591.174 9
  21129587.660    21129590.886     1064002.052 9   1989338.995 8
  23222421.779    23222425.588    -2679349.828 8   -832488.476 9
  20902605.628    20902610.624    -1755927.866 7     18154.323 8
 86  6 11 23 36 59.0800000  0  4G 6G 8G 9G11
  20868259.358    20868262.819    -1550453.129 8    473049.021 9
  21132013.898    21132017.244     1076752.685 8   1999274.567 8
  23219011.009    23219014.922    -2697273.997 7   -846455.342 8
  20900846.962    20900850.717    -1765175.010 8     10948.759 7
 86  6 11 23 37  5.0800000  0  4G 6G 8G 9G11
  20866663.136    20866668.528    -1558838.426 8    466515.018 8
  21134442.740    21134446.968     1089524.974 8   2009226.995 8
  23215600.499    23215604.167    -2715197.984 8   -860422.080 8
  20899091.914    20899095.483    -1774399.741 8      3760.657 8
 86  6 11 23 37 11.0800000  0  4G 6G 8G 9G11
  20865069.238    20865074.345    -1567213.253 8    459989.182 9
  21136878.082    21136883.634     1102318.811 8   2019196.209 8
  23212189.476    23212193.288    -2733121.918 8   -874388.773 8
  20897339.983    20897346.073    -1783602.117 8     -3410.030 7
 86  6 11 23 37 17.0800000  0  4G 6G 8G 9G11
  20863478.856    20863482.371    -1575577.744 8    453471.399 9
  21139317.384    21139320.793     1115134.102 8   2029182.152 8
  23208778.006    23208781.792    -2751045.767 7   -888355.408 9
  20895592.553    20895597.691    -1792782.118 8    -10563.267 8
 86  6 11 23 37 23.0800000  0  4G 6G 8G 9G11
  20861889.563    20861893.324    -1583931.659 8    446961.865 8
  21141760.161    21141762.863     1127970.925 8   2039184.873 9
  23205367.921    23205372.150    -2768969.479 7   -902321.926 8
  20893849.188    20893855.656    -1801939.767 8    -17699.096 7
 86  6 11 23 37 29.0800000  0  4G 6G 8G 9G11
  20860302.129    20860304.248    -1592275.069 9    440460.495 9
  21144206.552    21144210.925     1140829.235 8   2049204.331 7
  23201955.879    23201961.218    -2786892.981 7   -916288.282 8
  20892112.580    20892116.555    -1811074.941 8    -24817.407 8
 86  6 11 23 37 35.0800000  0  4G 6G 8G 9G11
  20858714.781    20858719.854    -1600607.975 8    433967.334 8
  21146657.365    21146660.401     1153708.996 9   2059240.514 8
  23198546.354    23198551.612    -2804816.328 8   -930254.514 7
  20890377.723    20890382.636    -1820187.753 8    -31918.294 8
 86  6 11 23 37 41.0800000  0  4G 6G 8G 9G11
  20857131.669    20857136.060    -1608930.354 8    427482.369 8
  21149112.396    21149117.261     1166610.177 9   2069293.372 8
  23195134.897    23195139.511    -2822739.677 8   -944220.756 8
  20888648.307    20888653.866    -1829278.161 9    -39001.729 8
 86  6 11 23 37 47.0800000  0  4G 6G 8G 9G11
  20855550.815    20855554.384    -1617242.202 8    421005.608 8
  21151570.889    21151574.745     1179532.804 9   2079362.947 8
  23191725.073    23191729.321    -2840662.805 8   -958186.817 8
  20886923.550    20886928.416    -1838346.154 8    -46067.696 6
 86  6 11 23 37 53.0800000  0  4G 6G 8G 9G11
  20853970.971    20853973.798    -1625543.449 9    414537.096 9
  21154034.740    21154037.912     1192476.767 8   2089449.157 8
  23188314.532    23188317.461    -2858585.746 7   -972152.740 7
  20885201.181    20885206.791    -1847391.684 9    -53116.163 7
 86  6 11 23 37 59.0800000  0  4G 6G 8G 9G11
  20852392.978    20852397.170    -1633834.118 8    408076.842 9
  21156500.323    21156505.423     1205442.124 9   2099552.031 9
  23184904.521    23184908.127    -2876508.407 8   -986118.461 7
  20883484.940    20883489.049    -1856414.787 9    -60147.127 7
 86  6 11 23 38  5.0800000  0  4G 6G 8G 9G11
  20850817.420    20850820.897    -1642114.058 8    401624.937 8
  21158973.132    21158976.535     1218428.888 8   2109671.579 9
  23181493.162    23181496.996    -2894430.810 9  -1000083.967 8
  20881770.936    20881775.504    -1865415.377 9    -67160.577 7
 86  6 11 23 38 11.0800000  0  4G 6G 8G 9G11
  20849243.467    20849247.546    -1650383.363 7    395181.328 9
  21161448.871    21161451.779     1231437.032 8   2119807.794 8
  23178081.587    23178086.732    -2912352.952 8  -1014049.271 7
  20880063.145    20880066.971    -1874393.420 8    -74156.475 8
 86  6 11 23 38 17.0800000  0  4G 6G 8G 9G11
  20847671.865    20847676.380    -1658641.999 8    388746.021 9
  21163927.232    21163931.310     1244466.520 8   2129960.646 8
  23174672.354    23174677.247    -2930274.817 8  -1028014.339 7
  20878359.463    20878364.231    -1883348.938 8    -81134.779 7
 86  6 11 23 38 23.0800000  0  4G 6G 8G 9G11
  20846103.913    20846106.402    -1666889.923 8    382319.080 9
  21166410.245    21166416.130     1257517.335 9   2140130.101 9
  23171261.110    23171266.396    -2948196.397 7  -1041979.203 8
  20876659.561    20876663.946    -1892281.948 8    -88095.566 7
 86  6 11 23 38 29.0800000  0  4G 6G 8G 9G11
  20844534.770    20844539.459    -1675127.077 9    375900.501 9
  21168898.371    21168902.867     1270589.421 9   2150316.142 8
  23167851.538    23167855.816    -2966117.689 8  -1055943.838 7
  20874964.075    20874967.966    -1901192.485 8    -95038.843 7
 86  6 11 23 38 35.0800000  0  4G 6G 8G 9G11
  20842969.112    20842973.849    -1683353.577 8    369490.253 9
  21171391.035    21171395.065     1283682.740 8   2160518.735 8
  23164441.606    23164446.369    -2984038.601 7  -1069908.183 7
  20873271.834    20873277.065    -1910080.561 8   -101964.599 8
 86  6 11 23 38 41.0800000  0  4G 6G 8G 9G11
  20841406.233    20841409.927    -1691569.288 8    363088.412 8
  21173885.551    21173890.971     1296797.321 9   2170737.884 9
  23161031.990    23161035.113    -3001959.211 8  -1083872.295 8
  20871586.133    20871589.149    -1918946.045 9   -108872.782 7
 86  6 11 23 38 47.0800000  0  4G 6G 8G 9G11
  20839846.332    20839848.710    -1699774.176 8    356694.990 9
  21176385.533    21176391.016     1309933.163 8   2180973.591 9
  23157621.022    23157626.869    -3019879.484 8  -1097836.129 7
  20869902.676    20869906.395    -1927788.951 8   -115763.343 7
 86  6 11 23 38 53.0800000  0  4G 6G 8G 9G11
  20838285.228    20838289.836    -1707968.249 9    350309.991 9
  21178890.119    21178893.665     1323090.254 8   2191225.881 8
  23154211.790    23154215.909    -3037799.373 8  -1111799.663 8
  20868223.657    20868229.484    -1936609.230 9   -122636.295 8
 86  6 11 23 38 59.0800000  0  4G 6G 8G 9G11
  20836728.928    20836732.490    -1716151.491 9    343933.444 9
  21181397.779    21181401.889     1336268.498 8   2201494.637 9
  23150800.504    23150807.649    -3055718.857 8  -1125762.886 8
  20866549.364    20866554.315    -1945406.914 8   -129491.636 8
 86  6 11 23 39  5.0800000  0  4G 6G 8G 9G11
  20835172.547    20835176.526    -1724323.942 8    337565.305 8
  21183908.879    21183912.082     1349467.877 9   2211779.858 8
  23147391.514    23147394.712    -3073637.919 9  -1139725.789 8
  20864879.560    20864883.529    -1954182.062 8   -136329.404 7
 86  6 11 23 39 11.0800000  0  4G 6G 8G 9G11
  20833620.343    20833624.093    -1732485.564 7    331205.598 8
  21186423.511    21186428.777     1362688.356 9   2222081.550 8
  23143980.253    23143984.808    -3091556.670 8  -1153688.452 7
  20863214.333    20863217.949    -1962934.692 9   -143149.637 6
 86  6 11 23 39 17.0800000  0  4G 6G 8G 9G11
  20832069.058    20832072.504    -1740636.299 8    324854.383 8
  21188944.908    21188948.735     1375929.974 9   2232399.686 8
  23140571.702    23140576.403    -3109475.036 8  -1167650.798 7
  20861553.992    20861556.327    -1971664.780 8   -149952.304 7
 86  6 11 23 39 23.0800000  0  4G 6G 8G 9G11
  20830520.230    20830524.117    -1748776.260 9    318511.554 9
  21191469.178    21191473.139     1389192.573 9   2242734.175 9
  23137162.289    23137165.463    -3127393.027 8  -1181612.867 7
  20859896.176    20859900.667    -1980372.314 8   -156737.396 8
 86  6 11 23 39 29.0800000  0  4G 6G 8G 9G11
  20828972.116    20828978.053    -1756905.363 8    312177.181 9
  21193996.582    21194000.995     1402476.136 9   2253085.002 8
  23133753.146    23133756.220    -3145310.733 8  -1195574.704 7
  20858242.797    20858247.731    -1989057.351 7   -163504.949 8
 86  6 11 23 39 35.0800000  0  4G 6G 8G 9G11
  20827427.982    20827432.190    -1765023.692 9    305851.216 8
  21196528.376    21196532.796     1415780.628 8   2263452.133 8
  23130342.337    23130346.019    -3163228.018 8  -1209536.219 7
  20856593.966    20856599.900    -1997719.804 8   -170254.905 7
 86  6 11 23 39 41.0800000  0  4G 6G 8G 9G11
  20825885.220    20825888.648    -1773131.173 8    299533.703 9
  21199064.349    21199068.951     1429105.991 9   2273835.539 8
  23126932.832    23126936.595    -3181144.971 9  -1223497.475 7
  20854950.319    20854955.498    -2006359.773 8   -176987.354 8
 86  6 11 23 39 47.0800000  0  4G 6G 8G 9G11
  20824345.121    20824349.258    -1781227.852 8    293224.597 9
  21201603.981    21201607.212     1442452.222 8   2284235.197 9
  23123524.325    23123528.964    -3199061.613 7  -1237458.500 8
  20853310.117    20853315.563    -2014977.242 7   -183702.255 7
 86  6 11 23 39 53.0800000  0  4G 6G 8G 9G11
  20822805.713    20822809.290    -1789313.653 9    286923.971 8
  21204147.747    21204151.170     1455819.300 8   2294651.101 8
  23120114.839    23120119.144    -3216977.880 8  -1251419.208 7
  20851676.215    20851679.316    -2023572.185 7   -190399.619 8
 86  6 11 23 39 59.0800000  0  4G 6G 8G 9G11
  20821269.965    20821274.059    -1797388.604 9    280631.818 9
  21206694.971    21206699.190     1469207.172 8   2305083.204 9
  23116705.200    23116709.453    -3234893.790 7  -1265379.653 8
  20850044.281    20850048.174    -2032144.618 8   -197079.430 7
 86  6 11 23 40  5.0800000  0  4G 6G 8G 9G11
  20819734.242    20819739.119    -1805452.474 8    274348.270 8
  21209246.813    21209251.916     1482615.956 7   2315531.611 8
  23113295.672    23113300.513    -3252809.134 8  -1279339.639 7
  20848415.924    20848421.573    -2040694.354 8   -203741.547 7
 86  6 11 23 40 11.0800000  0  4G 6G 8G 9G11
  20818202.758    20818206.578    -1813505.376 9    268073.283 9
  21211802.097    21211806.662     1496045.638 8   2325996.296 8
  23109887.242    23109890.221    -3270723.945 8  -1293299.220 8
  20846793.709    20846797.462    -2049221.422 7   -210386.012 7
 86  6 11 23 40 17.0800000  0  4G 6G 8G 9G11
  20816672.985    20816675.794    -1821547.239 7    261806.907 8
  21214361.524    21214365.483     1509496.207 8   2336477.253 8
  23106478.443    23106482.280    -3288638.147 8  -1307258.339 7
  20845176.139    20845180.975    -2057725.825 7   -217012.823 6
 86  6 11 23 40 23.0800000  0  4G 6G 8G 9G11
  20815143.651    20815148.117    -1829578.016 9    255549.160 8
  21216925.077    21216928.729     1522967.623 9   2346974.455 8
  23103070.579    23103073.233    -3306551.856 9  -1321217.087 7
  20843562.066    20843566.183    -2066207.540 8   -223621.960 7
 86  6 11 23 40 29.0800000  0  4G 6G 8G 9G11
  20813617.606    20813622.057    -1837597.692 8    249300.058 8
  21219493.748    21219496.639     1536459.854 8   2357487.890 8
  23099660.443    23099663.646    -3324464.951 8  -1335175.339 7
  20841954.020    20841956.439    -2074666.599 8   -230213.440 7
 86  6 11 23 40 35.0800000  0  4G 6G 8G 9G11
  20812093.390    20812096.840    -1845606.259 8    243059.619 8
  21222064.804    21222067.039     1549972.903 8   2368017.533 9
  23096252.852    23096255.386    -3342377.465 8  -1349133.120 7
  20840347.611    20840350.877    -2083102.988 8   -236787.240 6
 86  6 11 23 40 41.0800000  0  4G 6G 8G 9G11
  20810572.093    20810576.698    -1853603.753 9    236827.803 8
  21224640.736    21224644.010     1563506.676 9   2378563.333 9
  23092842.320    23092847.824    -3360289.384 8  -1363090.461 7
  20838745.134    20838750.304    -2091516.702 8   -243343.362 7
 86  6 11 23 40 47.0800000  0  4G 6G 8G 9G11
  20809051.340    20809056.534    -1861590.159 8    230604.636 9
  21227219.433    21227222.738     1577061.140 9   2389125.239 9
  23089434.557    23089438.838    -3378200.756 8  -1377047.363 8
  20837148.060    20837154.162    -2099907.732 8   -249881.828 7
 86  6 11 23 40 53.0800000  0  4G 6G 8G 9G11
  20807533.820    20807539.242    -1869565.463 8    224390.107 8
  21229802.408    21229806.836     1590636.268 9   2399703.270 9
  23086026.877    23086031.075    -3396111.606 8  -1391003.868 7
  20835557.352    20835560.818    -2108276.155 8   -256402.685 7
 86  6 11 23 40 59.0800000  0  4G 6G 8G 9G11
  20806018.677    20806022.841    -1877529.693 8    218184.221 8
  21232390.008    21232393.216     1604232.068 9   2410297.393 8
  23082618.809    23082621.119    -3414021.823 8  -1404959.878 6
  20833968.145    20833972.329    -2116621.933 8   -262905.891 7
 86  6 11 23 41  5.0800000  0  4G 6G 8G 9G11
  20804505.226    20804510.302    -1885482.661 8    211987.100 9
  21234980.719    21234984.336     1617848.519 9   2420907.619 8
  23079209.733    23079213.976    -3431931.393 9  -1418915.395 7
  20832384.116    20832388.754    -2124944.969 7   -269391.381 6
 86  6 11 23 41 11.0800000  0  4G 6G 8G 9G11
  20802994.371    20802998.566    -1893424.382 8    205798.754 8
  21237576.706    21237579.406     1631485.686 8   2431533.978 9
  23075800.861    23075806.494    -3449840.213 8  -1432870.297 7
  20830805.509    20830809.211    -2133245.176 8   -275859.058 7
 86  6 11 23 41 17.0800000  0  4G 6G 8G 9G11
  20801484.351    20801488.302    -1901354.835 8    199619.172 8
  21240174.151    21240177.772     1645143.491 8   2442176.414 8
  23072394.955    23072399.678    -3467748.354 8  -1446824.690 8
  20829229.429    20829235.037    -2141522.543 7   -282308.956 7
 86  6 11 23 41 23.0800000  0  4G 6G 8G 9G11
  20799978.562    20799982.100    -1909274.076 9    193448.348 9
  21242777.348    21242781.970     1658821.868 9   2452834.892 8
  23068987.262    23068990.974    -3485655.892 8  -1460778.603 8
  20827659.054    20827663.655    -2149777.216 8   -288741.175 6
 86  6 11 23 41 29.0800000  0  4G 6G 8G 9G11
  20798473.669    20798477.246    -1917182.072 9    187286.260 8
  21245384.483    21245387.554     1672520.742 8   2463509.339 9
  23065578.854    23065584.028    -3503562.690 9  -1474731.947 8
  20826093.112    20826096.924    -2158009.240 8   -295155.724 8
 86  6 11 23 41 35.0800000  0  4G 6G 8G 9G11
  20796971.684    20796975.440    -1925078.794 9    181132.978 8
  21247995.635    21247999.434     1686240.238 8   2474199.850 9
  23062171.937    23062175.701    -3521468.707 8  -1488684.672 7
  20824530.408    20824534.503    -2166218.455 7   -301552.510 6
 86  6 11 23 41 41.0800000  0  4G 6G 8G 9G11
  20795470.082    20795474.503    -1932964.214 8    174988.486 8
  21250610.723    21250614.015     1699980.265 9   2484906.370 8
  23058765.141    23058767.501    -3539373.981 8  -1502636.831 7
  20822971.317    20822976.470    -2174404.907 7   -307931.564 7
 86  6 11 23 41 47.0800000  0  4G 6G 8G 9G11
  20793970.851    20793976.689    -1940838.395 8    168852.755 7
  21253228.132    21253232.649     1713740.752 8   2495628.826 8
  23055355.877    23055360.551    -3557278.571 8  -1516588.466 7
  20821417.894    20821423.566    -2182568.643 7   -314292.899 6
 86  6 11 23 41 53.0800000  0  4G 6G 8G 9G11
  20792475.654    20792479.787    -1948701.337 8    162725.793 7
  21255850.844    21255854.070     1727521.624 9   2506367.161 8
  23051949.526    23051953.656    -3575182.512 8  -1530539.574 9
  20819869.339    20819874.356    -2190709.658 8   -320636.553 7
 86  6 11 23 41 59.0800000  0  4G 6G 8G 9G11
  20790981.629    20790985.381    -1956552.979 8    156607.628 8
  21258477.016    21258481.243     1741322.848 9   2517121.361 9
  23048543.290    23048547.218    -3593085.739 8  -1544490.124 8
  20818325.235    20818331.338    -2198827.976 7   -326962.507 7
 86  6 11 23 42  5.0800000  0  4G 6G 8G 9G11
  20789489.099    20789494.303    -1964393.328 7    150498.272 8
  21261107.180    21261111.261     1755144.404 8   2527891.403 9
  23045136.611    23045140.571    -3610988.268 7  -1558440.143 8
  20816784.822    20816790.184    -2206923.597 8   -333270.793 7
 86  6 11 23 42 11.0800000  0  4G 6G 8G 9G11
  20787999.852    20788003.184    -1972222.346 8    144397.741 8
  21263741.863    21263745.366     1768986.338 8   2538677.314 8
  23041730.051    23041733.885    -3628890.068 7  -1572389.602 7
  20815248.035    20815252.932    -2214996.441 8   -339561.323 7
 86  6 11 23 42 17.0800000  0  4G 6G 8G 9G11
  20786512.268    20786516.049    -1980040.073 8    138305.998 8
  21266378.217    21266382.974     1782848.619 8   2549479.100 8
  23038323.446    23038327.978    -3646791.181 6  -1586338.501 8
  20813715.636    20813720.569    -2223046.554 7   -345834.130 7
 86  6 11 23 42 23.0800000  0  4G 6G 8G 9G11
  20785026.259    20785030.648    -1987846.404 9    132223.152 8
  21269019.960    21269024.330     1796731.136 8   2560296.636 7
  23034916.233    23034921.414    -3664691.441 7  -1600286.755 7
  20812187.874    20812193.237    -2231073.898 7   -352089.190 8
 86  6 11 23 42 29.0800000  0  4G 6G 8G 9G11
  20783542.337    20783546.702    -1995641.341 9    126149.176 8
  21271665.847    21271670.266     1810633.917 8   2571129.970 8
  23031511.183    23031514.169    -3682590.890 6  -1614234.370 9
  20810665.096    20810671.200    -2239078.454 8   -358326.519 8
 86  6 11 23 42 35.0800000  0  4G 6G 8G 9G11
  20782062.366    20782065.969    -2003424.905 9    120084.066 8
  21274314.733    21274318.257     1824556.937 9   2581979.090 9
  23028103.503    23028108.733    -3700489.530 7  -1628181.370 8
  20809146.163    20809150.718    -2247060.246 8   -364546.092 6
 86  6 11 23 42 41.0800000  0  4G 6G 8G 9G11
  20780582.850    20780586.317    -2011197.014 8    114027.869 8
  21276969.054    21276972.451     1838500.221 8   2592843.987 8
  23024698.942    23024702.760    -3718387.322 8  -1642127.687 8
  20807630.835    20807636.203    -2255019.270 8   -370747.911 7
 86  6 11 23 42 47.0800000  0  4G 6G 8G 9G11
  20779106.742    20779109.634    -2018957.742 8    107980.548 8
  21279625.355    21279630.052     1852463.701 8   2603724.601 8
  23021292.308    23021298.327    -3736284.429 7  -1656073.471 8
  20806121.838    20806125.988    -2262955.555 8   -376932.033 6
 86  6 11 23 42 53.0800000  0  4G 6G 8G 9G11
  20777631.783    20777634.844    -2026706.930 8    101942.224 9
  21282286.653    21282291.075     1866447.411 8   2614620.986 8
  23017886.895    23017892.320    -3754180.574 6  -1670018.513 8
  20804617.389    20804620.838    -2270868.984 8   -383098.355 8
 86  6 11 23 42 59.0800000  0  4G 6G 8G 9G11
  20776159.652    20776161.850    -2034444.586 9     95912.877 8
  21284952.155    21284955.223     1880451.316 8   2625533.139 8
  23014482.385    23014486.863    -3772075.873 6  -1683962.870 7
  20803114.170    20803119.744    -2278759.553 8   -389246.858 8
 86  6 11 23 43  5.0800000  0  4G 6G 8G 9G11
  20774689.779    20774691.659    -2042170.694 9     89892.538 8
  21287620.018    21287623.865     1894475.420 7   2636460.998 8
  23011076.979    23011081.996    -3789970.154 8  -1697906.461 8
  20801616.618    20801621.743    -2286627.202 8   -395377.479 7
 86  6 11 23 43 11.0800000  0  4G 6G 8G 9G11
  20773221.372    20773223.650    -2049885.150 8     83881.278 8
  21290291.547    21290297.217     1908519.746 8   2647404.627 8
  23007671.871    23007676.382    -3807863.418 7  -1711849.236 8
  20800124.150    20800128.427    -2294471.923 7   -401490.252 6
 86  6 11 23 43 17.0800000  0  4G 6G 8G 9G11
  20771755.934    20771758.343    -2057588.051 9     77879.007 8
  21292968.871    21292973.030     1922584.242 8   2658363.967 8
  23004266.376    23004271.590    -3825755.734 6  -1725791.285 8
  20798635.938    20798641.448    -2302293.800 8   -407585.204 7
 86  6 11 23 43 23.0800000  0  4G 6G 8G 9G11
  20770290.906    20770294.912    -2065279.349 9     71885.795 8
  21295648.834    21295654.212     1936668.823 9   2669338.961 8
  23000862.305    23000867.407    -3843647.164 7  -1739732.633 9
  20797151.215    20797156.056    -2310092.828 8   -413662.375 8
 86  6 11 23 43 29.0800000  0  4G 6G 8G 9G11
  20768830.477    20768833.401    -2072959.048 8     65901.608 9
  21298332.806    21298337.763     1950773.455 8   2680329.587 8
  22997457.987    22997463.273    -3861537.601 6  -1753673.240 9
  20795670.864    20795676.866    -2317868.990 8   -419721.712 7
 86  6 11 23 43 35.0800000  0  4G 6G 8G 9G11
  20767370.483    20767373.359    -2080627.148 9     59926.470 9
  21301020.521    21301025.986     1964898.130 9   2691335.825 8
  22994053.581    22994057.817    -3879427.124 8  -1767613.122 9
  20794197.093    20794199.095    -2325622.247 7   -425763.210 7
 86  6 11 23 43 41.0800000  0  4G 6G 8G 9G11
  20765912.376    20765917.729    -2088283.617 8     53960.391 8
  21303712.019    21303716.848     1979042.747 9   2702357.601 8
  22990647.991    22990653.866    -3897315.627 6  -1781552.207 9
  20792724.314    20792729.544    -2333352.655 8   -431786.917 7
 86  6 11 23 43 47.0800000  0  4G 6G 8G 9G11
  20764459.222    20764462.271    -2095928.444 9     48003.396 8
  21306407.013    21306411.875     1993207.324 8   2713394.932 7
  22987245.322    22987250.831    -3915203.131 8  -1795490.501 8
  20791259.096    20791262.381    -2341060.228 7   -437792.803 7
 86  6 11 23 43 53.0800000  0  4G 6G 8G 9G11
  20763006.580    20763010.256    -2103561.664 9     42055.427 9
  21309107.790    21309111.541     2007391.844 8   2724447.801 7
  22983839.242    22983845.764    -3933089.713 6  -1809428.088 8
  20789795.871    20789800.744    -2348744.931 9   -443780.883 7
 86  6 11 23 43 59.0800000  0  4G 6G 8G 9G11
  20761556.714    20761559.401    -2111183.514 8     36116.326 8
  21311809.646    21311813.538     2021596.042 9   2735515.996 8
  22980436.906    22980443.027    -3950975.515 6  -1823365.065 8
  20788337.655    20788342.966    -2356407.020 7   -449751.337 8
 86  6 11 23 44  5.0800000  0  4G 6G 8G 9G11
  20760108.140    20760111.542    -2118793.799 9     30186.230 7
  21314516.945    21314522.312     2035820.038 8   2746599.623 8
  22977033.831    22977039.442    -3968860.344 6  -1837301.274 9
  20786884.354    20786888.539    -2364046.276 7   -455704.001 7
 86  6 11 23 44 11.0800000  0  4G 6G 8G 9G11
  20758661.821    20758664.555    -2126392.349 7     24265.286 8
  21317226.657    21317232.124     2050063.834 8   2757698.684 9
  22973632.627    22973637.083    -3986744.240 6  -1851236.769 8
  20785434.948    20785440.858    -2371662.730 7   -461638.895 7
 86  6 11 23 44 17.0800000  0  4G 6G 8G 9G11
  20757218.165    20757220.790    -2133979.249 9     18353.424 7
  21319941.884    21319945.496     2064327.472 7   2768813.215 7
  22970228.886    22970233.750    -4004627.018 7  -1865171.378 9
  20783990.827    20783995.551    -2379256.309 7   -467555.978 7
 86  6 11 23 44 23.0800000  0  4G 6G 8G 9G11
  20755775.946    20755779.822    -2141554.375 9     12450.731 9
  21322660.303    21322665.015     2078610.934 8   2779943.172 8
  22966825.779    22966830.664    -4022508.821 6  -1879105.238 8
  20782549.280    20782554.252    -2386826.993 8   -473455.193 7
 86  6 11 23 44 29.0800000  0  4G 6G 8G 9G11
  20754337.614    20754340.145    -2149117.751 9      6557.193 8
  21325382.172    21325386.558     2092914.202 8   2791088.579 8
  22963423.551    22963427.583    -4040389.492 7  -1893038.215 8
  20781113.345    20781117.143    -2394374.792 7   -479336.602 7
 86  6 11 23 44 35.0800000  0  4G 6G 8G 9G11
  20752900.310    20752903.145    -2156669.323 9       672.832 8
  21328107.234    21328110.982     2107237.246 9   2802249.398 7
  22960022.164    22960026.025    -4058269.042 7  -1906970.337 9
  20779681.570    20779685.027    -2401899.662 8   -485200.137 7
 86  6 11 23 44 41.0800000  0  4G 6G 8G 9G11
  20751465.214    20751468.346    -2164209.142 7     -5202.340 8
  21330837.520    21330840.889     2121580.021 8   2813425.571 8
  22956619.310    22956624.214    -4076147.577 7  -1920901.646 8
  20778253.873    20778258.504    -2409401.626 8   -491045.823 7
 86  6 11 23 44 47.0800000  0  4G 6G 8G 9G11
  20750033.546    20750036.268    -2171737.186 9    -11068.354 8
  21333569.196    21333573.960     2135942.467 8   2824617.082 8
  22953217.010    22953221.580    -4094025.035 7  -1934832.125 9
  20776830.396    20776835.036    -2416880.753 8   -496873.714 6
 86  6 11 23 44 53.0800000  0  4G 6G 8G 9G11
  20748602.946    20748605.661    -2179253.450 9    -16925.171 9
  21336306.220    21336310.430     2150324.560 8   2835823.902 8
  22949814.456    22949820.812    -4111901.365 7  -1948761.730 9
  20775411.723    20775416.837    -2424336.922 7   -502683.722 7
 86  6 11 23 44 59.0800000  0  4G 6G 8G 9G11
  20747175.287    20747178.764    -2186757.850 8    -22772.758 9
  21339047.006    21339051.428     2164726.310 8   2847046.044 8
  22946413.450    22946417.846    -4129776.559 8  -1962690.426 9
  20773996.644    20774001.196    -2431770.156 8   -508475.840 8
 86  6 11 23 45  5.0800000  0  4G 6G 8G 9G11
  20745748.687    20745753.294    -2194250.392 9    -28611.113 7
  21341791.153    21341795.900     2179147.686 8   2858283.477 7
  22943013.105    22943016.505    -4147650.476 7  -1976618.150 8
  20772587.360    20772592.230    -2439180.425 7   -514250.072 7
 86  6 11 23 45 11.0800000  0  4G 6G 8G 9G11
  20744325.237    20744328.529    -2201731.088 8    -34440.218 9
  21344539.106    21344545.502     2193588.649 8   2869536.171 7
  22939611.936    22939615.427    -4165523.238 8  -1990544.975 9
  20771181.302    20771185.633    -2446567.837 8   -520006.492 7
 86  6 11 23 45 17.0800000  0  4G 6G 8G 9G11
  20742903.422    20742907.398    -2209199.882 9    -40260.055 8
  21347290.942    21347295.362     2208049.273 8   2880804.195 8
  22936211.625    22936214.470    -4183394.883 8  -2004470.910 8
  20769779.752    20769784.579    -2453932.233 7   -525744.990 8
 86  6 11 23 45 23.0800000  0  4G 6G 8G 9G11
  20741484.751    20741488.852    -2216656.675 8    -46070.546 8
  21350047.261    21350051.658     2222529.530 8   2892087.501 8
  22932811.012    22932812.706    -4201265.292 9  -2018395.904 8
  20768383.575    20768387.082    -2461273.598 7   -531465.520 8
 86  6 11 23 45 29.0800000  0  4G 6G 8G 9G11
  20740068.258    20740072.462    -2224101.444 9    -51871.677 8
  21352806.162    21352810.694     2237029.378 9   2903386.078 8
  22929409.296    22929413.648    -4219134.344 8  -2032319.837 8
  20766989.784    20766993.635    -2468591.961 8   -537168.140 8
 86  6 11 23 45 35.0800000  0  4G 6G 8G 9G11
  20738653.988    20738658.211    -2231534.214 8    -57663.446 8
  21355570.327    21355573.831     2251548.838 9   2914699.949 8
  22926009.452    22926013.739    -4237002.138 8  -2046242.777 8
  20765601.780    20765606.373    -2475887.275 8   -542852.806 8
 86  6 11 23 45 41.0800000  0  4G 6G 8G 9G11
  20737241.558    20737245.806    -2238954.918 9    -63445.816 8
  21358335.820    21358340.750     2266087.879 9   2926029.070 8
  22922609.365    22922614.264    -4254868.653 7  -2060164.741 8
  20764218.028    20764222.363    -2483159.558 7   -548519.504 7
 86  6 11 23 45 47.0800000  0  4G 6G 8G 9G11
  20735831.756    20735835.176    -2246363.572 8    -69218.781 9
  21361106.490    21361111.726     2280646.474 9   2937373.426 7
  22919210.187    22919214.154    -4272733.782 7  -2074085.610 8
  20762839.281    20762841.574    -2490408.771 8   -554168.244 8
 86  6 11 23 45 53.0800000  0  4G 6G 8G 9G11
  20734424.763    20734428.212    -2253760.157 9    -74982.356 9
  21363881.081    21363885.247     2295224.518 8   2948732.938 8
  22915811.065    22915814.782    -4290597.512 7  -2088005.391 7
  20761463.158    20761467.883    -2497634.935 8   -559799.018 8
 86  6 11 23 45 59.0800000  0  4G 6G 8G 9G11
  20733020.056    20733023.078    -2261144.684 9    -80736.540 8
  21366659.382    21366663.987     2309821.991 8   2960107.589 8
  22912412.088    22912415.570    -4308459.874 8  -2101924.108 8
  20760093.197    20760096.997    -2504838.097 8   -565411.869 7
 86  6 11 23 46  5.0800000  0  4G 6G 8G 9G11
  20731615.984    20731619.945    -2268517.163 8    -86481.329 8
  21369439.715    21369444.144     2324438.860 8   2971497.364 8
  22909013.343    22909016.336    -4326320.946 8  -2115841.829 8
  20758726.117    20758731.367    -2512018.310 8   -571006.844 7
 86  6 11 23 46 11.0800000  0  4G 6G 8G 9G11
  20730215.371    20730219.145    -2275877.572 9    -92216.704 8
  21372225.069    21372229.056     2339075.153 9   2982902.263 9
  22905614.008    22905618.326    -4344180.647 8  -2129758.457 8
  20757363.166    20757367.873    -2519175.502 7   -576583.883 7
 86  6 11 23 46 17.0800000  0  4G 6G 8G 9G11
  20728816.848    20728821.511    -2283225.798 8    -97942.604 9
  21375013.778    21375019.137     2353730.851 8   2994322.281 8
  22902214.825    22902219.973    -4362039.014 7  -2143674.060 8
  20756006.801    20756010.912    -2526309.595 8   -582142.915 7
 86  6 11 23 46 23.0800000  0  4G 6G 8G 9G11
  20727420.329    20727424.733    -2290561.847 8   -103659.012 8
  21377806.468    21377811.689     2368405.925 8   3005757.398 8
  22898817.007    22898820.681    -4379896.011 8  -2157588.587 8
  20754652.245    20754658.468    -2533420.640 8   -587683.958 7
 86  6 11 23 46 29.0800000  0  4G 6G 8G 9G11
  20726027.007    20726031.448    -2297885.771 8   -109365.956 8
  21380602.351    21380607.964     2383100.379 9   3017207.617 8
  22895419.656    22895424.320    -4397751.474 8  -2171501.933 9
  20753305.175    20753309.770    -2540508.569 7   -593207.033 7
 86  6 11 23 46 35.0800000  0  4G 6G 8G 9G11
  20724636.989    20724639.935    -2305197.470 8   -115063.386 8
  21383403.089    21383406.575     2397814.133 8   3028672.884 9
  22892022.067    22892026.385    -4415605.459 7  -2185414.129 8
  20751960.112    20751965.596    -2547573.428 6   -598712.130 6
 86  6 11 23 46 41.0800000  0  4G 6G 8G 9G11
  20723246.995    20723250.781    -2312496.965 8   -120751.303 8
  21386206.145    21386210.593     2412547.179 8   3040153.173 8
  22888625.403    22888628.112    -4433458.069 8  -2199325.243 8
  20750620.503    20750625.393    -2554615.227 7   -604199.237 7
 86  6 11 23 46 47.0800000  0  4G 6G 8G 9G11
  20721861.118    20721863.747    -2319784.206 8   -126429.679 8
  21389013.902    21389018.135     2427299.479 8   3051648.466 7
  22885228.429    22885231.385    -4451309.200 7  -2213235.212 8
  20749285.009    20749289.920    -2561633.999 8   -609668.409 7
 86  6 11 23 46 53.0800000  0  4G 6G 8G 9G11
  20720475.786    20720480.178    -2327059.312 8   -132098.580 8
  21391825.407    21391829.438     2442071.005 9   3063158.751 7
  22881831.784    22881834.932    -4469158.868 8  -2227144.042 9
  20747953.128    20747959.217    -2568629.755 8   -615119.622 8
 86  6 11 23 46 59.0800000  0  4G 6G 8G 9G11
  20719093.917    20719097.840    -2334322.235 8   -137758.008 9
  21394640.095    21394643.853     2456861.622 9   3074683.905 8
  22878435.048    22878440.288    -4487007.318 8  -2241051.910 9
  20746626.113    20746630.843    -2575602.537 7   -620552.969 7
 86  6 11 23 47  5.0800000  0  4G 6G 8G 9G11
  20717714.256    20717717.532    -2341573.031 8   -143407.965 8
  21397457.655    21397461.789     2471671.341 8   3086223.937 7
  22875038.739    22875042.467    -4504854.262 8  -2254958.612 9
  20745304.023    20745308.836    -2582552.336 8   -625968.392 7
 86  6 11 23 47 11.0800000  0  4G 6G 8G 9G11
  20716337.079    20716339.854    -2348811.722 8   -149048.507 8
  21400278.937    21400282.953     2486499.958 9   3097778.702 8
  22871642.935    22871647.182    -4522699.872 8  -2268864.270 8
  20743986.129    20743990.247    -2589479.256 8   -631365.989 7
 86  6 11 23 47 17.0800000  0  4G 6G 8G 9G11
  20714960.905    20714965.831    -2356038.183 8   -154679.518 9
  21403105.512    21403108.247     2501347.620 9   3109348.306 8
  22868247.516    22868251.948    -4540544.155 7  -2282768.896 9
  20742672.880    20742677.375    -2596383.204 7   -636745.688 6
 86  6 11 23 47 23.0800000  0  4G 6G 8G 9G11
  20713590.143    20713591.904    -2363252.453 8   -160301.029 8
  21405933.383    21405938.840     2516214.326 8   3120932.755 8
  22864851.678    22864856.337    -4558386.873 8  -2296672.300 8
  20741361.529    20741368.198    -2603264.127 7   -642107.425 7
 86  6 11 23 47 29.0800000  0  4G 6G 8G 9G11
  20712217.660    20712222.198    -2370454.499 9   -165913.021 8
  21408767.246    21408771.253     2531100.012 8   3132531.990 9
  22861456.877    22861461.367    -4576228.172 9  -2310574.614 8
  20740056.951    20740062.380    -2610122.017 7   -647451.249 8
 86  6 11 23 47 35.0800000  0  4G 6G 8G 9G11
  20710850.849    20710853.813    -2377644.201 8   -171515.387 8
  21411603.417    21411607.033     2546004.708 8   3144146.043 9
  22858062.319    22858065.658    -4594067.939 8  -2324475.721 9
  20738756.231    20738762.776    -2616956.849 7   -652777.085 7
 86  6 11 23 47 41.0800000  0  4G 6G 8G 9G11
  20709484.808    20709488.289    -2384821.574 9   -177108.152 8
  21414442.030    21414446.794     2560928.403 8   3155774.888 8
  22854668.004    22854671.753    -4611906.111 7  -2338375.589 8
  20737460.250    20737466.478    -2623768.648 7   -658084.979 7
 86  6 11 23 47 47.0800000  0  4G 6G 8G 9G11
  20708121.540    20708124.775    -2391986.547 8   -182691.240 8
  21417285.661    21417289.862     2575871.046 8   3167418.493 8
  22851272.865    22851277.097    -4629742.659 8  -2352274.185 7
  20736169.829    20736173.425    -2630557.349 7   -663374.863 8
 86  6 11 23 47 53.0800000  0  4G 6G 8G 9G11
  20706759.704    20706764.787    -2399139.151 7   -188264.700 8
  21420134.233    21420138.191     2590832.702 8   3179076.925 8
  22847880.218    22847883.157    -4647577.615 9  -2366171.551 8
  20734881.365    20734886.387    -2637322.909 8   -668646.727 7
 86  6 11 23 47 59.0800000  0  4G 6G 8G 9G11
  20705401.133    20705405.067    -2406279.326 9   -193828.459 9
  21422984.036    21422988.815     2605813.337 9   3190750.149 8
  22844485.832    22844490.013    -4665411.001 8  -2380067.698 9
  20733598.536    20733603.529    -2644065.325 8   -673900.568 7
 86  6 11 23 48  5.0800000  0  4G 6G 8G 9G11
  20704045.338    20704048.158    -2413406.951 8   -199382.457 8
  21425838.377    21425842.926     2620812.973 9   3202438.167 8
  22841092.358    22841097.137    -4683242.633 9  -2393962.458 8
  20732318.644    20732326.287    -2650784.538 8   -679136.306 7
 86  6 11 23 48 11.0800000  0  4G 6G 8G 9G11
  20702691.257    20702694.563    -2420522.109 9   -204926.731 9
  21428696.278    21428700.464     2635831.483 8   3214140.913 8
  22837700.338    22837702.991    -4701072.669 8  -2407855.989 8
  20731046.173    20731051.298    -2657480.610 7   -684354.021 7
 86  6 11 23 48 17.0800000  0  4G 6G 8G 9G11
  20701339.496    20701343.233    -2427624.783 9   -210461.296 8
  21431558.390    21431561.910     2650868.861 8   3225858.345 8
  22834306.101    22834311.695    -4718900.990 8  -2421748.171 8
  20729775.499    20729779.178    -2664153.558 6   -689553.726 8
 86  6 11 23 48 23.0800000  0  4G 6G 8G 9G11
  20699990.340    20699993.345    -2434715.038 8   -215986.163 8
  21434422.515    21434426.100     2665925.058 9   3237590.437 9
  22830915.008    22830918.854    -4736727.693 9  -2435639.092 8
  20728509.159    20728515.300    -2670803.431 8   -694735.445 7
 86  6 11 23 48 29.0800000  0  4G 6G 8G 9G11
  20698643.187    20698646.691    -2441792.840 9   -221501.341 8
  21437292.310    21437296.050     2680999.996 8   3249337.150 8
  22827522.911    22827526.488    -4754552.679 8  -2449528.691 8
  20727249.991    20727254.693    -2677430.259 8   -699899.189 7
 86  6 11 23 48 35.0800000  0  4G 6G 8G 9G11
  20697298.583    20697302.844    -2448858.167 8   -227006.789 8
  21440164.034    21440168.131     2696093.684 9   3261098.473 8
  22824131.151    22824134.614    -4772376.117 8  -2463417.090 8
  20725992.690    20725998.848    -2684033.952 8   -705044.930 7
 86  6 11 23 48 41.0800000  0  4G 6G 8G 9G11
  20695956.550    20695959.784    -2455910.952 9   -232502.463 8
  21443038.360    21443043.144     2711206.130 9   3272874.394 9
  22820739.916    22820743.845    -4790197.767 8  -2477304.090 7
  20724740.939    20724744.059    -2690614.523 8   -710172.642 7
 86  6 11 23 48 47.0800000  0  4G 6G 8G 9G11
  20694617.669    20694620.544    -2462951.144 8   -237988.331 9
  21445918.635    21445923.088     2726337.386 8   3284664.974 8
  22817348.537    22817352.452    -4808017.604 8  -2491189.675 8
  20723494.361    20723498.325    -2697171.929 8   -715282.301 7
 86  6 11 23 48 53.0800000  0  4G 6G 8G 9G11
  20693279.815    20693282.532    -2469978.707 8   -243464.349 8
  21448801.149    21448805.625     2741487.347 8   3296470.145 8
  22813957.779    22813962.009    -4825835.681 8  -2505073.873 8
  20722249.958    20722254.881    -2703706.154 7   -720373.902 7
 86  6 11 23 48 59.0800000  0  4G 6G 8G 9G11
  20691946.112    20691947.754    -2476993.768 9   -248930.637 8
  21451688.095    21451692.047     2756655.933 9   3308289.814 8
  22810566.438    22810571.612    -4843652.098 8  -2518956.796 8
  20721010.792    20721014.923    -2710217.326 8   -725447.541 7
 86  6 11 23 49  5.0800000  0  4G 6G 8G 9G11
  20690611.949    20690616.511    -2483996.126 8   -254387.016 8
  21454576.876    21454582.920     2771843.233 8   3320124.076 8
  22807177.091    22807180.803    -4861466.599 8  -2532838.213 7
  20719775.127    20719780.943    -2716705.260 7   -730503.086 7
 86  6 11 23 49 11.0800000  0  4G 6G 8G 9G11
  20689281.511    20689286.119    -2490985.827 8   -259833.532 8
  21457471.365    21457475.718     2787049.231 8   3331972.898 8
  22803788.045    22803790.434    -4879279.352 8  -2546718.284 7
  20718544.422    20718550.085    -2723170.013 8   -735540.551 7
 86  6 11 23 49 17.0800000  0  4G 6G 8G 9G11
  20687954.847    20687958.163    -2497962.853 9   -265270.169 8
  21460369.145    21460371.779     2802273.848 9   3343836.236 8
  22800397.470    22800402.733    -4897090.193 8  -2560596.858 8
  20717320.016    20717324.394    -2729611.596 7   -740559.969 7
 86  6 11 23 49 23.0800000  0  4G 6G 8G 9G11
  20686630.299    20686632.615    -2504927.129 9   -270696.876 9
  21463269.379    21463273.254     2817517.102 8   3355714.092 8
  22797009.214    22797013.303    -4914899.200 8  -2574474.005 8
  20716098.275    20716101.922    -2736029.982 7   -745561.305 7
 86  6 11 23 49 29.0800000  0  4G 6G 8G 9G11
  20685307.643    20685310.375    -2511878.702 8   -276113.694 7
  21466173.065    21466178.285     2832778.959 9   3367606.446 8
  22793620.709    22793624.669    -4932706.312 8  -2588349.671 8
  20714881.418    20714886.434    -2742425.138 7   -750544.534 8
 86  6 11 23 49 35.0800000  0  4G 6G 8G 9G11
  20683984.821    20683989.528    -2518817.496 8   -281520.554 8
  21469081.214    21469086.482     2848059.404 8   3379513.294 8
  22790233.145    22790236.607    -4950511.500 8  -2602223.822 7
  20713668.280    20713673.980    -2748797.099 7   -755509.703 7
 86  6 11 23 49 41.0800000  0  4G 6G 8G 9G11
  20682667.801    20682672.260    -2525743.645 8   -286917.546 9
  21471992.489    21471997.266     2863358.343 9   3391434.535 8
  22786845.403    22786848.545    -4968314.820 8  -2616096.532 7
  20712460.908    20712465.744    -2755145.897 7   -760456.811 7
 86  6 11 23 49 47.0800000  0  4G 6G 8G 9G11
  20681352.472    20681355.414    -2532657.072 8   -292304.624 9
  21474907.358    21474911.112     2878675.670 8   3403370.113 8
  22783458.176    22783460.269    -4986116.329 9  -2629967.845 7
  20711257.106    20711262.404    -2761471.564 7   -765385.903 8
 86  6 11 23 49 53.0800000  0  4G 6G 8G 9G11
  20680039.821    20680041.922    -2539557.797 8   -297681.813 8
  21477825.886    21477829.693     2894011.430 9   3415320.052 8
  22780070.442    22780074.581    -5003915.882 8  -2643837.620 8
  20710056.700    20710063.087    -2767774.058 8   -770296.943 7
 86  6 11 23 49 59.0800000  0  4G 6G 8G 9G11
  20678728.601    20678732.253    -2546445.803 8   -303049.095 8
  21480747.601    21480752.233     2909365.573 9   3427284.320 8
  22776683.685    22776687.888    -5021713.555 7  -2657705.931 8
  20708863.680    20708867.693    -2774053.431 8   -775189.962 7
 86  6 11 23 50  5.0800000  0  4G 6G 8G 9G11
  20677421.210    20677423.523    -2553321.010 8   -308406.393 7
  21483672.727    21483677.674     2924738.048 9   3439262.878 8
  22773296.559    22773300.539    -5039509.407 8  -2671572.815 7
  20707671.136    20707677.793    -2780309.633 8   -780064.921 8
 86  6 11 23 50 11.0800000  0  4G 6G 8G 9G11
  20676114.483    20676117.769    -2560183.440 8   -313753.731 8
  21486601.749    21486604.961     2940128.912 9   3451255.746 8
  22769909.628    22769914.257    -5057303.347 8  -2685438.213 7
  20706486.128    20706489.716    -2786542.622 7   -784921.792 8
 86  6 11 23 50 17.0800000  0  4G 6G 8G 9G11
  20674812.144    20674815.192    -2567033.101 9   -319091.134 8
  21489533.537    21489537.193     2955538.047 8   3463262.856 8
  22766523.817    22766529.045    -5075095.366 9  -2699302.124 8
  20705303.961    20705309.183    -2792752.462 8   -789760.629 7
 86  6 11 23 50 23.0800000  0  4G 6G 8G 9G11
  20673509.524    20673514.017    -2573869.882 8   -324418.500 8
  21492470.031    21492475.624     2970965.529 8   3475284.268 8
  22763138.578    22763143.845    -5092885.364 8  -2713164.455 7
  20704125.958    20704132.535    -2798939.128 7   -794581.406 8
 86  6 11 23 50 29.0800000  0  4G 6G 8G 9G11
  20672211.645    20672214.988    -2580693.851 8   -329735.878 8
  21495409.629    21495412.955     2986411.309 8   3487319.939 8
  22759754.593    22759757.493    -5110673.434 8  -2727025.289 7
  20702954.677    20702960.127    -2805102.644 7   -799384.126 8
 86  6 11 23 50 35.0800000  0  4G 6G 8G 9G11
  20670915.651    20670919.090    -2587504.893 7   -335043.184 8
  21498350.619    21498356.179     3001875.366 8   3499369.858 8
  22756371.270    22756374.151    -5128459.433 8  -2740884.517 8
  20701785.681    20701791.726    -2811242.940 7   -804168.776 7
 86  6 11 23 50 41.0800000  0  4G 6G 8G 9G11
  20669621.642    20669624.309    -2594303.108 8   -340340.494 8
  21501297.894    21501302.553     3017357.680 8   3511433.997 8
  22752986.350    22752989.646    -5146243.467 8  -2754742.198 7
  20700622.424    20700625.834    -2817359.975 8   -808935.299 8
 86  6 11 23 50 47.0800000  0  4G 6G 8G 9G11
  20668330.870    20668333.253    -2601088.307 9   -345627.671 8
  21504247.727    21504250.879     3032858.245 8   3523512.359 9
  22749602.222    22749606.720    -5164025.339 7  -2768598.197 7
  20699462.548    20699467.560    -2823453.788 8   -813683.712 7
 86  6 11 23 50 53.0800000  0  4G 6G 8G 9G11
  20667041.903    20667045.689    -2607860.557 8   -350904.729 9
  21507201.151    21507205.124     3048377.062 9   3535604.940 8
  22746217.986    22746222.657    -5181805.190 8  -2782452.618 7
  20698306.482    20698312.637    -2829524.309 8   -818413.997 7
 86  6 11 23 50 59.0800000  0  4G 6G 8G 9G11
  20665756.620    20665758.790    -2614619.834 8   -356171.707 8
  21510158.028    21510160.857     3063914.065 9   3547711.697 7
  22742835.778    22742838.876    -5199582.880 8  -2796305.360 7
  20697156.474    20697160.587    -2835571.561 8   -823126.141 8
 86  6 11 23 51  5.0800000  0  4G 6G 8G 9G11
  20664472.032    20664475.386    -2621366.069 8   -361428.519 7
  21513117.579    21513121.230     3079469.258 8   3559832.624 8
  22739452.428    22739456.995    -5217358.481 8  -2810156.456 8
  20696009.152    20696015.000    -2841595.574 8   -827820.163 8
 86  6 11 23 51 11.0800000  0  4G 6G 8G 9G11
  20663190.833    20663193.271    -2628099.318 9   -366675.199 8
  21516080.882    21516085.031     3095042.590 8   3571967.679 9
  22736071.449    22736074.823    -5235131.880 8  -2824005.868 7
  20694868.478    20694874.055    -2847596.286 7   -832496.043 7
 86  6 11 23 51 17.0800000  0  4G 6G 8G 9G11
  20661911.720    20661915.535    -2634819.495 8   -371911.696 7
  21519048.227    21519052.002     3110634.024 8   3584116.840 6
  22732688.819    22732694.046    -5252903.121 9  -2837853.595 7
  20693730.458    20693735.650    -2853573.822 8   -837153.850 7
 86  6 11 23 51 23.0800000  0  4G 6G 8G 9G11
  20660635.732    20660638.520    -2641526.720 8   -377138.105 8
  21522018.415    21522022.469     3126243.498 9   3596280.057 8
  22729307.529    22729312.311    -5270672.278 8  -2851699.673 8
  20692597.917    20692602.869    -2859528.148 8   -841793.596 7
 86  6 11 23 51 29.0800000  0  4G 6G 8G 9G11
  20659361.487    20659364.916    -2648220.987 9   -382354.416 8
  21524991.782    21524995.466     3141870.927 9   3608457.286 8
  22725927.088    22725930.350    -5288439.383 8  -2865544.184 7
  20691470.076    20691474.024    -2865459.316 7   -846415.283 7
 86  6 11 23 51 35.0800000  0  4G 6G 8G 9G11
  20658089.477    20658093.366    -2654902.258 8   -387560.596 9
  21527970.257    21527973.159     3157516.321 8   3620648.510 7
  22722546.345    22722551.444    -5306204.475 8  -2879387.091 7
  20690344.832    20690351.868    -2871367.323 8   -851018.906 7
 86  6 11 23 51 41.0800000  0  4G 6G 8G 9G11
  20656821.179    20656823.752    -2661570.415 8   -392756.564 8
  21530950.989    21530954.857     3173179.684 8   3632853.710 8
  22719166.456    22719170.367    -5323967.300 8  -2893228.267 8
  20689225.073    20689230.228    -2877252.096 8   -855604.455 7
 86  6 11 23 51 47.0800000  0  4G 6G 8G 9G11
  20655554.481    20655557.795    -2668225.520 9   -397942.364 8
  21533934.191    21533937.168     3188860.951 8   3645072.881 8
  22715787.741    22715792.308    -5341727.914 8  -2907067.683 7
  20688108.764    20688113.517    -2883113.632 8   -860171.886 8
 86  6 11 23 51 53.0800000  0  4G 6G 8G 9G11
  20654290.438    20654294.574    -2674867.625 8   -403118.033 9
  21536921.983    21536924.985     3204560.104 9   3657305.983 8
  22712407.796    22712410.821    -5359486.450 8  -2920905.508 8
  20686998.590    20687002.883    -2888952.001 7   -864721.251 8
 86  6 11 23 51 59.0800000  0  4G 6G 8G 9G11
  20653030.067    20653032.514    -2681496.673 9   -408283.533 9
  21539913.300    21539915.897     3220277.112 9   3669552.986 9
  22709028.341    22709032.661    -5377242.834 7  -2934741.639 8
  20685892.204    20685896.905    -2894767.171 9   -869252.556 7
 86  6 11 23 52  5.0800000  0  4G 6G 8G 9G11
  20651770.727    20651774.473    -2688112.608 9   -413438.798 8
  21542907.508    21542910.866     3236011.889 9   3681813.856 8
  22705648.190    22705654.074    -5394997.028 8  -2948576.070 8
  20684789.633    20684794.508    -2900559.223 8   -873765.843 8
 86  6 11 23 52 11.0800000  0  4G 6G 8G 9G11
  20650513.699    20650517.553    -2694715.480 8   -418583.890 8
  21545904.320    21545907.413     3251764.493 9   3694088.609 9
  22702270.276    22702275.463    -5412749.064 7  -2962408.827 7
  20683691.574    20683697.210    -2906328.044 7   -878261.018 7
 86  6 11 23 52 17.0800000  0  4G 6G 8G 9G11
  20649260.125    20649263.759    -2701305.149 8   -423718.699 8
  21548905.505    21548909.831     3267534.858 9   3706377.208 8
  22698894.252    22698898.676    -5430498.829 7  -2976239.797 7
  20682597.854    20682603.811    -2912073.671 8   -882738.148 7
 86  6 11 23 52 23.0800000  0  4G 6G 8G 9G11
  20648008.734    20648011.813    -2707881.663 8   -428843.252 8
  21551910.276    21551913.028     3283323.027 9   3718679.669 8
  22695516.937    22695520.393    -5448246.316 8  -2990069.008 8
  20681509.556    20681515.036    -2917796.042 8   -887197.129 8
 86  6 11 23 52 29.0800000  0  4G 6G 8G 9G11
  20646758.821    20646762.524    -2714444.934 8   -433957.492 8
  21554917.824    21554921.647     3299128.965 8   3730995.981 8
  22692139.657    22692144.496    -5465991.533 8  -3003896.425 8
  20680426.350    20680429.913    -2923495.192 8   -891638.019 8
 86  6 11 23 52 35.0800000  0  4G 6G 8G 9G11
  20645512.267    20645516.502    -2720994.923 8   -439061.377 7
  21557929.680    21557932.317     3314952.707 8   3743326.176 8
  22688763.111    22688768.713    -5483734.336 7  -3017721.996 7
  20679345.578    20679350.806    -2929171.027 8   -896060.748 8
 86  6 11 23 52 41.0800000  0  4G 6G 8G 9G11
  20644269.224    20644272.701    -2727531.563 9   -444154.858 8
  21560942.630    21560947.498     3330794.271 8   3755670.238 9
  22685387.378    22685392.533    -5501474.662 7  -3031545.619 8
  20678270.176    20678275.059    -2934823.507 8   -900465.274 8
 86  6 11 23 52 47.0800000  0  4G 6G 8G 9G11
  20643027.035    20643031.843    -2734054.800 8   -449237.909 9
  21563962.105    21563964.240     3346653.606 9   3768028.160 8
  22682012.523    22682017.164    -5519212.604 6  -3045367.384 7
  20677198.530    20677203.168    -2940452.654 8   -904851.617 8
 86  6 11 23 52 53.0800000  0  4G 6G 8G 9G11
  20641788.494    20641792.157    -2740564.652 8   -454310.520 8
  21566983.122    21566986.245     3362530.736 8   3780399.939 8
  22678637.645    22678641.035    -5536948.062 7  -3059187.213 7
  20676131.301    20676136.460    -2946058.430 8   -909219.750 6
 86  6 11 23 52 59.0800000  0  4G 6G 8G 9G11
  20640552.171    20640556.610    -2747061.149 8   -459372.712 9
  21570006.425    21570010.706     3378425.560 9   3792785.523 8
  22675262.679    22675267.461    -5554681.067 7  -3073005.138 8
  20675070.881    20675074.137    -2951640.849 7   -913569.692 7
 86  6 11 23 53  5.0800000  0  4G 6G 8G 9G11
  20639318.244    20639323.369    -2753544.296 7   -464424.526 9
  21573035.808    21573039.239     3394338.051 9   3805184.870 8
  22671889.374    22671893.568    -5572411.657 7  -3086821.167 7
  20674011.277    20674016.045    -2957199.976 8   -917901.476 7
 86  6 11 23 53 11.0800000  0  4G 6G 8G 9G11
  20638087.399    20638091.434    -2760014.165 8   -469465.979 8
  21576067.472    21576071.411     3410268.122 8   3817597.904 8
  22668514.433    22668520.759    -5590139.892 7  -3100635.368 8
  20672957.280    20672962.840    -2962735.881 8   -922215.162 7
 86  6 11 23 53 17.0800000  0  4G 6G 8G 9G11
  20636860.053    20636863.350    -2766470.667 8   -474497.017 9
  21579101.994    21579105.433     3426215.745 8   3830024.613 8
  22665142.500    22665146.414    -5607865.685 7  -3114447.664 7
  20671908.228    20671914.769    -2968248.524 8   -926510.723 8
 86  6 11 23 53 23.0800000  0  4G 6G 8G 9G11
  20635632.462    20635637.298    -2772913.789 9   -479517.624 8
  21582140.004    21582143.582     3442180.844 8   3842464.946 9
  22661770.169    22661773.665    -5625588.999 7  -3128258.033 7
  20670865.240    20670869.225    -2973737.878 8   -930788.146 8
 86  6 11 23 53 29.0800000  0  4G 6G 8G 9G11
  20634409.910    20634413.657    -2779343.531 8   -484527.818 9
  21585180.853    21585184.792     3458163.442 9   3854918.919 8
  22658396.977    22658402.162    -5643309.929 8  -3142066.549 8
  20669824.036    20669830.061    -2979204.007 8   -935047.470 8
 86  6 11 23 53 35.0800000  0  4G 6G 8G 9G11
  20633190.146    20633193.300    -2785759.939 9   -489527.615 8
  21588225.627    21588230.174     3474163.459 8   3867386.470 8
  22655025.187    22655030.027    -5661028.377 7  -3155873.125 8
  20668787.920    20668792.768    -2984646.919 8   -939288.695 8
 86  6 11 23 53 41.0800000  0  4G 6G 8G 9G11
  20631970.594    20631974.357    -2792162.896 8   -494516.939 8
  21591274.324    21591279.377     3490180.982 9   3879867.642 8
  22651656.145    22651658.971    -5678744.344 7  -3169677.778 7
  20667757.039    20667761.946    -2990066.486 8   -943511.731 8
 86  6 11 23 53 47.0800000  0  4G 6G 8G 9G11
  20630754.141    20630758.190    -2798552.350 9   -499495.727 9
  21594325.092    21594329.430     3506215.959 8   3892362.428 8
  22648282.467    22648288.062    -5696457.752 8  -3183480.416 8
  20666731.212    20666735.949    -2995462.763 8   -947716.619 6
 86  6 11 23 53 53.0800000  0  4G 6G 8G 9G11
  20629540.149    20629545.721    -2804928.309 8   -504464.013 8
  21597380.375    21597384.320     3522268.407 8   3904870.836 8
  22644913.909    22644917.153    -5714168.613 7  -3197281.079 8
  20665707.052    20665712.804    -3000835.751 9   -951903.362 7
 86  6 11 23 53 59.0800000  0  4G 6G 8G 9G11
  20628330.347    20628333.967    -2811290.763 9   -509421.769 9
  21600438.593    21600441.732     3538338.251 8   3917392.784 8
  22641543.866    22641548.776    -5731876.820 7  -3211079.684 7
  20664689.693    20664694.259    -3006185.375 8   -956071.907 8
 86  6 11 23 54  5.0800000  0  4G 6G 8G 9G11
  20627123.052    20627125.561    -2817639.652 8   -514368.949 9
  21603499.141    21603503.394     3554425.510 9   3929928.300 8
  22638174.768    22638178.412    -5749582.531 7  -3224876.326 8
  20663676.946    20663680.996    -3011511.663 8   -960222.253 8
 86  6 11 23 54 11.0800000  0  4G 6G 8G 9G11
  20625917.468    20625921.254    -2823975.025 8   -519305.603 8
  21606563.598    21606567.413     3570530.086 8   3942477.323 8
  22634806.385    22634809.209    -5767285.663 8  -3238670.969 8
  20662666.571    20662672.054    -3016814.646 8   -964354.436 7
 86  6 11 23 54 17.0800000  0  4G 6G 8G 9G11
  20624713.790    20624717.571    -2830296.853 9   -524231.703 8
  21609631.870    21609636.391     3586651.962 8   3955039.822 8
  22631436.714    22631441.984    -5784986.210 8  -3252463.599 8
  20661663.163    20661666.900    -3022094.293 8   -968468.453 8
 86  6 11 23 54 23.0800000  0  4G 6G 8G 9G11
  20623513.309    20623517.624    -2836605.066 8   -529147.198 8
  21612702.305    21612708.109     3602791.160 8   3967615.818 9
  22628069.819    22628072.824    -5802684.089 8  -3266254.145 8
  20660662.188    20660667.410    -3027350.564 8   -972564.234 8
 86  6 11 23 54 29.0800000  0  4G 6G 8G 9G11
  20622314.631    20622318.606    -2842899.615 9   -534052.035 8
  21615777.141    21615781.180     3618947.742 9   3980205.353 8
  22624702.431    22624706.174    -5820379.211 8  -3280042.547 8
  20659667.061    20659671.990    -3032583.443 8   -976641.818 8
 86  6 11 23 54 35.0800000  0  4G 6G 8G 9G11
  20621120.843    20621123.874    -2849180.516 8   -538946.237 9
  21618855.042    21618859.149     3635121.557 8   3992808.335 8
  22621336.428    22621338.872    -5838071.660 7  -3293828.873 8
  20658676.417    20658680.072    -3037793.033 7   -980701.229 8
 86  6 11 23 54 41.0800000  0  4G 6G 8G 9G11
  20619928.101    20619931.787    -2855447.833 8   -543829.870 9
  21621936.644    21621939.398     3651312.569 7   4005424.702 8
  22617969.646    22617974.772    -5855761.474 7  -3307613.119 8
  20657689.087    20657693.383    -3042979.333 7   -984742.511 8
 86  6 11 23 54 47.0800000  0  4G 6G 8G 9G11
  20618736.975    20618741.056    -2861701.541 8   -548702.895 8
  21625020.542    21625024.726     3667520.746 8   4018054.441 8
  22614603.950    22614607.987    -5873448.728 8  -3321395.398 8
  20656705.340    20656709.893    -3048142.366 8   -988765.634 7
 86  6 11 23 54 53.0800000  0  4G 6G 8G 9G11
  20617550.236    20617554.618    -2867941.603 8   -553565.276 8
  21628108.058    21628112.618     3683746.045 9   4030697.530 9
  22611237.606    22611242.667    -5891133.246 8  -3335175.538 7
  20655728.397    20655732.769    -3053282.147 8   -992770.658 8
 86  6 11 23 54 59.0800000  0  4G 6G 8G 9G11
  20616364.785    20616368.975    -2874168.010 9   -558417.013 9
  21631198.479    21631203.757     3699988.448 8   4043353.947 8
  22607875.001    22607877.989    -5908814.978 9  -3348953.514 8
  20654753.859    20654759.185    -3058398.635 7   -996757.537 7
 86  6 11 23 55  5.0800000  0  4G 6G 8G 9G11
  20615182.159    20615186.916    -2880380.715 8   -563258.100 9
  21634294.053    21634297.472     3716247.929 8   4056023.664 7
  22604510.674    22604513.627    -5926494.046 7  -3362729.408 8
  20653785.599    20653789.797    -3063491.861 8  -1000726.273 8
 86  6 11 23 55 11.0800000  0  4G 6G 8G 9G11
  20614003.531    20614007.117    -2886579.763 8   -568088.524 9
  21637390.180    21637394.710     3732524.428 7   4068706.647 8
  22601146.124    22601149.323    -5944170.480 8  -3376503.244 9
  20652820.723    20652824.314    -3068561.781 8  -1004676.858 7
 86  6 11 23 55 17.0800000  0  4G 6G 8G 9G11
  20612825.653    20612829.997    -2892765.128 9   -572908.288 8
  21640490.891    21640494.619     3748817.956 8   4081402.899 9
  22597783.521    22597785.872    -5961844.103 7  -3390274.894 8
  20651859.446    20651864.876    -3073608.382 8  -1008609.284 8
 86  6 11 23 55 23.0800000  0  4G 6G 8G 9G11
  20611651.480    20611656.174    -2898936.832 8   -577717.400 9
  21643593.530    21643599.256     3765128.421 7   4094112.342 8
  22594419.462    22594424.586    -5979514.984 8  -3404044.399 8
  20650904.144    20650909.225    -3078631.734 7  -1012523.566 7
 86  6 11 23 55 29.0800000  0  4G 6G 8G 9G11
  20610480.912    20610483.232    -2905094.752 9   -582515.783 8
  21646702.173    21646706.486     3781455.876 9   4106835.032 8
  22591058.254    22591061.154    -5997183.126 8  -3417811.783 7
  20649952.111    20649956.706    -3083631.768 7  -1016419.703 7
 86  6 11 23 55 35.0800000  0  4G 6G 8G 9G11
  20609310.643    20609313.708    -2911238.894 7   -587303.426 9
  21649812.280    21649816.647     3797800.374 9   4119570.998 8
  22587696.344    22587700.555    -6014848.394 8  -3431576.908 8
  20649004.631    20649009.495    -3088608.465 8  -1020297.652 8
 86  6 11 23 55 41.0800000  0  4G 6G 8G 9G11
  20608143.591    20608148.550    -2917369.182 8   -592080.274 9
  21652924.904    21652928.982     3814161.878 8   4132320.215 9
  22584335.971    22584339.354    -6032510.876 8  -3445339.880 8
  20648063.182    20648067.562    -3093561.759 9  -1024157.350 7
 86  6 11 23 55 47.0800000  0  4G 6G 8G 9G11
  20606980.093    20606984.355    -2923485.590 8   -596846.312 8
  21656041.033    21656045.789     3830540.314 8   4145082.624 8
  22580974.831    22580979.298    -6050170.465 8  -3459100.588 9
  20647124.460    20647129.177    -3098491.699 8  -1027998.855 7
 86  6 11 23 55 53.0800000  0  4G 6G 8G 9G11
  20605819.071    20605823.238    -2929588.066 8   -601601.473 8
  21659161.964    21659165.529     3846935.701 8   4157858.249 7
  22577613.862    22577618.944    -6067826.976 7  -3472858.912 8
  20646190.930    20646195.977    -3103398.230 8  -1031822.139 8
 86  6 11 23 55 59.0800000  0  4G 6G 8G 9G11
  20604660.058    20604664.502    -2935676.697 8   -606345.862 8
  21662283.736    21662290.242     3863348.021 8   4170647.063 8
  22574256.147    22574259.031    -6085480.683 7  -3486615.031 8
  20645261.789    20645266.181    -3108281.453 8  -1035627.235 8
 86  6 11 23 56  5.0800000  0  4G 6G 8G 9G11
  20603504.608    20603507.913    -2941751.420 8   -611079.411 8
  21665411.392    21665415.662     3879777.212 9   4183449.020 9
  22570896.378    22570901.807    -6103131.336 9  -3500368.779 7
  20644336.105    20644341.242    -3113141.301 8  -1039414.125 8
 86  6 11 23 56 11.0800000  0  4G 6G 8G 9G11
  20602351.473    20602353.848    -2947812.227 8   -615802.121 9
  21668540.628    21668544.754     3896223.166 7   4196264.044 8
  22567538.497    22567542.168    -6120779.121 8  -3514120.301 8
  20643416.322    20643421.148    -3117977.834 8  -1043182.857 8
 86  6 11 23 56 17.0800000  0  4G 6G 8G 9G11
  20601200.072    20601203.887    -2953859.222 8   -620514.068 8
  21671673.133    21671677.533     3912685.866 8   4209092.119 9
  22564181.389    22564184.970    -6138424.154 8  -3527869.675 7
  20642501.497    20642505.287    -3122791.148 8  -1046933.499 8
 86  6 11 23 56 23.0800000  0  4G 6G 8G 9G11
  20600051.877    20600056.049    -2959892.323 8   -625215.179 9
  21674809.224    21674812.958     3929165.280 8   4221933.220 9
  22560823.913    22560827.949    -6156066.256 9  -3541616.765 8
  20641589.068    20641592.912    -3127581.185 7  -1050665.990 8
 86  6 11 23 56 29.0800000  0  4G 6G 8G 9G11
  20598906.423    20598910.398    -2965911.563 8   -629905.492 8
  21677948.668    21677953.963     3945661.399 8   4234787.328 7
  22557468.313    22557471.255    -6173705.457 8  -3555361.580 8
  20640681.265    20640686.682    -3132347.891 9  -1054380.289 8
 86  6 11 23 56 35.0800000  0  4G 6G 8G 9G11
  20597764.346    20597767.083    -2971916.838 9   -634584.926 9
  21681090.429    21681095.050     3962174.209 7   4247654.461 9
  22554110.264    22554115.674    -6191341.683 8  -3569104.077 8
  20639778.450    20639784.589    -3137091.304 7  -1058076.458 8
 86  6 11 23 56 41.0800000  0  4G 6G 8G 9G11
  20596623.858    20596627.813    -2977908.174 7   -639253.495 8
  21684235.904    21684241.156     3978703.645 8   4260534.535 8
  22550754.987    22550760.670    -6208975.023 8  -3582844.336 8
  20638880.329    20638885.515    -3141811.361 8  -1061754.422 7
 86  6 11 23 56 47.0800000  0  4G 6G 8G 9G11
  20595486.192    20595490.439    -2983885.520 8   -643911.180 9
  21687384.371    21687388.503     3995249.707 8   4273427.560 7
  22547400.345    22547403.747    -6226605.186 8  -3596582.133 8
  20637988.026    20637991.521    -3146508.093 8  -1065414.218 7
 86  6 11 23 56 53.0800000  0  4G 6G 8G 9G11
  20594351.621    20594355.811    -2989848.927 8   -648557.991 9
  21690536.045    21690541.702     4011812.385 8   4286333.541 9
  22544046.322    22544050.188    -6244232.435 8  -3610317.638 8
  20637097.203    20637102.700    -3151181.518 7  -1069055.843 7
 86  6 11 23 56 59.0800000  0  4G 6G 8G 9G11
  20593219.718    20593223.496    -2995798.249 8   -653193.823 9
  21693690.891    21693696.093     4028391.635 8   4299252.434 8
  22540692.882    22540696.429    -6261856.584 8  -3624050.744 7
  20636211.752    20636217.189    -3155831.618 8  -1072679.299 8
 86  6 11 23 57  5.0800000  0  4G 6G 8G 9G11
  20592090.220    20592093.974    -3001733.615 9   -657818.779 8
  21696849.209    21696854.592     4044987.401 8   4312184.204 8
  22537338.915    22537342.370    -6279477.671 8  -3637781.444 8
  20635331.899    20635336.786    -3160458.426 7  -1076284.609 9
 86  6 11 23 57 11.0800000  0  4G 6G 8G 9G11
  20590963.520    20590966.879    -3007654.910 9   -662432.778 8
  21700010.113    21700015.176     4061599.709 8   4325128.849 8
  22533986.817    22533990.217    -6297095.780 8  -3651509.824 8
  20634457.111    20634461.638    -3165061.930 8  -1079871.746 8
 86  6 11 23 57 17.0800000  0  4G 6G 8G 9G11
  20589840.082    20589843.287    -3013562.216 8   -667035.863 7
  21703174.836    21703179.320     4078228.508 8   4338086.349 8
  22530634.886    22530638.926    -6314710.859 8  -3665235.876 8
  20633584.833    20633589.089    -3169642.133 8  -1083440.738 9
 86  6 11 23 57 23.0800000  0  4G 6G 8G 9G11
  20588718.470    20588721.206    -3019455.393 8   -671627.955 8
  21706342.007    21706347.170     4094873.787 7   4351056.695 7
  22527283.159    22527286.503    -6332322.678 9  -3678959.364 8
  20632717.560    20632723.285    -3174199.069 8  -1086991.594 8
 86  6 11 23 57 29.0800000  0  4G 6G 8G 9G11
  20587599.182    20587602.359    -3025334.444 9   -676209.032 7
  21709512.422    21709516.713     4111535.532 9   4364039.869 8
  22523932.889    22523936.419    -6349931.535 8  -3692680.550 8
  20631854.835    20631859.401    -3178732.678 7  -1090524.271 7
 86  6 11 23 57 35.0800000  0  4G 6G 8G 9G11
  20586482.973    20586486.368    -3031199.340 8   -680779.080 9
  21712687.409    21712691.733     4128213.738 9   4377035.864 8
  22520581.965    22520586.803    -6367537.169 9  -3706399.234 8
  20630996.920    20631001.348    -3183242.902 8  -1094038.730 8
 86  6 11 23 57 41.0800000  0  4G 6G 8G 9G11
  20585369.890    20585372.872    -3037049.983 8   -685338.027 8
  21715863.712    21715868.059     4144908.380 9   4390044.685 8
  22517232.839    22517236.195    -6385139.582 8  -3720115.378 8
  20630143.514    20630147.514    -3187729.743 8  -1097534.970 8
 86  6 11 23 57 47.0800000  0  4G 6G 8G 9G11
  20584257.164    20584262.605    -3042886.464 8   -689885.923 8
  21719043.772    21719048.758     4161619.515 9   4403066.327 9
  22513883.862    22513887.555    -6402738.756 8  -3733829.024 8
  20629292.528    20629297.893    -3192193.233 8  -1101013.007 7
 86  6 11 23 57 53.0800000  0  4G 6G 8G 9G11
  20583151.473    20583155.256    -3048708.687 9   -694422.728 9
  21722226.737    21722230.873     4178347.049 8   4416100.773 8
  22510534.486    22510538.249    -6420334.765 9  -3747540.206 8
  20628449.326    20628453.388    -3196633.348 8  -1104472.833 7
 86  6 11 23 57 59.0800000  0  4G 6G 8G 9G11
  20582045.699    20582050.352    -3054516.617 9   -698948.376 9
  21725412.637    21725417.109     4195090.980 8   4429147.979 8
  22507187.783    22507190.786    -6437927.336 8  -3761248.679 8
  20627608.633    20627613.303    -3201050.047 9  -1107914.423 8
 86  6 11 23 58  5.0800000  0  4G 6G 8G 9G11
  20580942.669    20580946.896    -3060310.292 8   -703462.927 8
  21728601.520    21728607.736     4211851.188 8   4442207.893 9
  22503840.214    22503843.891    -6455516.777 8  -3774954.748 7
  20626771.769    20626776.463    -3205443.397 8  -1111337.807 8
 86  6 11 23 58 11.0800000  0  4G 6G 8G 9G11
  20579844.321    20579847.629    -3066089.702 8   -707966.360 8
  21731795.008    21731800.115     4228627.725 8   4455280.514 8
  22500493.891    22500498.028    -6473102.932 9  -3788658.246 7
  20625940.924    20625946.196    -3209813.361 8  -1114742.976 8
 86  6 11 23 58 17.0800000  0  4G 6G 8G 9G11
  20578745.544    20578750.469    -3071854.800 8   -712458.661 8
  21734989.061    21734995.377     4245420.636 7   4468365.882 8
  22497147.401    22497151.774    -6490685.796 9  -3802359.175 9
  20625113.921    20625117.933    -3214159.968 8  -1118129.948 8
 86  6 11 23 58 23.0800000  0  4G 6G 8G 9G11
  20577652.242    20577655.988    -3077605.598 9   -716939.792 9
  21738189.576    21738193.669     4262229.798 8   4481463.936 8
  22493802.483    22493806.599    -6508265.308 9  -3816057.490 9
  20624290.895    20624295.563    -3218483.179 8  -1121498.661 8
 86  6 11 23 58 29.0800000  0  4G 6G 8G 9G11
  20576559.858    20576564.671    -3083342.107 9   -721409.793 8
  21741391.566    21741395.904     4279055.130 8   4494574.579 8
  22490457.108    22490461.237    -6525841.598 8  -3829753.300 8
  20623472.704    20623476.895    -3222783.017 7  -1124849.197 8
 86  6 11 23 58 35.0800000  0  4G 6G 8G 9G11
  20575471.615    20575475.227    -3089064.232 9   -725868.599 7
  21744596.034    21744601.543     4295896.694 7   4507697.869 8
  22487113.909    22487117.848    -6543414.471 9  -3843446.445 9
  20622659.589    20622663.783    -3227059.494 8  -1128181.516 8
 86  6 11 23 58 41.0800000  0  4G 6G 8G 9G11
  20574385.505    20574389.388    -3094772.058 8   -730316.265 8
  21747804.030    21747808.532     4312754.365 9   4520833.721 8
  22483769.654    22483774.740    -6560984.053 8  -3857137.019 8
  20621848.421    20621853.515    -3231312.710 8  -1131495.702 7
 86  6 11 23 58 47.0800000  0  4G 6G 8G 9G11
  20573301.801    20573305.083    -3100465.583 8   -734752.763 8
  21751016.174    21751019.614     4329628.128 8   4533982.090 8
  22480427.938    22480431.793    -6578550.273 8  -3870824.973 8
  20621044.054    20621048.979    -3235542.606 8  -1134791.726 7
 86  6 11 23 58 53.0800000  0  4G 6G 8G 9G11
  20572220.884    20572225.924    -3106144.743 8   -739178.082 8
  21754229.700    21754233.201     4346517.930 9   4547142.984 7
  22477085.366    22477088.878    -6596113.173 9  -3884510.341 8
  20620244.104    20620248.526    -3239749.202 8  -1138069.586 7
 86  6 11 23 58 59.0800000  0  4G 6G 8G 9G11
  20571144.247    20571147.549    -3111809.631 8   -743592.288 8
  21757446.165    21757451.093     4363423.685 8   4560316.294 8
  22473742.257    22473748.473    -6613672.835 8  -3898193.191 8
  20619448.305    20619452.845    -3243932.571 8  -1141329.363 8
 86  6 11 23 59  5.0800000  0  4G 6G 8G 9G11
  20570068.627    20570071.910    -3117460.241 8   -747995.363 8
  21760665.978    21760670.709     4380345.394 9   4573502.047 7
  22470402.776    22470406.588    -6631229.178 9  -3911873.451 8
  20618656.452    20618661.225    -3248092.720 9  -1144571.034 8
 86  6 11 23 59 11.0800000  0  4G 6G 8G 9G11
  20568995.879    20568999.133    -3123096.402 8   -752387.166 8
  21763890.936    21763894.242     4397283.135 8   4586700.261 8
  22467063.212    22467066.735    -6648782.094 8  -3925551.046 9
  20617869.146    20617873.647    -3252229.520 8  -1147794.510 7
 86  6 11 23 59 17.0800000  0  4G 6G 8G 9G11
  20567925.523    20567930.098    -3128718.156 8   -756767.766 8
  21767115.834    21767118.966     4414236.864 8   4599910.961 8
  22463722.787    22463727.756    -6666331.600 9  -3939225.978 8
  20617086.602    20617092.134    -3256342.970 8  -1150999.799 7
 86  6 11 23 59 23.0800000  0  4G 6G 8G 9G11
  20566857.862    20566862.232    -3134325.507 8   -761137.130 9
  21770345.724    21770348.978     4431206.549 8   4613134.087 8
  22460383.911    22460389.349    -6683877.662 9  -3952898.227 8
  20616307.667    20616313.375    -3260433.091 8  -1154186.903 8
 86  6 11 23 59 29.0800000  0  4G 6G 8G 9G11
  20565794.040    20565798.864    -3139918.313 8   -765495.151 9
  21773576.727    21773582.917     4448192.169 8   4626369.640 8
  22457044.629    22457050.804    -6701420.269 8  -3966567.795 8
  20615534.620    20615538.708    -3264499.834 8  -1157355.794 8
 86  6 11 23 59 35.0800000  0  4G 6G 8G 9G11
  20564732.409    20564736.722    -3145496.640 8   -769841.905 8
  21776812.779    21776816.004     4465193.714 8   4639617.587 8
  22453708.756    22453712.650    -6718959.357 8  -3980234.602 8
  20614764.575    20614769.392    -3268543.260 8  -1160506.519 7
 86  6 11 23 59 41.0800000  0  4G 6G 8G 9G11
  20563674.264    20563678.053    -3151060.420 8   -774177.322 9
  21780050.988    21780055.170     4482211.189 8   4652877.962 8
  22450371.252    22450374.846    -6736494.902 8  -3993898.667 9
  20614000.236    20614004.827    -3272563.343 8  -1163639.038 7
 86  6 11 23 59 47.0800000  0  4G 6G 8G 9G11
  20562617.702    20562621.554    -3156609.628 8   -778501.376 9
  21783293.037    21783296.275     4499244.518 8   4666150.681 8
  22447035.460    22447039.117    -6754026.909 8  -4007559.959 8
  20613239.720    20613244.433    -3276560.035 9  -1166753.353 7
 86  6 11 23 59 53.0800000  0  4G 6G 8G 9G11
  20561564.791    20561569.233    -3162144.264 8   -782814.082 8
  21786536.664    21786540.861     4516293.713 9   4679435.763 9
  22443698.473    22443702.761    -6771555.372 7  -4021218.487 8
  20612482.386    20612488.175    -3280533.378 8  -1169849.455 8
 86  6 11 23 59 59.0800000  0  4G 6G 8G 9G11
  20560513.864    20560518.595    -3167664.359 8   -787115.450 9
  21789784.279    21789789.284     4533358.749 9   4692733.189 8
  22440365.005    22440368.390    -6789080.234 8  -4034874.224 8
  20611732.438    20611737.208    -3284483.353 8  -1172927.363 8
 86  6 12  0  0  5.0800000  0  4G 6G 8G 9G11
  20559466.661    20559470.344    -3173169.800 8   -791405.409 9
  21793035.330    21793038.829     4550439.595 8   4706042.947 8
  22437030.042    22437034.589    -6806601.447 7  -4048527.122 8
  20610984.889    20610989.108    -3288409.958 8  -1175987.060 8
 86  6 12  0  0 11.0800000  0  4G 6G 8G 9G11
  20558421.159    20558425.898    -3178660.609 8   -795683.966 9
  21796287.441    21796291.485     4567536.242 8   4719364.999 7
  22433697.067    22433701.232    -6824119.116 8  -4062177.247 7
  20610242.503    20610246.412    -3292313.213 8  -1179028.557 9
 86  6 12  0  0 17.0800000  0  4G 6G 8G 9G11
  20557379.201    20557383.388    -3184136.864 8   -799951.170 8
  21799544.156    21799547.500     4584648.589 9   4732699.287 8
  22430364.506    22430368.522    -6841633.154 9  -4075824.543 8
  20609503.212    20609507.917    -3296193.142 8  -1182051.870 8
 86  6 12  0  0 23.0800000  0  4G 6G 8G 9G11
  20556340.139    20556344.220    -3189598.491 8   -804206.984 8
  21802804.025    21802807.740     4601776.582 8   4746045.773 8
  22427032.445    22427035.378    -6859143.611 8  -4089469.049 8
  20608769.124    20608773.331    -3300049.780 8  -1185057.044 8
 86  6 12  0  0 29.0800000  0  4G 6G 8G 9G11
  20555304.468    20555306.935    -3195045.477 9   -808451.396 8
  21806066.915    21806069.833     4618920.219 9   4759404.444 7
  22423700.088    22423705.031    -6876650.466 7  -4103110.759 7
  20608040.422    20608044.319    -3303883.133 8  -1188044.081 8
 86  6 12  0  0 35.0800000  0  4G 6G 8G 9G11
  20554269.771    20554274.350    -3200477.796 8   -812684.369 8
  21809331.729    21809335.708     4636079.480 8   4772775.298 8
  22420369.545    22420373.824    -6894153.668 8  -4116749.608 7
  20607314.620    20607319.014    -3307693.171 7  -1191012.933 8
 86  6 12  0  0 41.0800000  0  4G 6G 8G 9G11
  20553238.224    20553243.956    -3205895.472 8   -816905.936 9
  21812600.108    21812602.726     4653254.345 9   4786158.305 8
  22417038.929    22417043.602    -6911653.142 8  -4130385.559 8
  20606593.439    20606598.963    -3311479.883 7  -1193963.616 7
 86  6 12  0  0 47.0800000  0  4G 6G 8G 9G11
  20552210.904    20552215.801    -3211298.450 8   -821116.051 8
  21815870.458    21815873.537     4670444.828 8   4799553.477 9
  22413709.695    22413714.480    -6929148.951 8  -4144018.644 8
  20605877.923    20605882.825    -3315243.290 8  -1196896.145 7
 86  6 12  0  0 53.0800000  0  4G 6G 8G 9G11
  20551186.409    20551189.992    -3216686.668 8   -825314.667 8
  21819145.489    21819149.327     4687650.887 9   4812960.803 8
  22410380.406    22410385.573    -6946641.012 7  -4157648.813 8
  20605166.222    20605171.045    -3318983.374 8  -1199810.490 9
 86  6 12  0  0 59.0800000  0  4G 6G 8G 9G11
  20550161.871    20550167.308    -3222060.160 7   -829501.794 9
  21822422.383    21822425.856     4704872.542 9   4826380.266 8
  22407053.629    22407057.514    -6964129.351 8  -4171276.084 8
  20604457.730    20604463.492    -3322700.112 8  -1202706.640 7
 86  6 12  0  1  5.0800000  0  4G 6G 8G 9G11
  20549143.746    20549148.065    -3227418.832 8   -833677.385 8
  21825702.848    21825706.834     4722109.728 8   4839811.838 8
  22403725.574    22403730.846    -6981613.876 8  -4184900.396 8
  20603755.966    20603760.449    -3326393.463 8  -1205584.575 8
 86  6 12  0  1 11.0800000  0  4G 6G 8G 9G11
  20548125.778    20548130.601    -3232762.733 8   -837841.455 8
  21828985.681    21828989.332     4739362.419 8   4853255.479 9
  22400398.744    22400404.827    -6999094.668 8  -4198521.782 8
  20603056.668    20603062.968    -3330063.460 8  -1208444.318 7
 86  6 12  0  1 17.0800000  0  4G 6G 8G 9G11
  20547113.157    20547116.033    -3238091.802 8   -841993.983 8
  21832271.238    21832275.450     4756630.576 9   4866711.190 8
  22397071.888    22397078.100    -7016571.644 8  -4212140.195 8
  20602363.771    20602368.805    -3333710.113 9  -1211285.856 8
 86  6 12  0  1 23.0800000  0  4G 6G 8G 9G11
  20546102.281    20546106.422    -3243406.090 9   -846134.974 8
  21835562.123    21835564.675     4773914.151 9   4880178.925 7
  22393748.486    22393753.630    -7034044.870 7  -4225755.691 8
  20601673.541    20601678.942    -3337333.465 8  -1214109.255 8
 86  6 12  0  1 29.0800000  0  4G 6G 8G 9G11
  20545093.789    20545096.800    -3248705.558 9   -850264.428 8
  21838852.932    21838856.732     4791213.098 8   4893658.612 9
  22390424.888    22390428.660    -7051514.290 8  -4239368.222 7
  20600989.021    20600993.762    -3340933.572 7  -1216914.531 7
 86  6 12  0  1 35.0800000  0  4G 6G 8G 9G11
  20544087.699    20544091.219    -3253990.165 8   -854382.311 9
  21842147.029    21842151.340     4808527.435 8   4907150.296 7
  22387100.779    22387106.249    -7068979.814 7  -4252977.718 8
  20600309.397    20600312.594    -3344510.347 8  -1219701.623 9
 86  6 12  0  1 41.0800000  0  4G 6G 8G 9G11
  20543085.203    20543088.030    -3259259.925 8   -858488.621 8
  21845444.744    21845449.494     4825857.127 9   4920653.952 9
  22383777.500    22383781.864    -7086441.448 8  -4266584.182 9
  20599631.906    20599637.205    -3348063.839 9  -1222470.581 8
 86  6 12  0  1 47.0800000  0  4G 6G 8G 9G11
  20542086.115    20542088.510    -3264514.788 8   -862583.318 8
  21848745.144    21848748.518     4843202.139 8   4934169.541 9
  22380454.449    22380461.146    -7103899.287 7  -4280187.668 7
  20598960.331    20598965.776    -3351594.011 8  -1225221.350 7
 86  6 12  0  1 53.0800000  0  4G 6G 8G 9G11
  20541087.224    20541090.587    -3269754.695 7   -866666.355 9
  21852049.352    21852053.327     4860562.476 9   4947697.072 8
  22377133.711    22377139.527    -7121353.041 7  -4293788.011 8
  20598293.673    20598297.880    -3355100.790 8  -1227953.916 7
 86  6 12  0  1 59.0800000  0  4G 6G 8G 9G11
  20540092.861    20540096.602    -3274979.650 8   -870737.756 9
  21855355.491    21855359.614     4877938.190 8   4961236.598 8
  22373813.464    22373817.965    -7138802.934 8  -4307385.315 8
  20597631.446    20597634.562    -3358584.196 8  -1230668.247 7
 86  6 12  0  2  5.0800000  0  4G 6G 8G 9G11
  20539101.552    20539106.108    -3280189.628 8   -874797.472 8
  21858664.813    21858668.514     4895329.221 8   4974788.035 8
  22370494.644    22370498.772    -7156248.777 8  -4320979.484 8
  20596973.064    20596977.375    -3362044.194 8  -1233364.362 8
 86  6 12  0  2 11.0800000  0  4G 6G 8G 9G11
  20538112.755    20538117.354    -3285384.590 8   -878845.498 8
  21861977.923    21861981.065     4912735.486 9   4988351.362 8
  22367173.855    22367180.657    -7173690.782 8  -4334570.639 8
  20596319.466    20596321.055    -3365480.855 7  -1236042.261 8
 86  6 12  0  2 17.0800000  0  4G 6G 8G 9G11
  20537126.789    20537131.394    -3290564.545 9   -882881.820 8
  21865291.556    21865296.514     4930156.992 8   5001926.555 8
  22363856.610    22363860.450    -7191128.713 8  -4348158.628 7
  20595668.417    20595673.899    -3368894.156 8  -1238701.979 7
 86  6 12  0  2 23.0800000  0  4G 6G 8G 9G11
  20536144.643    20536148.478    -3295729.480 8   -886906.444 8
  21868610.379    21868615.105     4947593.683 8   5015513.590 8
  22360539.253    22360543.850    -7208562.621 8  -4361743.485 8
  20595023.608    20595027.991    -3372284.136 8  -1241343.519 7
 86  6 12  0  2 29.0800000  0  4G 6G 8G 9G11
  20535165.202    20535168.928    -3300879.438 9   -890919.407 7
  21871931.136    21871935.166     4965045.533 9   5029112.419 8
  22357221.526    22357226.758    -7225992.598 8  -4375325.285 8
  20594382.481    20594387.810    -3375650.818 8  -1243966.916 7
 86  6 12  0  2 35.0800000  0  4G 6G 8G 9G11
  20534187.286    20534191.129    -3306014.372 7   -894920.645 8
  21875254.827    21875258.871     4982512.424 9   5042722.987 8
  22353907.087    22353910.981    -7243418.509 7  -4388903.904 8
  20593746.047    20593751.127    -3378994.212 7  -1246572.162 8
 86  6 12  0  2 41.0800000  0  4G 6G 8G 9G11
  20533213.743    20533217.915    -3311134.322 8   -898910.217 9
  21878582.093    21878585.951     4999994.360 7   5056345.270 8
  22350591.817    22350595.016    -7260840.443 7  -4402479.434 8
  20593115.320    20593119.000    -3382314.320 8  -1249159.263 7
 86  6 12  0  2 47.0800000  0  4G 6G 8G 9G11
  20532241.379    20532245.697    -3316239.217 8   -902888.055 8
  21881909.488    21881916.829     5017491.319 8   5069979.263 8
  22347276.776    22347280.916    -7278258.348 8  -4416051.832 8
  20592488.220    20592492.671    -3385611.198 8  -1251728.252 7
 86  6 12  0  2 53.0800000  0  4G 6G 8G 9G11
  20531272.515    20531277.657    -3321329.124 8   -906854.214 8
  21885243.238    21885248.365     5035003.323 8   5083624.967 8
  22343962.145    22343967.326    -7295672.336 8  -4429621.163 8
  20591864.303    20591869.129    -3388884.838 7  -1254279.140 8
 86  6 12  0  2 59.0800000  0  4G 6G 8G 9G11
  20530306.447    20530311.776    -3326403.920 8   -910808.607 8
  21888578.027    21888583.711     5052530.308 8   5097282.359 8
  22340649.450    22340653.771    -7313082.170 8  -4443187.270 7
  20591246.813    20591250.152    -3392135.182 8  -1256811.876 7
 86  6 12  0  3  5.0800000  0  4G 6G 8G 9G11
  20529342.860    20529348.183    -3331463.628 8   -914751.234 8
  21891915.262    21891921.634     5070072.246 7   5110951.406 8
  22337337.074    22337341.498    -7330487.880 8  -4456750.160 8
  20590631.491    20590636.352    -3395362.226 7  -1259326.452 7
 86  6 12  0  3 11.0800000  0  4G 6G 8G 9G11
  20528383.864    20528388.643    -3336508.172 7   -918682.044 8
  21895258.665    21895263.327     5087629.226 9   5124632.154 8
  22334025.211    22334031.894    -7347889.392 8  -4470309.768 7
  20590022.416    20590026.776    -3398565.927 7  -1261822.841 8
 86  6 12  0  3 17.0800000  0  4G 6G 8G 9G11
  20527427.692    20527430.694    -3341537.502 8   -922600.999 8
  21898601.000    21898606.709     5105201.128 8   5138324.549 8
  22330715.833    22330719.399    -7365286.792 7  -4483866.179 7
  20589417.433    20589421.660    -3401746.282 8  -1264301.040 7
 86  6 12  0  3 23.0800000  0  4G 6G 8G 9G11
  20526472.410    20526477.118    -3346551.685 9   -926508.155 9
  21901949.163    21901952.854     5122787.951 8   5152028.555 8
  22327405.145    22327409.990    -7382679.953 8  -4497419.271 8
  20588816.424    20588820.699    -3404903.300 7  -1266761.053 7
 86  6 12  0  3 29.0800000  0  4G 6G 8G 9G11
  20525522.572    20525526.083    -3351550.637 7   -930403.445 8
  21905297.174    21905302.890     5140389.708 8   5165744.208 8
  22324097.179    22324100.985    -7400068.898 8  -4510969.099 7
  20588219.114    20588224.333    -3408036.972 7  -1269202.862 8
 86  6 12  0  3 35.0800000  0  4G 6G 8G 9G11
  20524573.821    20524577.876    -3356534.367 8   -934286.875 8
  21908649.627    21908655.883     5158006.288 7   5179471.418 9
  22320787.829    22320793.456    -7417453.716 7  -4524515.701 7
  20587628.136    20587632.495    -3411147.387 8  -1271626.569 7
 86  6 12  0  3 41.0800000  0  4G 6G 8G 9G11
  20523628.278    20523631.369    -3361502.915 7   -938158.474 9
  21912004.115    21912009.942     5175637.696 9   5193210.162 9
  22317480.746    22317484.905    -7434834.305 8  -4538059.018 7
  20587040.291    20587045.514    -3414234.555 7  -1274032.146 7
 86  6 12  0  3 47.0800000  0  4G 6G 8G 9G11
  20522685.525    20522689.973    -3366456.213 8   -942018.183 9
  21915364.206    21915367.927     5193283.942 8   5206960.488 8
  22314174.782    22314178.045    -7452210.613 9  -4551599.004 8
  20586456.566    20586461.051    -3417298.407 8  -1276419.566 8
 86  6 12  0  3 53.0800000  0  4G 6G 8G 9G11
  20521745.443    20521750.162    -3371394.227 9   -945865.986 8
  21918724.249    21918729.010     5210944.982 8   5220722.323 8
  22310869.729    22310872.751    -7469582.633 9  -4565135.646 7
  20585878.783    20585882.854    -3420338.912 6  -1278788.774 8
 86  6 12  0  3 59.0800000  0  4G 6G 8G 9G11
  20520807.761    20520813.860    -3376316.851 8   -949701.799 8
  21922087.908    21922092.755     5228620.838 8   5234495.719 9
  22307563.534    22307568.215    -7486950.305 9  -4578668.885 7
  20585304.430    20585308.739    -3423356.065 7  -1281139.817 7
 86  6 12  0  4  5.0800000  0  4G 6G 8G 9G11
  20519874.176    20519880.672    -3381224.221 8   -953525.716 8
  21925453.315    21925458.480     5246311.455 8   5248280.605 8
  22304258.226    22304263.394    -7504313.654 7  -4592198.771 8
  20584734.840    20584739.577    -3426349.976 8  -1283472.730 8
 86  6 12  0  4 11.0800000  0  4G 6G 8G 9G11
  20518943.549    20518947.289    -3386116.276 8   -957337.711 9
  21928823.308    21928828.180     5264016.703 8   5262076.902 9
  22300955.432    22300961.175    -7521672.767 8  -4605725.340 8
  20584169.036    20584172.948    -3429320.607 7  -1285787.498 8
 86  6 12  0  4 17.0800000  0  4G 6G 8G 9G11
  20518016.422    20518020.191    -3390993.056 7   -961137.800 8
  21932194.904    21932199.603     5281736.566 8   5275884.590 9
  22297653.099    22297658.626    -7539027.532 8  -4619248.529 7
  20583607.570    20583611.482    -3432267.973 8  -1288084.148 8
 86  6 12  0  4 23.0800000  0  4G 6G 8G 9G11
  20517090.869    20517095.119    -3395854.519 8   -964925.950 8
  21935570.277    21935575.030     5299471.061 8   5289703.665 9
  22294351.909    22294356.970    -7556378.005 7  -4632768.388 8
  20583052.774    20583055.968    -3435192.120 8  -1290362.702 8
 86  6 12  0  4 29.0800000  0  4G 6G 8G 9G11
  20516167.769    20516173.527    -3400700.623 8   -968702.130 8
  21938946.788    21938951.793     5317220.173 8   5303534.144 8
  22291051.268    22291055.479    -7573724.158 9  -4646284.861 7
  20582500.355    20582504.668    -3438093.005 8  -1292623.125 7
 86  6 12  0  4 35.0800000  0  4G 6G 8G 9G11
  20515249.974    20515253.772    -3405531.375 9   -972466.366 9
  21942327.672    21942331.848     5334983.865 8   5317375.976 8
  22287750.596    22287755.221    -7591065.898 8  -4659797.900 8
  20581952.047    20581957.729    -3440970.662 8  -1294865.468 7
 86  6 12  0  4 41.0800000  0  4G 6G 8G 9G11
  20514333.307    20514337.663    -3410346.730 9   -976218.581 8
  21945710.397    21945716.013     5352762.104 7   5331229.142 9
  22284452.237    22284456.429    -7608403.299 8  -4673307.557 8
  20581408.640    20581414.307    -3443825.127 7  -1297089.721 7
 86  6 12  0  4 47.0800000  0  4G 6G 8G 9G11
  20513418.455    20513424.920    -3415146.593 8   -979958.737 8
  21949096.200    21949101.813     5370554.895 8   5345093.650 8
  22281153.025    22281157.083    -7625736.118 8  -4686813.633 7
  20580871.169    20580874.518    -3446656.274 8  -1299295.798 8
 86  6 12  0  4 53.0800000  0  4G 6G 8G 9G11
  20512509.186    20512514.094    -3419931.035 9   -983686.875 8
  21952486.493    21952490.016     5388362.229 8   5358969.495 8
  22277855.904    22277860.063    -7643064.466 9  -4700316.247 8
  20580336.120    20580341.269    -3449464.144 7  -1301483.756 8
 86  6 12  0  4 59.0800000  0  4G 6G 8G 9G11
  20511601.929    20511605.998    -3424700.050 9   -987402.990 9
  21955876.321    21955881.014     5406184.067 8   5372856.640 9
  22274560.470    22274563.207    -7660388.365 9  -4713815.387 8
  20579807.521    20579811.023    -3452248.737 8  -1303653.585 8
 86  6 12  0  5  5.0800000  0  4G 6G 8G 9G11
  20510697.942    20510700.398    -3429453.514 8   -991106.995 9
  21959269.889    21959275.903     5424020.393 8   5386755.067 8
  22271263.375    22271267.683    -7677707.785 7  -4727311.030 7
  20579280.943    20579286.034    -3455010.024 7  -1305805.214 8
 86  6 12  0  5 11.0800000  0  4G 6G 8G 9G11
  20509796.504    20509799.983    -3434191.541 8   -994798.953 9
  21962668.558    21962672.432     5441871.092 8   5400664.695 8
  22267969.084    22267973.621    -7695022.741 9  -4740803.203 8
  20578759.204    20578764.353    -3457748.041 8  -1307938.737 7
 86  6 12  0  5 17.0800000  0  4G 6G 8G 9G11
  20508896.607    20508900.788    -3438914.164 8   -998478.927 9
  21966068.142    21966071.433     5459736.116 8   5414585.491 8
  22264674.959    22264680.059    -7712333.266 8  -4754291.920 8
  20578243.339    20578249.182    -3460462.867 7  -1310054.195 7
 86  6 12  0  5 23.0800000  0  4G 6G 8G 9G11
  20508001.272    20508006.315    -3443621.311 8  -1002146.829 8
  21969470.452    21969473.922     5477615.466 9   5428517.438 7
  22261380.554    22261385.672    -7729639.298 8  -4767777.128 8
  20577730.676    20577735.669    -3463154.509 9  -1312151.578 8
 86  6 12  0  5 29.0800000  0  4G 6G 8G 9G11
  20507107.883    20507113.135    -3448312.888 8  -1005802.603 9
  21972874.265    21972878.609     5495509.238 8   5442460.639 8
  22258089.297    22258094.708    -7746940.746 9  -4781258.781 9
  20577223.102    20577227.775    -3465822.842 7  -1314230.798 7
 86  6 12  0  5 35.0800000  0  4G 6G 8G 9G11
  20506219.062    20506223.201    -3452988.931 8  -1009446.276 9
  21976282.775    21976287.261     5513417.335 7   5456414.998 8
  22254797.553    22254801.338    -7764237.579 8  -4794736.825 8
  20576719.703    20576724.012    -3468467.900 8  -1316291.882 7
 86  6 12  0  5 41.0800000  0  4G 6G 8G 9G11
  20505332.476    20505335.750    -3457649.377 9  -1013077.796 9
  21979692.566    21979697.355     5531339.717 7   5470380.486 8
  22251506.214    22251511.552    -7781529.859 8  -4808211.306 7
  20576220.822    20576225.480    -3471089.755 7  -1318334.871 7
 86  6 12  0  5 47.0800000  0  4G 6G 8G 9G11
  20504448.735    20504452.770    -3462294.263 8  -1016697.191 9
  21983105.086    21983111.507     5549276.345 7   5484357.069 8
  22248217.356    22248221.268    -7798817.565 8  -4821682.252 7
  20575725.465    20575731.744    -3473688.382 8  -1320359.771 8
 86  6 12  0  5 53.0800000  0  4G 6G 8G 9G11
  20503567.709    20503570.528    -3466923.552 8  -1020304.428 8
  21986521.733    21986526.695     5567227.187 8   5498344.722 8
  22244929.475    22244932.970    -7816100.696 9  -4835149.612 8
  20575236.245    20575241.747    -3476263.763 7  -1322366.572 6
 86  6 12  0  5 59.0800000  0  4G 6G 8G 9G11
  20502688.936    20502693.105    -3471537.227 8  -1023899.498 8
  21989939.760    21989945.426     5585192.222 7   5512343.446 8
  22241641.370    22241645.123    -7833379.124 9  -4848613.337 9
  20574750.839    20574754.868    -3478815.927 8  -1324355.278 7
 86  6 12  0  6  5.0800000  0  4G 6G 8G 9G11
  20501814.493    20501818.053    -3476135.225 9  -1027482.357 9
  21993362.621    21993366.832     5603171.497 8   5526353.264 9
  22238353.144    22238357.595    -7850652.816 8  -4862073.338 9
  20574269.447    20574274.605    -3481344.851 7  -1326325.854 7
 86  6 12  0  6 11.0800000  0  4G 6G 8G 9G11
  20500942.871    20500946.182    -3480717.533 9  -1031052.983 8
  21996786.258    21996790.265     5621164.975 9   5540374.155 9
  22235067.527    22235071.646    -7867921.884 7  -4875529.746 8
  20573792.682    20573796.695    -3483850.492 6  -1328278.302 8
 86  6 12  0  6 17.0800000  0  4G 6G 8G 9G11
  20500073.905    20500077.053    -3485284.154 9  -1034611.381 8
  22000213.596    22000218.477     5639172.626 8   5554406.087 8
  22231782.877    22231786.584    -7885186.130 9  -4888982.407 8
  20573319.846    20573325.062    -3486332.826 8  -1330212.606 8
 86  6 12  0  6 23.0800000  0  4G 6G 8G 9G11
  20499207.913    20499210.677    -3489835.135 9  -1038157.601 9
  22003640.921    22003646.062     5657194.343 8   5568448.969 8
  22228498.402    22228501.299    -7902445.701 8  -4902431.428 8
  20572851.723    20572857.066    -3488792.042 8  -1332128.849 7
 86  6 12  0  6 29.0800000  0  4G 6G 8G 9G11
  20498344.860    20498346.912    -3494370.368 9  -1041691.552 9
  22007074.758    22007078.426     5675230.146 8   5582502.842 8
  22225214.324    22225218.226    -7919700.608 8  -4915876.792 9
  20572388.747    20572394.106    -3491228.025 8  -1334027.035 8
 86  6 12  0  6 35.0800000  0  4G 6G 8G 9G11
  20497485.899    20497488.211    -3498889.918 9  -1045213.286 9
  22010510.795    22010512.663     5693279.994 9   5596567.657 9
  22221932.514    22221936.530    -7936950.720 8  -4929318.436 8
  20571930.282    20571933.390    -3493640.806 7  -1335907.106 7
 86  6 12  0  6 41.0800000  0  4G 6G 8G 9G11
  20496627.490    20496631.354    -3503393.692 8  -1048722.722 8
  22013947.380    22013951.669     5711343.898 8   5610643.412 8
  22218649.872    22218654.571    -7954196.032 8  -4942756.331 8
  20571476.490    20571480.200    -3496030.373 8  -1337769.112 8
 86  6 12  0  6 47.0800000  0  4G 6G 8G 9G11
  20495773.040    20495777.667    -3507881.694 8  -1052219.866 8
  22017387.002    22017391.089     5729421.823 8   5624730.102 8
  22215370.007    22215373.359    -7971436.561 9  -4956190.502 8
  20571024.404    20571030.300    -3498396.681 8  -1339612.994 6
 86  6 12  0  6 53.0800000  0  4G 6G 8G 9G11
  20494922.954    20494925.607    -3512353.752 8  -1055704.596 9
  22020829.717    22020834.553     5747513.804 7   5638827.752 8
  22212088.337    22212093.888    -7988672.160 9  -4969620.851 8
  20570578.953    20570584.341    -3500739.689 7  -1341438.702 7
 86  6 12  0  6 59.0800000  0  4G 6G 8G 9G11
  20494074.553    20494078.972    -3516810.071 9  -1059177.048 9
  22024274.073    22024278.444     5765619.754 8   5652936.273 9
  22208810.045    22208815.354    -8005902.945 9  -4983047.433 8
  20570138.406    20570141.961    -3503059.520 7  -1343246.360 7
 86  6 12  0  7  5.0800000  0  4G 6G 8G 9G11
  20493229.209    20493233.058    -3521250.623 9  -1062637.212 8
  22027724.662    22027727.459     5783739.544 9   5667055.594 8
  22205531.692    22205536.975    -8023128.918 8  -4996470.272 8
  20569699.937    20569703.504    -3505356.170 8  -1345035.969 8
 86  6 12  0  7 11.0800000  0  4G 6G 8G 9G11
  20492386.804    20492390.212    -3525675.414 8  -1066085.103 8
  22031174.106    22031178.073     5801873.208 8   5681185.706 8
  22202255.401    22202259.597    -8040350.053 8  -5009889.318 8
  20569266.846    20569272.212    -3507629.764 7  -1346807.589 8
 86  6 12  0  7 17.0800000  0  4G 6G 8G 9G11
  20491547.301    20491552.037    -3530084.395 8  -1069520.679 8
  22034627.982    22034631.543     5820020.673 8   5695326.588 8
  22198980.164    22198982.901    -8057566.355 9  -5023304.609 8
  20568838.726    20568843.921    -3509880.219 9  -1348561.192 7
 86  6 12  0  7 23.0800000  0  4G 6G 8G 9G11
  20490712.110    20490716.289    -3534477.556 8  -1072943.921 8
  22038083.201    22038086.877     5838181.975 8   5709478.254 8
  22195704.338    22195707.551    -8074777.683 8  -5036716.046 8
  20568415.629    20568419.724    -3512107.478 7  -1350296.723 8
 86  6 12  0  7 29.0800000  0  4G 6G 8G 9G11
  20489878.858    20489882.956    -3538854.824 8  -1076354.779 8
  22041542.419    22041546.405     5856357.132 9   5723640.704 7
  22192429.196    22192434.147    -8091984.247 8  -5050123.747 8
  20567995.562    20568000.619    -3514311.541 8  -1352014.176 7
 86  6 12  0  7 35.0800000  0  4G 6G 8G 9G11
  20489048.779    20489053.274    -3543216.178 9  -1079753.243 8
  22045003.177    22045007.876     5874546.059 8   5737813.875 8
  22189156.906    22189161.392    -8109185.708 8  -5063527.471 8
  20567580.721    20567585.448    -3516492.434 7  -1353713.563 8
 86  6 12  0  7 41.0800000  0  4G 6G 8G 9G11
  20488221.026    20488225.791    -3547561.584 8  -1083139.265 8
  22048467.216    22048470.290     5892748.749 8   5751997.791 9
  22185883.880    22185887.895    -8126382.288 8  -5076927.394 7
  20567171.429    20567174.744    -3518650.105 7  -1355394.857 8
 86  6 12  0  7 47.0800000  0  4G 6G 8G 9G11
  20487397.197    20487403.281    -3551891.051 8  -1086512.887 8
  22051933.837    22051938.443     5910965.192 8   5766192.417 8
  22182613.029    22182617.080    -8143573.816 8  -5090323.395 8
  20566764.228    20566769.970    -3520784.526 7  -1357058.044 8
 86  6 12  0  7 53.0800000  0  4G 6G 8G 9G11
  20486578.316    20486581.121    -3556204.550 8  -1089874.052 8
  22055402.958    22055406.819     5929195.325 8   5780397.709 8
  22179341.059    22179345.827    -8160760.281 9  -5103715.448 8
  20566362.190    20566367.996    -3522895.794 7  -1358703.195 8
 86  6 12  0  7 59.0800000  0  4G 6G 8G 9G11
  20485758.955    20485764.272    -3560502.144 7  -1093222.821 8
  22058874.311    22058878.654     5947439.186 8   5794613.710 8
  22176072.180    22176075.648    -8177941.811 9  -5117103.649 9
  20565965.766    20565969.566    -3524983.892 8  -1360330.277 8
 86  6 12  0  8  5.0800000  0  4G 6G 8G 9G11
  20484944.504    20484949.564    -3564783.636 8  -1096559.050 8
  22062349.231    22062352.436     5965696.752 8   5808840.378 8
  22172804.050    22172807.558    -8195118.301 8  -5130487.926 8
  20565570.900    20565577.261    -3527048.768 8  -1361939.270 8
 86  6 12  0  8 11.0800000  0  4G 6G 8G 9G11
  20484133.010    20484137.271    -3569049.124 8  -1099882.813 9
  22065825.952    22065830.010     5983967.962 9   5823077.686 8
  22169536.544    22169540.010    -8212289.652 8  -5143868.185 8
  20565185.212    20565188.716    -3529090.398 7  -1363530.151 7
 86  6 12  0  8 17.0800000  0  4G 6G 8G 9G11
  20483324.518    20483327.972    -3573298.574 8  -1103194.064 8
  22069305.776    22069309.045     6002252.804 8   5837325.606 7
  22166269.701    22166274.794    -8229455.886 9  -5157244.466 9
  20564798.373    20564804.283    -3531108.935 7  -1365103.029 8
 86  6 12  0  8 23.0800000  0  4G 6G 8G 9G11
  20482519.626    20482524.574    -3577531.998 8  -1106492.841 8
  22072787.762    22072791.647     6020551.235 8   5851584.118 8
  22163004.056    22163007.533    -8246616.993 9  -5170616.755 8
  20564420.072    20564425.693    -3533104.257 7  -1366657.826 8
 86  6 12  0  8 29.0800000  0  4G 6G 8G 9G11
  20481716.559    20481720.134    -3581749.354 8  -1109779.099 8
  22076271.418    22076274.889     6038863.207 9   5865853.194 8
  22159739.980    22159743.036    -8263773.004 9  -5183985.079 8
  20564044.198    20564049.460    -3535076.450 8  -1368194.591 8
 86  6 12  0  8 35.0800000  0  4G 6G 8G 9G11
  20480917.526    20480920.799    -3585950.667 8  -1113052.850 8
  22079758.564    22079763.205     6057188.718 8   5880132.790 8
  22156475.971    22156479.022    -8280923.877 8  -5197349.388 8
  20563674.431    20563678.695    -3537025.479 8  -1369713.310 7
 86  6 12  0  8 41.0800000  0  4G 6G 8G 9G11
  20480119.519    20480125.002    -3590135.885 9  -1116314.061 8
  22083249.381    22083252.452     6075527.671 8   5894422.885 8
  22153213.302    22153216.123    -8298069.623 8  -5210709.705 8
  20563307.657    20563312.361    -3538951.405 8  -1371214.049 7
 86  6 12  0  8 47.0800000  0  4G 6G 8G 9G11
  20479327.620    20479331.827    -3594304.988 8  -1119562.712 7
  22086740.210    22086744.920     6093880.104 8   5908723.480 7
  22149950.606    22149955.703    -8315210.254 8  -5224066.032 7
  20562946.252    20562949.647    -3540854.196 7  -1372696.733 7
 86  6 12  0  8 53.0800000  0  4G 6G 8G 9G11
  20478537.446    20478540.940    -3598457.915 8  -1122798.770 9
  22090236.366    22090240.830     6112246.042 8   5923034.595 8
  22146692.088    22146693.439    -8332345.563 7  -5237418.213 8
  20562587.266    20562592.211    -3542733.842 8  -1374161.401 8
 86  6 12  0  8 59.0800000  0  4G 6G 8G 9G11
  20477749.467    20477753.408    -3602594.765 7  -1126022.274 8
  22093734.251    22093736.792     6130625.340 8   5937356.116 8
  22143431.482    22143434.275    -8349475.713 8  -5250766.380 8
  20562234.955    20562239.835    -3544590.426 8  -1375608.089 8
 86  6 12  0  9  5.0800000  0  4G 6G 8G 9G11
  20476966.280    20476969.665    -3606715.531 8  -1129233.267 8
  22097232.877    22097238.267     6149017.984 8   5951688.050 8
  22140170.901    22140175.731    -8366600.656 8  -5264110.491 8
  20561886.124    20561890.083    -3546423.888 8  -1377036.754 8
 86  6 12  0  9 11.0800000  0  4G 6G 8G 9G11
  20476184.064    20476187.960    -3610820.163 8  -1132431.679 8
  22100737.064    22100741.152     6167423.949 8   5966030.352 8
  22136913.216    22136918.111    -8383720.414 9  -5277450.552 7
  20561542.276    20561545.546    -3548234.297 8  -1378447.471 8
 86  6 12  0  9 17.0800000  0  4G 6G 8G 9G11
  20475406.961    20475411.600    -3614908.658 9  -1135617.527 9
  22104241.316    22104245.423     6185843.172 8   5980382.984 8
  22133657.557    22133661.240    -8400835.036 8  -5290786.617 8
  20561200.515    20561206.348    -3550021.642 8  -1379840.204 8
 86  6 12  0  9 23.0800000  0  4G 6G 8G 9G11
  20474632.170    20474636.471    -3618980.984 8  -1138790.773 8
  22107749.542    22107753.400     6204275.689 8   5994745.983 8
  22130400.558    22130406.682    -8417944.411 8  -5304118.595 9
  20560865.395    20560870.298    -3551785.869 8  -1381214.933 8
 86  6 12  0  9 29.0800000  0  4G 6G 8G 9G11
  20473860.667    20473863.563    -3623037.021 8  -1141951.313 9
  22111258.468    22111263.825     6222721.549 9   6009119.378 9
  22127146.872    22127150.357    -8435048.374 8  -5317446.358 9
  20560533.568    20560539.544    -3553526.947 8  -1382571.602 7
 86  6 12  0  9 35.0800000  0  4G 6G 8G 9G11
  20473091.674    20473095.005    -3627076.769 8  -1145099.173 9
  22114772.141    22114776.081     6241180.735 9   6023503.162 8
  22123892.819    22123896.807    -8452146.934 8  -5330769.892 8
  20560207.620    20560211.237    -3555244.850 8  -1383910.238 8
 86  6 12  0  9 41.0800000  0  4G 6G 8G 9G11
  20472325.442    20472329.898    -3631100.209 9  -1148234.315 8
  22118286.227    22118290.233     6259653.173 9   6037897.258 9
  22120640.483    22120644.140    -8469240.099 8  -5344089.240 9
  20559884.562    20559889.304    -3556939.634 7  -1385230.845 8
 86  6 12  0  9 47.0800000  0  4G 6G 8G 9G11
  20471563.687    20471567.086    -3635107.418 9  -1151356.823 8
  22121804.975    22121808.630     6278138.795 8   6052301.647 9
  22117387.545    22117393.336    -8486327.931 8  -5357404.434 7
  20559567.218    20559570.924    -3558611.339 8  -1386533.470 8
 86  6 12  0  9 53.0800000  0  4G 6G 8G 9G11
  20470804.790    20470807.491    -3639098.382 8  -1154466.657 8
  22125325.373    22125328.894     6296637.525 9   6066716.237 9
  22114136.730    22114141.840    -8503410.472 8  -5370715.504 8
  20559252.427    20559257.110    -3560260.032 7  -1387818.155 7
 86  6 12  0  9 59.0800000  0  4G 6G 8G 9G11
  20470047.914    20470051.439    -3643073.158 9  -1157563.896 9
  22128846.243    22128852.186     6315149.347 9   6081141.019 8
  22110886.992    22110891.995    -8520487.667 6  -5384022.392 8
  20558943.196    20558948.090    -3561885.718 8  -1389084.935 8
 86  6 12  0 10  5.0800000  0  4G 6G 8G 9G11
  20469295.104    20469298.238    -3647031.643 8  -1160648.429 9
  22132373.332    22132377.014     6333674.279 9   6095576.034 8
  22107637.866    22107643.164    -8537559.442 8  -5397325.064 8
  20558638.028    20558642.712    -3563488.359 7  -1390333.745 8
 86  6 12  0 10 11.0800000  0  4G 6G 8G 9G11
  20468544.659    20468547.526    -3650973.728 9  -1163720.180 8
  22135900.808    22135905.148     6352212.326 8   6110021.269 8
  22104390.986    22104395.497    -8554625.703 7  -5410623.448 8
  20558338.638    20558342.303    -3565067.918 7  -1391564.545 8
 86  6 12  0 10 17.0800000  0  4G 6G 8G 9G11
  20467797.708    20467800.478    -3654899.456 9  -1166779.186 9
  22139430.320    22139434.201     6370763.441 8   6124476.670 9
  22101144.151    22101150.139    -8571686.549 8  -5423917.607 8
  20558040.765    20558045.702    -3566624.359 7  -1392777.373 9
 86  6 12  0 10 23.0800000  0  4G 6G 8G 9G11
  20467053.621    20467056.812    -3658808.740 9  -1169825.377 8
  22142963.609    22142967.450     6389327.619 9   6138942.264 8
  22097899.345    22097903.697    -8588741.885 9  -5437207.484 8
  20557749.427    20557754.596    -3568157.749 8  -1393972.208 8
 86  6 12  0 10 29.0800000  0  4G 6G 8G 9G11
  20466312.528    20466316.260    -3662701.611 8  -1172858.780 8
  22146498.476    22146503.006     6407904.906 8   6153418.073 9
  22094654.478    22094658.846    -8605791.622 8  -5450492.999 9
  20557461.892    20557467.971    -3569667.970 7  -1395149.013 7
 86  6 12  0 10 35.0800000  0  4G 6G 8G 9G11
  20465574.700    20465578.982    -3666577.998 9  -1175879.350 8
  22150037.110    22150040.437     6426495.251 8   6167904.054 9
  22091410.064    22091415.463    -8622835.723 9  -5463774.103 8
  20557179.611    20557184.047    -3571155.090 7  -1396307.799 8
 86  6 12  0 10 41.0800000  0  4G 6G 8G 9G11
  20464840.212    20464843.351    -3670437.966 9  -1178887.104 9
  22153575.430    22153582.297     6445098.574 8   6182400.141 8
  22088168.292    22088173.093    -8639874.312 8  -5477050.927 9
  20556898.741    20556905.471    -3572619.091 8  -1397448.586 8
 86  6 12  0 10 47.0800000  0  4G 6G 8G 9G11
  20464110.043    20464112.169    -3674281.465 9  -1181882.050 8
  22157117.540    22157122.282     6463714.829 8   6196906.311 8
  22084927.483    22084932.158    -8656907.428 8  -5490323.471 7
  20556625.985    20556630.978    -3574059.999 7  -1398571.380 8
 86  6 12  0 10 53.0800000  0  4G 6G 8G 9G11
  20463379.200    20463384.793    -3678108.542 9  -1184864.182 8
  22160662.932    22160667.879     6482343.973 8   6211422.528 8
  22081685.913    22081692.641    -8673934.906 9  -5503591.640 8
  20556356.291    20556361.167    -3575477.871 7  -1399676.213 7
 86  6 12  0 10 59.0800000  0  4G 6G 8G 9G11
  20462655.001    20462658.813    -3681919.167 8  -1187833.497 7
  22164211.325    22164216.673     6500985.999 9   6225948.775 8
  22078448.395    22078452.240    -8690956.808 8  -5516855.449 8
  20556090.599    20556097.112    -3576872.777 7  -1400763.156 7
 86  6 12  0 11  5.0800000  0  4G 6G 8G 9G11
  20461933.199    20461936.307    -3685713.299 8  -1190789.976 8
  22167761.653    22167765.504     6519640.843 8   6240484.996 9
  22075209.745    22075215.070    -8707973.168 8  -5530114.959 9
  20555829.580    20555834.645    -3578244.683 7  -1401832.175 8
 86  6 12  0 11 11.0800000  0  4G 6G 8G 9G11
  20461214.638    20461217.952    -3689491.031 9  -1193733.650 9
  22171312.075    22171317.771     6538308.399 8   6255031.146 8
  22071973.435    22071977.725    -8724984.002 8  -5543370.149 9
  20555572.725    20555578.043    -3579593.673 7  -1402883.338 8
 86  6 12  0 11 17.0800000  0  4G 6G 8G 9G11
  20460497.441    20460501.988    -3693252.311 8  -1196664.522 7
  22174868.357    22174873.972     6556988.696 8   6269587.217 8
  22068737.265    22068742.477    -8741989.154 9  -5556620.912 8
  20555319.401    20555325.686    -3580919.654 7  -1403916.541 7
 86  6 12  0 11 23.0800000  0  4G 6G 8G 9G11
  20459786.045    20459789.339    -3696997.162 9  -1199582.583 9
  22178425.743    22178429.127     6575681.671 8   6284153.172 8
  22065502.246    22065506.910    -8758988.797 8  -5569867.378 8
  20555073.549    20555077.080    -3582222.693 7  -1404931.912 8
 86  6 12  0 11 29.0800000  0  4G 6G 8G 9G11
  20459075.654    20459079.729    -3700725.496 9  -1202487.785 8
  22181984.655    22181989.741     6594387.373 7   6298729.037 8
  22062268.593    22062272.849    -8775982.782 7  -5583109.438 8
  20554828.387    20554833.705    -3583502.852 8  -1405929.428 8
 86  6 12  0 11 35.0800000  0  4G 6G 8G 9G11
  20458369.738    20458373.164    -3704437.236 8  -1205380.055 7
  22185546.302    22185552.588     6613105.813 8   6313314.842 7
  22059033.748    22059040.815    -8792970.986 7  -5596346.994 8
  20554588.681    20554595.499    -3584759.998 7  -1406909.039 8
 86  6 12  0 11 41.0800000  0  4G 6G 8G 9G11
  20457667.589    20457669.844    -3708132.351 8  -1208259.364 9
  22189110.166    22189116.680     6631837.001 8   6327910.556 9
  22055804.699    22055808.471    -8809953.448 9  -5609580.069 7
  20554356.357    20554360.278    -3585994.058 7  -1407870.646 7
 86  6 12  0 11 47.0800000  0  4G 6G 8G 9G11
  20456966.776    20456971.533    -3711810.805 7  -1211125.692 8
  22192677.390    22192681.798     6650580.875 8   6342516.163 8
  22052572.941    22052578.844    -8826930.109 7  -5622808.638 9
  20554124.565    20554129.212    -3587205.067 6  -1408814.273 8
 86  6 12  0 11 53.0800000  0  4G 6G 8G 9G11
  20456269.524    20456274.584    -3715472.588 9  -1213979.017 7
  22196246.450    22196251.457     6669337.480 8   6357131.709 8
  22049343.986    22049347.970    -8843900.895 7  -5636032.622 8
  20553898.657    20553903.576    -3588392.977 7  -1409739.917 8
 86  6 12  0 11 59.0800000  0  4G 6G 8G 9G11
  20455576.567    20455579.638    -3719117.641 8  -1216819.324 8
  22199819.086    22199823.208     6688106.793 7   6371757.136 8
  22046117.149    22046120.301    -8860865.855 7  -5649252.063 8
  20553676.423    20553681.470    -3589557.814 7  -1410647.590 7
 86  6 12  0 12  5.0800000  0  4G 6G 8G 9G11
  20454886.704    20454889.740    -3722745.972 9  -1219646.599 8
  22203392.435    22203397.697     6706888.766 8   6386392.429 9
  22042888.650    22042891.633    -8877824.907 7  -5662466.908 9
  20553458.983    20553464.529    -3590699.631 8  -1411537.307 8
 86  6 12  0 12 11.0800000  0  4G 6G 8G 9G11
  20454198.849    20454202.510    -3726357.598 8  -1222460.853 7
  22206968.839    22206973.603     6725683.336 7   6401037.556 8
  22039662.703    22039666.825    -8894778.104 8  -5675677.192 8
  20553246.101    20553251.032    -3591818.405 7  -1412409.085 7
 86  6 12  0 12 17.0800000  0  4G 6G 8G 9G11
  20453514.157    20453517.013    -3729952.532 8  -1225262.100 8
  22210547.944    22210552.878     6744490.466 7   6415692.447 9
  22036438.382    22036441.278    -8911725.497 8  -5688882.940 8
  20553037.448    20553043.492    -3592914.211 8  -1413262.956 8
 86  6 12  0 12 23.0800000  0  4G 6G 8G 9G11
  20452832.862    20452837.229    -3733530.802 8  -1228050.359 8
  22214129.165    22214134.963     6763310.061 8   6430357.073 8
  22033214.038    22033217.959    -8928667.017 8  -5702084.122 8
  20552835.063    20552838.922    -3593987.087 6  -1414098.961 7
 86  6 12  0 12 29.0800000  0  4G 6G 8G 9G11
  20452154.695    20452159.386    -3737092.356 8  -1230825.610 8
  22217713.233    22217717.592     6782142.111 8   6445031.396 8
  22029989.887    22029995.212    -8945602.647 8  -5715280.718 9
  20552633.274    20552638.570    -3595037.088 7  -1414917.147 8
 86  6 12  0 12 35.0800000  0  4G 6G 8G 9G11
  20451480.369    20451484.907    -3740637.226 8  -1233587.840 8
  22221298.201    22221303.395     6800986.581 8   6459715.392 8
  22026769.231    22026773.343    -8962532.413 8  -5728472.734 8
  20552439.664    20552444.111    -3596064.135 8  -1415717.437 8
 86  6 12  0 12 41.0800000  0  4G 6G 8G 9G11
  20450810.263    20450812.845    -3744165.352 8  -1236337.019 8
  22224886.848    22224892.132     6819843.426 8   6474409.035 8
  22023549.237    22023553.003    -8979456.264 7  -5741660.147 7
  20552248.655    20552252.932    -3597068.261 8  -1416499.882 7
 86  6 12  0 12 47.0800000  0  4G 6G 8G 9G11
  20450141.592    20450144.446    -3747676.747 8  -1239073.184 7
  22228477.170    22228483.065     6838712.692 8   6489112.356 8
  22020328.579    22020334.024    -8996374.161 8  -5754842.920 8
  20552062.120    20552066.489    -3598049.431 7  -1417264.426 7
 86  6 12  0 12 53.0800000  0  4G 6G 8G 9G11
  20449475.691    20449480.218    -3751171.309 8  -1241796.208 8
  22232071.042    22232076.757     6857594.405 8   6503825.379 8
  22017110.728    22017115.610    -9013286.007 8  -5768020.982 7
  20551877.856    20551883.730    -3599007.655 8  -1418011.090 7
 86  6 12  0 12 59.0800000  0  4G 6G 8G 9G11
  20448814.789    20448817.806    -3754649.008 8  -1244506.112 8
  22235665.817    22235672.238     6876488.521 7   6518548.062 8
  22013894.682    22013898.346    -9030191.842 9  -5781194.342 7
  20551700.233    20551705.416    -3599942.886 8  -1418739.838 8
 86  6 12  0 13  5.0800000  0  4G 6G 8G 9G11
  20448156.727    20448159.903    -3758109.903 8  -1247202.921 8
  22239263.084    22239268.975     6895394.981 9   6533280.365 8
  22010677.831    22010682.257    -9047091.689 8  -5794363.062 8
  20551526.690    20551532.066    -3600855.141 8  -1419450.686 7
 86  6 12  0 13 11.0800000  0  4G 6G 8G 9G11
  20447501.243    20447504.314    -3761553.919 8  -1249886.551 7
  22242863.521    22242869.982     6914313.731 7   6548022.240 9
  22007462.927    22007467.322    -9063985.475 8  -5807527.044 8
  20551358.643    20551363.140    -3601744.479 8  -1420143.676 7
 86  6 12  0 13 17.0800000  0  4G 6G 8G 9G11
  20446848.669    20446851.860    -3764981.101 8  -1252557.090 8
  22246466.405    22246472.072     6933244.708 7   6562773.653 8
  22004249.429    22004252.664    -9080873.288 7  -5820686.379 8
  20551193.151    20551198.783    -3602610.983 8  -1420818.886 8
 86  6 12  0 13 23.0800000  0  4G 6G 8G 9G11
  20446200.002    20446203.208    -3768391.504 7  -1255214.547 8
  22250070.855    22250077.109     6952187.908 8   6577534.580 9
  22001037.922    22001041.235    -9097754.973 8  -5833840.941 8
  20551032.316    20551038.253    -3603454.618 8  -1421476.257 7
 86  6 12  0 13 29.0800000  0  4G 6G 8G 9G11
  20445553.845    20445557.639    -3771785.118 8  -1257858.928 9
  22253678.425    22253683.272     6971143.177 7   6592304.914 8
  21997825.970    21997830.114    -9114630.842 7  -5846990.955 8
  20550877.630    20550881.072    -3604275.479 7  -1422115.878 8
 86  6 12  0 13 35.0800000  0  4G 6G 8G 9G11
  20444911.213    20444915.214    -3775161.954 8  -1260490.235 8
  22257286.681    22257292.826     6990110.529 8   6607084.664 8
  21994616.161    21994620.056    -9131500.598 8  -5860136.221 8
  20550724.457    20550728.959    -3605073.581 8  -1422737.790 7
 86  6 12  0 13 41.0800000  0  4G 6G 8G 9G11
  20444272.594    20444274.494    -3778521.961 9  -1263108.422 8
  22260898.697    22260904.864     7009089.946 8   6621873.810 8
  21991406.010    21991411.306    -9148364.293 9  -5873276.765 7
  20550578.109    20550580.947    -3605848.884 7  -1423341.931 7
 86  6 12  0 13 47.0800000  0  4G 6G 8G 9G11
  20443635.551    20443639.378    -3781865.147 8  -1265713.503 7
  22264513.288    22264518.331     7028081.458 7   6636672.381 8
  21988199.887    21988202.302    -9165221.949 9  -5886412.591 8
  20550434.310    20550438.230    -3606601.373 7  -1423928.278 8
 86  6 12  0 13 53.0800000  0  4G 6G 8G 9G11
  20443003.065    20443006.671    -3785191.368 8  -1268305.365 8
  22268129.844    22268134.945     7047085.037 8   6651480.361 7
  21984992.599    21984996.168    -9182073.496 9  -5899543.672 7
  20550294.657    20550298.935    -3607330.945 6  -1424496.771 7
 86  6 12  0 13 59.0800000  0  4G 6G 8G 9G11
  20442373.678    20442375.773    -3788500.652 8  -1270884.014 8
  22271748.121    22271754.416     7066100.673 8   6666297.742 8
  21981787.565    21981791.749    -9198918.842 8  -5912669.900 8
  20550160.342    20550165.177    -3608037.686 8  -1425047.479 7
 86  6 12  0 14  5.0800000  0  4G 6G 8G 9G11
  20441746.366    20441749.780    -3791792.957 8  -1273449.459 9
  22275369.268    22275374.797     7085128.377 8   6681124.520 8
  21978582.113    21978585.776    -9215758.029 8  -5925791.350 8
  20550030.851    20550035.294    -3608721.586 7  -1425580.381 7
 86  6 12  0 14 11.0800000  0  4G 6G 8G 9G11
  20441124.128    20441128.160    -3795068.250 8  -1276001.639 8
  22278993.138    22278997.779     7104168.177 8   6695960.712 9
  21975378.568    21975382.606    -9232590.946 9  -5938907.907 8
  20549903.674    20549909.659    -3609382.585 7  -1426095.443 7
 86  6 12  0 14 17.0800000  0  4G 6G 8G 9G11
  20440502.837    20440507.393    -3798326.414 8  -1278540.464 8
  22282616.916    22282623.049     7123220.072 7   6710806.335 9
  21972177.114    21972180.663    -9249417.515 7  -5952019.509 8
  20549782.940    20549787.516    -3610020.694 8  -1426592.687 7
 86  6 12  0 14 23.0800000  0  4G 6G 8G 9G11
  20439886.947    20439890.959    -3801567.539 8  -1281066.013 8
  22286245.552    22286250.361     7142283.969 8   6725661.315 8
  21968976.802    21968981.076    -9266237.806 8  -5965126.218 7
  20549665.638    20549671.297    -3610635.885 7  -1427072.062 8
 86  6 12  0 14 29.0800000  0  4G 6G 8G 9G11
  20439273.623    20439275.744    -3804791.495 8  -1283578.195 8
  22289875.552    22289881.142     7161359.876 7   6740525.671 8
  21965777.213    21965780.175    -9283051.708 8  -5978227.977 6
  20549552.935    20549557.845    -3611228.172 7  -1427533.557 7
 86  6 12  0 14 35.0800000  0  4G 6G 8G 9G11
  20438663.287    20438666.321    -3807998.330 8  -1286077.027 8
  22293509.289    22293512.476     7180447.794 8   6755399.350 8
  21962577.763    21962582.563    -9299859.173 9  -5991324.701 8
  20549444.559    20549448.880    -3611797.552 7  -1427977.238 7
 86  6 12  0 14 41.0800000  0  4G 6G 8G 9G11
  20438056.438    20438060.641    -3811188.047 9  -1288562.516 8
  22297142.460    22297148.060     7199547.700 7   6770282.384 9
  21959380.747    21959385.141    -9316660.331 8  -6004416.499 8
  20549340.500    20549346.003    -3612344.068 7  -1428403.096 6
 86  6 12  0 14 47.0800000  0  4G 6G 8G 9G11
  20437453.353    20437456.988    -3814360.646 7  -1291034.665 8
  22300778.546    22300784.681     7218659.508 6   6785174.707 8
  21956184.072    21956190.283    -9333455.039 9  -6017503.287 7
  20549241.182    20549245.382    -3612867.718 8  -1428811.137 7
 86  6 12  0 14 53.0800000  0  4G 6G 8G 9G11
  20436852.419    20436856.494    -3817516.083 9  -1293493.457 9
  22304418.032    22304423.677     7237783.166 8   6800076.246 9
  21952990.946    21952995.244    -9350243.312 8  -6030585.052 8
  20549145.372    20549151.254    -3613368.472 7  -1429201.340 8
 86  6 12  0 14 59.0800000  0  4G 6G 8G 9G11
  20436255.468    20436258.656    -3820654.375 9  -1295938.876 7
  22308060.269    22308064.993     7256918.654 8   6814987.002 9
  21949798.509    21949800.987    -9367025.255 8  -6043661.889 7
  20549054.051    20549060.432    -3613846.392 7  -1429573.727 7
 86  6 12  0 15  5.0800000  0  4G 6G 8G 9G11
  20435660.910    20435664.830    -3823775.520 9  -1298370.943 7
  22311703.748    22311708.274     7276065.939 7   6829906.957 8
  21946604.328    21946608.567    -9383800.788 8  -6056733.735 8
  20548969.172    20548973.943    -3614301.565 7  -1429928.412 7
 86  6 12  0 15 11.0800000  0  4G 6G 8G 9G11
  20435070.187    20435073.569    -3826879.599 8  -1300789.709 8
  22315349.235    22315354.204     7295224.950 8   6844836.060 8
  21943414.090    21943416.912    -9400570.020 9  -6069800.668 8
  20548885.022    20548891.676    -3614733.971 8  -1430265.351 7
 86  6 12  0 15 17.0800000  0  4G 6G 8G 9G11
  20434483.278    20434487.138    -3829966.529 8  -1303195.107 8
  22318997.841    22319002.892     7314395.632 7   6859774.245 8
  21940223.426    21940228.317    -9417332.717 8  -6082862.515 7
  20548809.970    20548814.190    -3615143.628 7  -1430584.561 7
 86  6 12  0 15 23.0800000  0  4G 6G 8G 9G11
  20433898.592    20433901.892    -3833036.340 8  -1305587.172 7
  22322646.105    22322652.412     7333577.929 8   6874721.478 9
  21937034.879    21937038.995    -9434089.035 9  -6095919.384 7
  20548735.074    20548739.647    -3615530.598 8  -1430886.086 7
 86  6 12  0 15 29.0800000  0  4G 6G 8G 9G11
  20433316.801    20433321.477    -3836088.995 8  -1307965.864 8
  22326299.945    22326304.951     7352771.874 8   6889677.792 7
  21933848.048    21933851.903    -9450838.990 8  -6108971.294 7
  20548665.758    20548669.553    -3615894.877 8  -1431169.957 8
 86  6 12  0 15 35.0800000  0  4G 6G 8G 9G11
  20432739.760    20432742.791    -3839124.454 7  -1310331.158 8
  22329955.018    22329959.854     7371977.463 8   6904643.186 8
  21930662.135    21930665.506    -9467582.476 8  -6122018.156 7
  20548601.036    20548604.828    -3616236.416 7  -1431436.073 7
 86  6 12  0 15 41.0800000  0  4G 6G 8G 9G11
  20432165.652    20432168.660    -3842142.642 8  -1312682.997 8
  22333611.427    22333616.534     7391194.730 8   6919617.674 8
  21927476.483    21927479.677    -9484319.401 9  -6135059.922 7
  20548539.945    20548543.829    -3616555.130 8  -1431684.446 8
 86  6 12  0 15 47.0800000  0  4G 6G 8G 9G11
  20431595.142    20431598.370    -3845143.631 7  -1315021.428 8
  22337272.571    22337276.050     7410423.571 8   6934601.181 8
  21924293.320    21924297.244    -9501049.742 8  -6148096.546 7
  20548482.672    20548487.928    -3616851.160 7  -1431915.099 7
 86  6 12  0 15 53.0800000  0  4G 6G 8G 9G11
  20431027.098    20431030.192    -3848127.346 9  -1317346.396 8
  22340932.608    22340937.033     7429663.962 7   6949593.687 9
  21921110.608    21921114.292    -9517773.639 9  -6161128.150 8
  20548431.672    20548436.635    -3617124.422 8  -1432128.048 7
 86  6 12  0 15 59.0800000  0  4G 6G 8G 9G11
  20430462.272    20430465.357    -3851093.750 8  -1319657.881 8
  22344594.784    22344600.894     7448915.941 8   6964595.225 8
  21917929.046    21917933.913    -9534490.790 8  -6174154.498 8
  20548383.490    20548387.868    -3617374.915 8  -1432323.228 7
 86  6 12  0 16  5.0800000  0  4G 6G 8G 9G11
  20429900.713    20429903.085    -3854042.795 7  -1321955.849 9
  22348261.938    22348266.311     7468179.492 8   6979605.774 9
  21914749.454    21914753.630    -9551201.331 7  -6187175.702 7
  20548341.985    20548344.892    -3617602.639 8  -1432500.675 8
 86  6 12  0 16 11.0800000  0  4G 6G 8G 9G11
  20429342.568    20429346.944    -3856974.523 8  -1324240.311 9
  22351929.944    22351934.059     7487454.586 8   6994625.320 9
  21911571.040    21911574.322    -9567905.275 8  -6200191.745 8
  20548301.947    20548305.881    -3617807.666 8  -1432660.428 7
 86  6 12  0 16 17.0800000  0  4G 6G 8G 9G11
  20428789.138    20428791.782    -3859888.899 8  -1326511.247 9
  22355600.112    22355604.065     7506741.172 8   7009653.821 9
  21908392.340    21908397.024    -9584602.561 8  -6213202.623 9
  20548266.633    20548270.783    -3617989.909 8  -1432802.444 7
 86  6 12  0 16 23.0800000  0  4G 6G 8G 9G11
  20428236.917    20428240.054    -3862785.947 8  -1328768.696 8
  22359272.888    22359276.558     7526039.142 8   7024691.199 8
  21905218.162    21905221.712    -9601293.146 8  -6226208.266 8
  20548236.088    20548240.582    -3618149.467 7  -1432926.767 7
 86  6 12  0 16 29.0800000  0  4G 6G 8G 9G11
  20427688.738    20427693.042    -3865665.688 8  -1331012.654 8
  22362947.163    22362951.635     7545348.493 9   7039737.438 9
  21902043.235    21902046.290    -9617977.139 9  -6239208.782 8
  20548211.039    20548215.687    -3618286.415 7  -1433033.483 7
 86  6 12  0 16 35.0800000  0  4G 6G 8G 9G11
  20427145.091    20427147.392    -3868528.063 8  -1333243.083 9
  22366622.133    22366627.112     7564669.216 8   7054792.534 9
  21898869.342    21898872.340    -9634654.419 8  -6252204.073 8
  20548188.765    20548192.944    -3618400.722 8  -1433122.553 7
 86  6 12  0 16 41.0800000  0  4G 6G 8G 9G11
  20426602.527    20426606.785    -3871373.016 8  -1335459.933 7
  22370301.646    22370306.869     7584001.361 9   7069856.547 9
  21895697.308    21895700.677    -9651324.936 9  -6265194.072 7
  20548172.035    20548175.535    -3618492.314 7  -1433193.925 8
 86  6 12  0 16 47.0800000  0  4G 6G 8G 9G11
  20426063.434    20426068.588    -3874200.543 8  -1337663.196 8
  22373983.312    22373987.951     7603344.877 8   7084929.407 9
  21892526.592    21892529.070    -9667988.704 9  -6278178.816 7
  20548157.170    20548162.582    -3618561.189 8  -1433247.599 8
 86  6 12  0 16 53.0800000  0  4G 6G 8G 9G11
  20425529.461    20425532.926    -3877010.660 7  -1339852.890 8
  22377666.327    22377670.603     7622699.710 8   7100011.093 8
  21889356.652    21889359.513    -9684645.616 8  -6291158.237 7
  20548148.839    20548153.895    -3618607.394 7  -1433283.591 7
 86  6 12  0 16 59.0800000  0  4G 6G 8G 9G11
  20424998.495    20425002.422    -3879803.238 8  -1342028.930 7
  22381350.196    22381355.735     7642065.868 8   7115101.592 8
  21886188.393    21886191.514    -9701295.766 8  -6304132.382 8
  20548145.141    20548148.909    -3618630.884 7  -1433301.898 8
 86  6 12  0 17  5.0800000  0  4G 6G 8G 9G11
  20424470.177    20424474.990    -3882578.367 7  -1344191.369 8
  22385039.552    22385042.470     7661443.352 8   7130200.930 8
  21883019.908    21883024.879    -9717939.051 8  -6317101.172 9
  20548144.608    20548149.423    -3618631.646 7  -1433302.496 8
 86  6 12  0 17 11.0800000  0  4G 6G 8G 9G11
  20423945.948    20423949.425    -3885335.913 8  -1346340.120 8
  22388728.713    22388732.509     7680832.125 9   7145309.054 8
  21879854.967    21879858.309    -9734575.357 8  -6330064.535 8
  20548147.665    20548153.531    -3618609.691 7  -1433285.368 8
 86  6 12  0 17 17.0800000  0  4G 6G 8G 9G11
  20423424.361    20423427.929    -3888075.924 8  -1348475.188 7
  22392420.497    22392424.215     7700232.148 8   7160425.949 9
  21876691.010    21876695.008    -9751204.851 8  -6343022.560 8
  20548156.240    20548161.781    -3618565.027 8  -1433250.581 6
 86  6 12  0 17 23.0800000  0  4G 6G 8G 9G11
  20422907.029    20422909.536    -3890798.490 9  -1350596.669 7
  22396114.110    22396118.906     7719643.346 9   7175551.555 8
  21873527.531    21873530.814    -9767827.489 9  -6355975.271 7
  20548170.519    20548174.332    -3618497.742 8  -1433198.144 7
 86  6 12  0 17 29.0800000  0  4G 6G 8G 9G11
  20422392.849    20422395.281    -3893503.498 8  -1352704.465 7
  22399810.193    22399814.590     7739065.697 8   7190685.848 8
  21870365.453    21870370.414    -9784443.249 8  -6368922.628 8
  20548187.167    20548192.487    -3618407.788 7  -1433128.054 8
 86  6 12  0 17 35.0800000  0  4G 6G 8G 9G11
  20421880.582    20421882.640    -3896190.989 8  -1354798.619 8
  22403507.790    22403513.144     7758499.150 9   7205828.792 9
  21867204.817    21867209.131    -9801052.062 9  -6381864.540 8
  20548208.287    20548211.270    -3618295.300 7  -1433040.394 7
 86  6 12  0 17 41.0800000  0  4G 6G 8G 9G11
  20421372.826    20421374.847    -3898860.945 8  -1356879.108 7
  22407208.567    22407212.580     7777943.663 8   7220980.350 8
  21864044.629    21864048.981    -9817654.021 8  -6394801.129 8
  20548233.211    20548238.966    -3618160.207 8  -1432935.120 7
 86  6 12  0 17 47.0800000  0  4G 6G 8G 9G11
  20420866.610    20420870.717    -3901513.358 8  -1358945.923 8
  22410910.145    22410914.304     7797399.206 8   7236140.510 8
  21860887.421    21860890.976    -9834249.047 9  -6407732.331 7
  20548262.701    20548269.737    -3618002.508 7  -1432812.246 8
 86  6 12  0 17 53.0800000  0  4G 6G 8G 9G11
  20420365.705    20420369.071    -3904148.272 8  -1360999.097 8
  22414614.267    22414617.299     7816865.792 8   7251309.272 8
  21857731.757    21857734.939    -9850837.168 8  -6420658.130 8
  20548298.743    20548303.525    -3617822.303 7  -1432671.814 8
 86  6 12  0 17 59.0800000  0  4G 6G 8G 9G11
  20419868.787    20419870.710    -3906765.608 9  -1363038.568 7
  22418321.022    22418324.714     7836343.395 8   7266486.614 9
  21854575.750    21854580.187    -9867418.322 9  -6433578.504 9
  20548336.868    20548341.495    -3617619.469 8  -1432513.764 8
 86  6 12  0 18  5.0800000  0  4G 6G 8G 9G11
  20419373.715    20419376.247    -3909365.375 8  -1365064.372 8
  22422029.955    22422033.680     7855831.936 8   7281672.486 9
  21851421.805    21851425.143    -9883992.404 9  -6446493.372 7
  20548379.310    20548384.950    -3617394.126 8  -1432338.179 8
 86  6 12  0 18 11.0800000  0  4G 6G 8G 9G11
  20418881.856    20418885.276    -3911947.556 8  -1367076.457 8
  22425739.267    22425743.746     7875331.431 8   7296866.879 8
  21848268.288    21848272.970    -9900559.539 8  -6459402.828 8
  20548426.933    20548431.999    -3617146.236 7  -1432145.004 7
 86  6 12  0 18 17.0800000  0  4G 6G 8G 9G11
  20418394.479    20418397.837    -3914512.036 8  -1369074.757 7
  22429452.827    22429456.821     7894841.854 8   7312069.818 9
  21845116.944    21845122.525    -9917119.609 8  -6472306.776 8
  20548478.333    20548482.480    -3616875.756 7  -1431934.255 7
 86  6 12  0 18 23.0800000  0  4G 6G 8G 9G11
  20417909.149    20417912.120    -3917058.815 8  -1371059.245 7
  22433167.168    22433171.947     7914363.298 8   7327281.320 8
  21841967.493    21841971.432    -9933672.521 8  -6485205.161 7
  20548532.792    20548537.450    -3616582.648 7  -1431705.852 7
 86  6 12  0 18 29.0800000  0  4G 6G 8G 9G11
  20417428.446    20417430.546    -3919587.803 8  -1373029.899 8
  22436884.986    22436888.780     7933895.713 8   7342501.385 7
  21838820.322    21838823.536    -9950218.287 8  -6498097.941 8
  20548595.593    20548599.901    -3616266.868 6  -1431459.794 7
 86  6 12  0 18 35.0800000  0  4G 6G 8G 9G11
  20416950.029    20416953.421    -3922099.097 7  -1374986.752 7
  22440604.883    22440607.521     7953439.013 8   7357729.922 8
  21835671.991    21835676.672    -9966756.846 9  -6510985.137 8
  20548659.679    20548663.769    -3615928.542 7  -1431196.161 7
 86  6 12  0 18 41.0800000  0  4G 6G 8G 9G11
  20416476.673    20416478.035    -3924592.686 7  -1376929.800 7
  22444324.549    22444329.618     7972993.156 8   7372966.909 8
  21832524.484    21832528.993    -9983288.221 7  -6523866.731 8
  20548726.015    20548731.698    -3615567.769 6  -1430915.022 7
 86  6 12  0 18 47.0800000  0  4G 6G 8G 9G11
  20416005.239    20416008.007    -3927068.567 8  -1378859.067 7
  22448048.328    22448051.548     7992558.108 8   7388212.326 8
  21829381.437    21829385.694    -9999812.533 8  -6536742.823 8
  20548800.760    20548804.464    -3615184.456 7  -1430616.343 7
 86  6 12  0 18 53.0800000  0  4G 6G 8G 9G11
  20415537.532    20415540.256    -3929526.727 8  -1380774.510 7
  22451772.375    22451777.008     8012133.860 7   7403466.146 8
  21826237.281    21826242.497   -10016329.630 9  -6549613.274 8
  20548877.180    20548882.090    -3614778.580 7  -1430300.075 8
 86  6 12  0 18 59.0800000  0  4G 6G 8G 9G11
  20415072.898    20415075.517    -3931967.092 8  -1382676.096 7
  22455499.652    22455505.086     8031720.368 8   7418728.344 8
  21823096.901    21823101.652   -10032839.648 7  -6562478.226 8
  20548958.498    20548965.096    -3614350.161 7  -1429966.247 7
 86  6 12  0 19  5.0800000  0  4G 6G 8G 9G11
  20414611.690    20414614.062    -3934389.617 9  -1384563.776 7
  22459229.855    22459234.204     8051317.679 8   7433998.972 8
  21819956.174    21819961.233   -10049342.276 9  -6575337.411 8
  20549045.250    20549049.367    -3613899.166 8  -1429614.827 8
 86  6 12  0 19 11.0800000  0  4G 6G 8G 9G11
  20414154.053    20414155.974    -3936794.246 7  -1386437.501 7
  22462960.172    22462965.698     8070925.809 8   7449278.032 9
  21816816.480    21816822.691   -10065837.538 7  -6588190.857 8
  20549136.845    20549140.255    -3613425.547 8  -1429245.771 7
 86  6 12  0 19 17.0800000  0  4G 6G 8G 9G11
  20413700.821    20413702.509    -3939181.048 8  -1388297.354 7
  22466693.898    22466698.499     8090544.654 8   7464565.451 9
  21813679.562    21813684.288   -10082325.502 8  -6601038.611 8
  20549229.741    20549233.348    -3612929.402 7  -1428859.166 8
 86  6 12  0 19 23.0800000  0  4G 6G 8G 9G11
  20413248.900    20413251.782    -3941549.997 8  -1390143.290 8
  22470429.265    22470433.187     8110174.172 8   7479861.161 8
  21810544.502    21810547.437   -10098806.197 8  -6613880.707 8
  20549328.320    20549333.237    -3612410.770 8  -1428455.035 7
 86  6 12  0 19 29.0800000  0  4G 6G 8G 9G11
  20412801.617    20412805.592    -3943901.115 8  -1391975.344 7
  22474168.276    22474170.834     8129814.367 9   7495165.214 8
  21807409.845    21807414.345   -10115279.594 8  -6626717.133 8
  20549431.359    20549436.285    -3611869.618 8  -1428033.352 7
 86  6 12  0 19 35.0800000  0  4G 6G 8G 9G11
  20412356.650    20412360.530    -3946234.337 9  -1393793.428 8
  22477906.400    22477911.018     8149465.245 8   7510477.561 9
  21804275.590    21804280.401   -10131745.568 8  -6639547.756 8
  20549538.468    20549543.643    -3611305.987 8  -1427594.170 8
 86  6 12  0 19 41.0800000  0  4G 6G 8G 9G11
  20411917.152    20411920.048    -3948549.693 8  -1395597.606 7
  22481647.249    22481651.362     8169126.732 7   7525798.210 8
  21801142.906    21801147.833   -10148204.160 8  -6652372.635 8
  20549650.379    20549655.754    -3610719.847 7  -1427137.438 8
 86  6 12  0 19 47.0800000  0  4G 6G 8G 9G11
  20411479.722    20411483.165    -3950847.113 7  -1397387.803 8
  22485391.030    22485396.764     8188798.771 8   7541127.067 7
  21798012.968    21798017.407   -10164655.330 8  -6665191.700 8
  20549766.778    20549771.710    -3610111.183 8  -1426663.158 7
 86  6 12  0 19 53.0800000  0  4G 6G 8G 9G11
  20411046.818    20411048.978    -3953126.649 8  -1399164.071 8
  22489135.418    22489141.865     8208481.329 8   7556464.115 8
  21794884.549    21794888.674   -10181099.078 8  -6678005.024 9
  20549885.726    20549891.114    -3609480.125 8  -1426171.419 8
 86  6 12  0 19 59.0800000  0  4G 6G 8G 9G11
  20410616.014    20410617.803    -3955388.328 8  -1400926.413 7
  22492883.946    22492889.177     8228174.357 9   7571809.334 8
  21791756.040    21791760.443   -10197535.509 8  -6690812.619 8
  20550011.189    20550015.637    -3608826.613 8  -1425662.192 7
 86  6 12  0 20  5.0800000  0  4G 6G 8G 9G11
  20410188.713    20410191.017    -3957632.094 7  -1402674.807 8
  22496633.403    22496637.657     8247877.800 7   7587162.664 8
  21788629.598    21788633.912   -10213964.518 8  -6703614.444 9
  20550139.726    20550144.165    -3608150.743 8  -1425135.551 8
 86  6 12  0 20 11.0800000  0  4G 6G 8G 9G11
  20409764.468    20409766.995    -3959857.968 8  -1404409.257 7
  22500383.836    22500389.373     8267591.692 8   7602524.118 8
  21785503.533    21785509.441   -10230386.075 8  -6716410.450 8
  20550272.455    20550277.561    -3607452.502 8  -1424591.454 8
 86  6 12  0 20 17.0800000  0  4G 6G 8G 9G11
  20409344.075    20409347.135    -3962065.880 8  -1406129.721 7
  22504139.350    22504142.644     8287315.983 7   7617893.710 7
  21782381.690    21782385.976   -10246800.252 7  -6729200.725 9
  20550409.311    20550413.983    -3606731.856 7  -1424029.915 7
 86  6 12  0 20 23.0800000  0  4G 6G 8G 9G11
  20408927.732    20408930.131    -3964255.768 8  -1407836.104 8
  22507893.615    22507898.763     8307050.761 8   7633271.443 8
  21779259.371    21779263.765   -10263206.792 8  -6741985.020 8
  20550550.447    20550555.195    -3605988.784 8  -1423450.898 8
 86  6 12  0 20 29.0800000  0  4G 6G 8G 9G11
  20408515.384    20408518.730    -3966427.672 8  -1409528.516 8
  22511651.648    22511656.466     8326795.920 7   7648657.274 7
  21776138.477    21776143.216   -10279605.830 9  -6754763.483 9
  20550695.602    20550701.418    -3605223.292 7  -1422854.414 7
 86  6 12  0 20 35.0800000  0  4G 6G 8G 9G11
  20408105.950    20408108.268    -3968581.551 8  -1411206.857 8
  22515410.447    22515415.750     8346551.397 8   7664051.150 8
  21773019.526    21773023.538   -10295997.320 8  -6767536.077 8
  20550846.589    20550851.787    -3604435.412 7  -1422240.474 9
 86  6 12  0 20 41.0800000  0  4G 6G 8G 9G11
  20407698.787    20407701.418    -3970717.438 8  -1412871.180 7
  22519172.245    22519176.594     8366317.195 8   7679453.071 8
  21769901.787    21769906.339   -10312381.289 8  -6780302.818 8
  20551000.652    20551005.823    -3603625.161 9  -1421609.113 7
 86  6 12  0 20 47.0800000  0  4G 6G 8G 9G11
  20407295.045    20407297.932    -3972835.284 8  -1414521.462 8
  22522935.035    22522939.589     8386093.282 8   7694862.987 7
  21766785.300    21766789.541   -10328757.642 8  -6793063.599 8
  20551159.177    20551163.953    -3602792.540 7  -1420960.317 7
 86  6 12  0 20 53.0800000  0  4G 6G 8G 9G11
  20406897.015    20406899.084    -3974935.117 7  -1416157.691 7
  22526699.786    22526705.001     8405879.651 8   7710280.933 9
  21763671.278    21763675.244   -10345126.401 8  -6805818.481 8
  20551321.864    20551325.858    -3601937.551 7  -1420294.100 8
 86  6 12  0 20 59.0800000  0  4G 6G 8G 9G11
  20406500.069    20406502.936    -3977016.914 7  -1417779.876 8
  22530467.778    22530472.051     8425676.203 8   7725706.808 8
  21760556.742    21760561.907   -10361487.563 8  -6818567.430 9
  20551487.550    20551493.522    -3601060.265 8  -1419610.500 7
 86  6 12  0 21  5.0800000  0  4G 6G 8G 9G11
  20406106.904    20406110.945    -3979080.684 8  -1419387.993 7
  22534236.828    22534241.496     8445482.978 8   7741140.660 7
  21757444.063    21757449.799   -10377841.145 8  -6831310.476 8
  20551658.994    20551664.966    -3600160.685 8  -1418909.513 8
 86  6 12  0 21 11.0800000  0  4G 6G 8G 9G11
  20405717.525    20405722.456    -3981126.302 8  -1420981.988 7
  22538006.000    22538013.555     8465299.939 8   7756582.439 8
  21754335.012    21754338.827   -10394187.006 8  -6844047.494 9
  20551834.424    20551840.899    -3599238.758 7  -1418191.129 8
 86  6 12  0 21 17.0800000  0  4G 6G 8G 9G11
  20405332.579    20405335.009    -3983153.836 8  -1422561.888 8
  22541780.753    22541784.574     8485127.040 7   7772032.128 7
  21751223.797    21751230.279   -10410525.181 8  -6856778.541 8
  20552013.538    20552020.209    -3598294.516 8  -1417455.358 8
 86  6 12  0 21 23.0800000  0  4G 6G 8G 9G11
  20404948.486    20404953.125    -3985163.307 8  -1424127.713 7
  22545555.285    22545559.724     8504964.279 8   7787489.708 9
  21748118.447    21748122.681   -10426855.689 8  -6869503.610 8
  20552198.974    20552204.209    -3597327.960 8  -1416702.207 7
 86  6 12  0 21 29.0800000  0  4G 6G 8G 9G11
  20404570.726    20404574.080    -3987154.665 8  -1425679.412 7
  22549332.155    22549336.278     8524811.598 8   7802955.152 8
  21745012.658    21745016.658   -10443178.514 8  -6882222.694 8
  20552385.526    20552391.259    -3596339.184 7  -1415931.737 8
 86  6 12  0 21 35.0800000  0  4G 6G 8G 9G11
  20404194.858    20404198.247    -3989127.996 8  -1427217.074 7
  22553109.916    22553116.142     8544668.868 7   7818428.343 7
  21741907.079    21741912.051   -10459493.717 8  -6894935.839 8
  20552577.734    20552584.195    -3595328.259 8  -1415143.985 8
 86  6 12  0 21 41.0800000  0  4G 6G 8G 9G11
  20403822.922    20403826.310    -3991083.243 8  -1428740.635 8
  22556891.212    22556895.653     8564536.100 7   7833909.306 8
  21738802.985    21738808.499   -10475801.282 8  -6907643.031 9
  20552774.419    20552781.698    -3594295.073 7  -1414338.896 8
 86  6 12  0 21 47.0800000  0  4G 6G 8G 9G11
  20403454.312    20403458.788    -3993020.318 8  -1430250.062 7
  22560675.272    22560678.254     8584413.332 7   7849398.055 8
  21735702.326    21735706.480   -10492101.004 9  -6920344.108 8
  20552974.826    20552981.851    -3593239.640 7  -1413516.484 7
 86  6 12  0 21 53.0800000  0  4G 6G 8G 9G11
  20403089.882    20403091.917    -3994939.192 9  -1431745.289 8
  22564457.547    22564463.202     8604300.582 8   7864894.592 8
  21732602.413    21732606.955   -10508392.929 8  -6933039.118 8
  20553180.635    20553187.568    -3592161.907 7  -1412676.692 8
 86  6 12  0 21 59.0800000  0  4G 6G 8G 9G11
  20402727.013    20402731.131    -3996839.835 8  -1433226.294 8
  22568244.529    22568249.760     8624197.855 8   7880398.964 7
  21729502.867    21729508.042   -10524677.027 7  -6945728.015 8
  20553389.684    20553395.950    -3591061.881 7  -1411819.531 8
 86  6 12  0 22  5.0800000  0  4G 6G 8G 9G11
  20402369.162    20402372.886    -3998722.237 8  -1434693.108 8
  22572032.563    22572038.663     8644105.117 7   7895911.109 7
  21726406.103    21726409.813   -10540953.210 8  -6958410.759 8
  20553604.230    20553609.710    -3589939.581 7  -1410945.006 7
 86  6 12  0 22 11.0800000  0  4G 6G 8G 9G11
  20402014.255    20402018.390    -4000586.407 8  -1436145.723 8
  22575822.156    22575827.606     8664022.283 7   7911430.976 7
  21723310.421    21723314.533   -10557221.616 8  -6971087.430 8
  20553821.338    20553828.156    -3588795.051 7  -1410053.179 8
 86  6 12  0 22 17.0800000  0  4G 6G 8G 9G11
  20401662.889    20401667.408    -4002432.315 7  -1437584.075 7
  22579614.533    22579620.294     8683949.348 7   7926958.555 8
  21720216.943    21720220.044   -10573482.045 8  -6983757.892 9
  20554044.102    20554050.378    -3587628.262 7  -1409143.972 7
 86  6 12  0 22 23.0800000  0  4G 6G 8G 9G11
  20401314.970    20401319.117    -4004259.904 8  -1439008.184 7
  22583408.142    22583412.892     8703886.344 7   7942493.869 8
  21717122.325    21717126.667   -10589734.541 8  -6996422.163 8
  20554269.255    20554276.639    -3586439.221 7  -1408217.450 8
 86  6 12  0 22 29.0800000  0  4G 6G 8G 9G11
  20400971.632    20400974.815    -4006069.188 8  -1440418.009 9
  22587204.066    22587210.442     8723833.232 8   7958036.897 8
  21714031.202    21714035.079   -10605978.973 8  -7009080.165 8
  20554499.506    20554506.587    -3585227.960 7  -1407273.604 7
 86  6 12  0 22 35.0800000  0  4G 6G 8G 9G11
  20400631.314    20400633.598    -4007860.122 7  -1441813.544 8
  22591001.846    22591008.444     8743789.987 7   7973587.603 8
  21710940.701    21710946.578   -10622215.495 8  -7021731.998 8
  20554736.020    20554739.374    -3583994.454 8  -1406312.427 8
 86  6 12  0 22 41.0800000  0  4G 6G 8G 9G11
  20400292.573    20400297.068    -4009632.704 8  -1443194.793 8
  22594801.509    22594806.552     8763756.564 7   7989145.962 8
  21707854.573    21707858.346   -10638444.071 9  -7034377.631 8
  20554975.251    20554980.002    -3582738.787 7  -1405333.990 8
 86  6 12  0 22 47.0800000  0  4G 6G 8G 9G11
  20399959.741    20399962.514    -4011387.043 8  -1444561.802 7
  22598603.096    22598608.313     8783732.896 7   8004711.935 8
  21704766.138    21704772.224   -10654664.571 8  -7047016.984 8
  20555218.643    20555222.885    -3581460.911 8  -1404338.240 8
 86  6 12  0 22 53.0800000  0  4G 6G 8G 9G11
  20399629.688    20399632.012    -4013122.994 7  -1445914.488 7
  22602405.671    22602411.842     8803719.008 7   8020285.527 8
  21701682.388    21701686.793   -10670877.049 8  -7059650.075 8
  20555465.083    20555471.264    -3580160.836 7  -1403325.205 7
 86  6 12  0 22 59.0800000  0  4G 6G 8G 9G11
  20399302.130    20399304.377    -4014840.574 8  -1447252.855 7
  22606210.549    22606217.088     8823714.823 7   8035866.662 8
  21698598.448    21698602.501   -10687081.588 8  -7072276.983 7
  20555716.999    20555721.547    -3578838.604 9  -1402294.884 6
 86  6 12  0 23  5.0800000  0  4G 6G 8G 9G11
  20398979.438    20398982.775    -4016539.787 8  -1448576.925 7
  22610017.691    22610024.096     8843720.324 7   8051455.362 8
  21695516.160    21695520.914   -10703277.997 8  -7084897.557 8
  20555973.179    20555977.204    -3577494.189 8  -1401247.303 8
 86  6 12  0 23 11.0800000  0  4G 6G 8G 9G11
  20398658.803    20398661.785    -4018220.586 8  -1449886.646 7
  22613826.674    22613833.687     8863735.529 7   8067051.627 9
  21692436.164    21692440.688   -10719466.192 8  -7097511.741 8
  20556233.574    20556238.149    -3576127.582 8  -1400182.420 6
 86  6 12  0 23 17.0800000  0  4G 6G 8G 9G11
  20398343.122    20398346.199    -4019882.843 8  -1451181.912 8
  22617636.531    22617643.660     8883760.484 7   8082655.481 9
  21689357.456    21689361.594   -10735646.201 8  -7110119.531 8
  20556497.590    20556502.838    -3574738.794 8  -1399100.233 7
 86  6 12  0 23 23.0800000  0  4G 6G 8G 9G11
  20398028.841    20398032.850    -4021526.668 8  -1452462.812 7
  22621451.124    22621456.641     8903795.143 8   8098266.887 8
  21686279.572    21686282.842   -10751818.066 7  -7122720.986 8
  20556765.724    20556769.823    -3573327.817 8  -1398000.780 7
 86  6 12  0 23 29.0800000  0  4G 6G 8G 9G11
  20397721.625    20397723.549    -4023151.990 8  -1453729.299 8
  22625265.439    22625269.437     8923839.418 7   8113885.798 8
  21683203.501    21683207.972   -10767981.679 8  -7135316.005 8
  20557039.289    20557043.765    -3571894.665 9  -1396884.038 7
 86  6 12  0 23 35.0800000  0  4G 6G 8G 9G11
  20397413.943    20397417.950    -4024758.869 8  -1454981.415 8
  22629079.723    22629087.208     8943893.289 6   8129512.187 7
  21680129.310    21680134.197   -10784137.112 7  -7147904.641 8
  20557315.535    20557319.180    -3570439.370 8  -1395750.045 8
 86  6 12  0 23 41.0800000  0  4G 6G 8G 9G11
  20397112.051    20397115.797    -4026347.289 8  -1456219.146 7
  22632897.959    22632905.207     8963956.675 7   8145145.977 8
  21677056.610    21677061.853   -10800284.452 8  -7160487.002 8
  20557595.961    20557602.408    -3568962.021 8  -1394598.855 7
 86  6 12  0 23 47.0800000  0  4G 6G 8G 9G11
  20396813.916    20396817.170    -4027917.290 7  -1457442.518 8
  22636718.542    22636724.518     8984029.539 8   8160787.167 8
  21673985.835    21673990.043   -10816423.548 9  -7173062.905 8
  20557881.194    20557885.967    -3567462.544 8  -1393430.454 7
 86  6 12  0 23 53.0800000  0  4G 6G 8G 9G11
  20396518.331    20396521.971    -4029468.765 8  -1458651.457 8
  22640541.030    22640545.254     9004111.866 8   8176435.746 8
  21670915.964    21670921.341   -10832554.414 8  -7185632.398 8
  20558172.502    20558174.576    -3565940.984 8  -1392244.810 6
 86  6 12  0 23 59.0800000  0  4G 6G 8G 9G11
  20396227.085    20396230.419    -4031001.816 8  -1459846.047 9
  22644363.588    22644369.123     9024203.672 8   8192091.680 9
  21667847.992    21667852.374   -10848677.017 8  -7198195.479 7
  20558464.945    20558470.890    -3564397.307 7  -1391041.950 8
 86  6 12  0 24  5.0800000  0  4G 6G 8G 9G11
  20395940.214    20395941.190    -4032516.393 8  -1461026.244 6
  22648188.533    22648193.676     9044304.831 8   8207754.914 8
  21664782.041    21664785.182   -10864791.457 9  -7210752.181 9
  20558764.152    20558766.587    -3562831.652 8  -1389821.966 7
 86  6 12  0 24 11.0800000  0  4G 6G 8G 9G11
  20395653.753    20395656.923    -4034012.553 8  -1462192.090 7
  22652014.856    22652020.305     9064415.330 8   8223425.427 7
  21661717.275    21661720.387   -10880897.651 9  -7223302.473 8
  20559063.929    20559068.838    -3561244.058 8  -1388584.874 8
 86  6 12  0 24 17.0800000  0  4G 6G 8G 9G11
  20395371.575    20395376.217    -4035490.289 8  -1463343.575 8
  22655845.337    22655849.747     9084535.072 8   8239103.138 9
  21658652.616    21658657.743   -10896995.699 9  -7235846.386 9
  20559371.174    20559375.173    -3559634.543 7  -1387330.711 7
 86  6 12  0 24 23.0800000  0  4G 6G 8G 9G11
  20395094.435    20395098.830    -4036949.593 7  -1464480.697 8
  22659675.113    22659679.763     9104663.992 8   8254788.007 8
  21655591.451    21655594.663   -10913085.538 8  -7248383.926 8
  20559681.475    20559685.527    -3558003.171 7  -1386059.505 8
 86  6 12  0 24 29.0800000  0  4G 6G 8G 9G11
  20394819.610    20394824.872    -4038390.431 8  -1465603.429 8
  22663507.121    22663512.619     9124802.184 7   8270480.102 8
  21652530.344    21652534.011   -10929167.120 7  -7260915.021 8
  20559996.057    20560001.322    -3556349.818 8  -1384771.186 7
 86  6 12  0 24 35.0800000  0  4G 6G 8G 9G11
  20394550.334    20394553.576    -4039812.747 7  -1466711.725 8
  22667341.164    22667346.605     9144949.631 8   8286179.402 8
  21649472.269    21649476.550   -10945240.325 8  -7273439.598 8
  20560315.272    20560320.514    -3554674.498 7  -1383465.742 7
 86  6 12  0 24 41.0800000  0  4G 6G 8G 9G11
  20394282.437    20394286.103    -4041216.439 8  -1467805.510 8
  22671176.810    22671181.641     9165106.369 8   8301885.942 8
  21646415.535    21646419.275   -10961305.112 9  -7285957.606 8
  20560637.453    20560642.039    -3552977.188 8  -1382143.151 7
 86  6 12  0 24 47.0800000  0  4G 6G 8G 9G11
  20394020.118    20394023.214    -4042601.441 9  -1468884.732 8
  22675013.807    22675019.225     9185272.463 7   8317599.774 8
  21643359.836    21643363.609   -10977361.348 8  -7298468.946 8
  20560964.496    20560969.535    -3551257.855 7  -1380803.425 8
 86  6 12  0 24 53.0800000  0  4G 6G 8G 9G11
  20393760.045    20393763.268    -4043967.755 8  -1469949.400 8
  22678853.727    22678859.135     9205447.836 8   8333320.850 9
  21640305.882    21640309.122   -10993409.180 9  -7310973.751 8
  20561296.077    20561301.751    -3549516.513 7  -1379446.524 8
 86  6 12  0 24 59.0800000  0  4G 6G 8G 9G11
  20393502.654    20393505.840    -4045315.402 9  -1470999.514 8
  22682695.007    22682700.368     9225632.443 8   8349049.097 8
  21637254.076    21637259.086   -11009448.557 8  -7323471.974 6
  20561630.610    20561636.596    -3547753.171 7  -1378072.476 8
 86  6 12  0 25  5.0800000  0  4G 6G 8G 9G11
  20393250.718    20393253.551    -4046644.293 8  -1472035.008 7
  22686537.598    22686543.146     9245826.264 8   8364784.539 8
  21634203.873    21634207.508   -11025479.262 9  -7335963.432 7
  20561971.625    20561977.503    -3545967.836 8  -1376681.321 7
 86  6 12  0 25 11.0800000  0  4G 6G 8G 9G11
  20393000.685    20393004.199    -4047954.478 8  -1473055.937 7
  22690382.948    22690385.940     9266029.325 7   8380527.188 9
  21631155.551    21631157.547   -11041501.369 8  -7348448.187 8
  20562314.892    20562321.981    -3544160.455 8  -1375272.975 8
 86  6 12  0 25 17.0800000  0  4G 6G 8G 9G11
  20392755.428    20392756.519    -4049245.883 9  -1474062.227 8
  22694230.449    22694233.712     9286241.559 8   8396276.972 9
  21628107.040    21628111.237   -11057514.940 9  -7360926.294 8
  20562663.757    20562669.047    -3542331.010 8  -1373847.428 7
 86  6 12  0 25 23.0800000  0  4G 6G 8G 9G11
  20392514.253    20392515.924    -4050518.591 7  -1475053.953 8
  22698076.607    22698080.705     9306462.953 8   8412033.895 9
  21625061.441    21625066.495   -11073519.869 9  -7373397.670 8
  20563016.159    20563021.251    -3540479.576 7  -1372404.751 8
 86  6 12  0 25 29.0800000  0  4G 6G 8G 9G11
  20392274.050    20392278.214    -4051772.559 8  -1476031.075 8
  22701927.490    22701930.957     9326693.430 8   8427797.903 8
  21622017.475    21622020.866   -11089516.241 8  -7385862.363 8
  20563372.517    20563377.868    -3538606.240 7  -1370945.000 8
 86  6 12  0 25 35.0800000  0  4G 6G 8G 9G11
  20392038.134    20392042.656    -4053007.865 7  -1476993.658 9
  22705777.760    22705782.076     9346932.876 8   8443568.897 9
  21618975.423    21618979.250   -11105504.023 8  -7398320.382 9
  20563733.522    20563738.085    -3536711.087 8  -1369468.257 7
 86  6 12  0 25 41.0800000  0  4G 6G 8G 9G11
  20391807.433    20391810.086    -4054224.550 7  -1477941.727 8
  22709629.884    22709635.476     9367181.240 8   8459346.836 9
  21615936.121    21615939.062   -11121483.293 8  -7410771.755 8
  20564097.841    20564102.829    -3534794.125 7  -1367974.504 8
 86  6 12  0 25 47.0800000  0  4G 6G 8G 9G11
  20391579.207    20391583.022    -4055422.530 9  -1478875.213 8
  22713484.802    22713490.778     9387438.542 8   8475131.721 9
  21612894.988    21612900.491   -11137454.091 8  -7423216.536 7
  20564466.851    20564470.935    -3532855.293 7  -1366463.739 7
 86  6 12  0 25 53.0800000  0  4G 6G 8G 9G11
  20391354.650    20391357.910    -4056601.620 8  -1479793.985 7
  22717340.411    22717346.278     9407704.912 9   8490923.691 9
  21609857.550    21609861.619   -11153415.996 9  -7435654.375 8
  20564839.345    20564844.630    -3530894.518 8  -1364935.858 8
 86  6 12  0 25 59.0800000  0  4G 6G 8G 9G11
  20391134.480    20391137.691    -4057761.895 7  -1480698.098 7
  22721200.198    22721205.551     9427980.283 8   8506722.681 8
  21606821.710    21606825.895   -11169369.220 8  -7448085.451 8
  20565216.527    20565222.560    -3528911.891 7  -1363390.948 8
 86  6 12  0 26  5.0800000  0  4G 6G 8G 9G11
  20390917.413    20390921.851    -4058903.329 8  -1481587.532 7
  22725061.053    22725064.935     9448264.608 8   8522528.656 8
  21603788.274    21603791.187   -11185313.742 8  -7460509.761 7
  20565599.429    20565603.949    -3526907.414 7  -1361829.021 7
 86  6 12  0 26 11.0800000  0  4G 6G 8G 9G11
  20390703.525    20390706.956    -4060025.948 8  -1482462.305 8
  22728922.010    22728926.876     9468557.794 8   8538341.506 9
  21600756.558    21600758.512   -11201249.590 8  -7472927.287 7
  20565985.092    20565988.517    -3524881.094 8  -1360250.064 8
 86  6 12  0 26 17.0800000  0  4G 6G 8G 9G11
  20390492.953    20390497.641    -4061129.815 8  -1483322.450 8
  22732784.291    22732790.337     9488859.834 9   8554161.274 9
  21597725.042    21597728.793   -11217176.609 9  -7485337.943 8
  20566374.999    20566379.827    -3522832.935 8  -1358654.096 8
 86  6 12  0 26 23.0800000  0  4G 6G 8G 9G11
  20390288.412    20390290.370    -4062214.844 8  -1484167.939 7
  22736651.486    22736655.880     9509170.727 9   8569987.929 8
  21594695.183    21594699.402   -11233094.933 8  -7497741.842 7
  20566768.399    20566772.627    -3520762.960 8  -1357041.129 7
 86  6 12  0 26 29.0800000  0  4G 6G 8G 9G11
  20390085.997    20390088.753    -4063281.025 9  -1484998.739 7
  22740517.629    22740521.802     9529490.416 7   8585821.440 9
  21591668.419    21591671.080   -11249004.452 9  -7510138.877 7
  20567166.405    20567171.330    -3518671.203 7  -1355411.180 8
 86  6 12  0 26 35.0800000  0  4G 6G 8G 9G11
  20389884.664    20389887.211    -4064328.379 8  -1485814.841 6
  22744386.415    22744390.194     9549818.869 8   8601661.799 9
  21588643.339    21588644.948   -11264905.154 9  -7522529.034 8
  20567569.791    20567572.745    -3516557.633 8  -1353764.247 7
 86  6 12  0 26 41.0800000  0  4G 6G 8G 9G11
  20389689.810    20389692.085    -4065356.849 7  -1486616.255 7
  22748255.176    22748260.070     9570156.021 8   8617508.922 8
  21585618.378    21585621.518   -11280796.980 8  -7534912.263 7
  20567974.582    20567979.159    -3514422.280 8  -1352100.347 8
 86  6 12  0 26 47.0800000  0  4G 6G 8G 9G11
  20389496.893    20389499.466    -4066366.524 8  -1487403.009 8
  22752126.509    22752131.922     9590501.893 9   8633362.844 8
  21582596.073    21582599.139   -11296680.083 9  -7547288.717 8
  20568385.110    20568389.597    -3512265.155 7  -1350419.461 8
 86  6 12  0 26 53.0800000  0  4G 6G 8G 9G11
  20389309.228    20389312.107    -4067357.238 7  -1488175.005 8
  22756000.580    22756005.243     9610856.507 8   8649223.574 8
  21579574.860    21579578.772   -11312554.317 9  -7559658.238 8
  20568799.960    20568804.438    -3510086.232 8  -1348721.600 8
 86  6 12  0 26 59.0800000  0  4G 6G 8G 9G11
  20389124.342    20389127.061    -4068329.007 7  -1488932.215 7
  22759876.501    22759879.602     9631219.846 9   8665091.105 8
  21576555.420    21576559.457   -11328419.553 8  -7572020.756 7
  20569219.479    20569223.775    -3507885.528 8  -1347006.763 8
 86  6 12  0 27  5.0800000  0  4G 6G 8G 9G11
  20388942.607    20388945.872    -4069281.783 8  -1489674.661 8
  22763752.779    22763758.132     9651591.897 7   8680965.421 9
  21573538.729    21573543.209   -11344275.779 8  -7584376.266 8
  20569642.546    20569646.039    -3505663.020 8  -1345274.948 8
 86  6 12  0 27 11.0800000  0  4G 6G 8G 9G11
  20388764.629    20388768.993    -4070215.570 8  -1490402.284 7
  22767630.945    22767635.736     9671972.613 8   8696846.489 9
  21570522.067    21570526.219   -11360123.031 9  -7596724.769 8
  20570069.493    20570073.748    -3503418.775 8  -1343526.201 8
 86  6 12  0 27 17.0800000  0  4G 6G 8G 9G11
  20388589.608    20388593.643    -4071130.406 9  -1491115.147 7
  22771510.281    22771515.088     9692361.940 9   8712734.283 8
  21567509.546    21567512.972   -11375961.370 9  -7609066.321 9
  20570501.976    20570503.814    -3501152.816 8  -1341760.506 7
 86  6 12  0 27 23.0800000  0  4G 6G 8G 9G11
  20388420.559    20388424.193    -4072026.332 8  -1491813.256 8
  22775392.702    22775396.932     9712759.820 8   8728628.717 8
  21564498.180    21564499.998   -11391790.732 8  -7621400.881 7
  20570936.174    20570940.738    -3498865.180 8  -1339977.922 8
 86  6 12  0 27 29.0800000  0  4G 6G 8G 9G11
  20388253.831    20388256.804    -4072903.234 8  -1492496.569 7
  22779275.632    22779279.423     9733166.245 8   8744529.819 8
  21561486.381    21561489.243   -11407611.034 8  -7633728.398 7
  20571375.197    20571380.475    -3496555.764 9  -1338178.390 7
 86  6 12  0 27 35.0800000  0  4G 6G 8G 9G11
  20388089.598    20388093.187    -4073761.151 8  -1493165.057 7
  22783160.876    22783165.294     9753581.210 8   8760437.588 9
  21558477.759    21558480.410   -11423422.369 8  -7646048.912 7
  20571818.879    20571823.738    -3494224.675 8  -1336361.952 8
 86  6 12  0 27 41.0800000  0  4G 6G 8G 9G11
  20387929.876    20387933.811    -4074600.051 8  -1493818.747 7
  22787046.805    22787051.372     9774004.757 8   8776352.031 8
  21555470.652    21555474.118   -11439224.655 8  -7658362.388 8
  20572266.511    20572271.409    -3491871.913 8  -1334528.642 7
 86  6 12  0 27 47.0800000  0  4G 6G 8G 9G11
  20387772.727    20387777.824    -4075419.891 9  -1494457.597 8
  22790934.616    22790938.575     9794436.749 8   8792273.057 9
  21552464.867    21552468.314   -11455017.821 9  -7670668.744 9
  20572719.929    20572722.188    -3489497.538 7  -1332678.474 8
 86  6 12  0 27 53.0800000  0  4G 6G 8G 9G11
  20387621.152    20387624.298    -4076220.721 8  -1495081.619 8
  22794825.612    22794829.406     9814877.158 8   8808200.653 9
  21549463.334    21549464.918   -11470801.979 8  -7682968.085 8
  20573174.708    20573180.166    -3487101.601 8  -1330811.523 7
 86  6 12  0 27 59.0800000  0  4G 6G 8G 9G11
  20387473.396    20387476.198    -4077002.563 8  -1495690.855 8
  22798716.094    22798720.372     9835325.969 8   8824134.776 8
  21546460.783    21546463.350   -11486577.054 8  -7695260.365 8
  20573633.800    20573639.115    -3484684.058 8  -1328927.713 8
 86  6 12  0 28  5.0800000  0  4G 6G 8G 9G11
  20387328.429    20387331.503    -4077765.326 8  -1496285.210 8
  22802607.845    22802614.086     9855783.170 8   8840075.451 8
  21543459.404    21543461.619   -11502342.942 8  -7707545.463 8
  20574099.149    20574102.704    -3482244.836 9  -1327027.023 8
 86  6 12  0 28 11.0800000  0  4G 6G 8G 9G11
  20387185.850    20387190.746    -4078509.039 8  -1496864.733 8
  22806503.825    22806507.798     9876248.751 7   8856022.647 8
  21540460.340    21540464.572   -11518099.735 8  -7719823.482 7
  20574566.925    20574570.210    -3479783.969 7  -1325109.468 8
 86  6 12  0 28 17.0800000  0  4G 6G 8G 9G11
  20387048.018    20387052.033    -4079233.628 7  -1497429.343 7
  22810399.015    22810402.667     9896722.658 8   8871976.331 8
  21537464.391    21537467.158   -11533847.416 8  -7732094.390 8
  20575039.405    20575043.664    -3477301.471 8  -1323175.055 8
 86  6 12  0 28 23.0800000  0  4G 6G 8G 9G11
  20386913.852    20386918.031    -4079939.130 8  -1497979.087 7
  22814296.086    22814302.335     9917204.900 9   8887936.513 8
  21534469.478    21534472.133   -11549585.741 9  -7744358.022 7
  20575515.396    20575521.195    -3474797.386 7  -1321223.805 8
 86  6 12  0 28 29.0800000  0  4G 6G 8G 9G11
  20386783.673    20386787.714    -4080625.550 8  -1498513.956 7
  22818196.657    22818200.986     9937695.463 8   8903903.186 8
  21531476.796    21531479.233   -11565314.890 8  -7756614.508 8
  20575994.726    20576000.834    -3472271.733 8  -1319255.773 7
 86  6 12  0 28 35.0800000  0  4G 6G 8G 9G11
  20386656.788    20386659.309    -4081292.804 8  -1499033.898 7
  22822098.043    22822101.956     9958194.339 8   8919876.327 8
  21528484.803    21528488.384   -11581034.770 8  -7768863.770 8
  20576481.142    20576486.704    -3469724.482 8  -1317270.920 8
 86  6 12  0 28 41.0800000  0  4G 6G 8G 9G11
  20386533.050    20386536.599    -4081940.846 8  -1499538.872 8
  22825999.050    22826004.265     9978701.474 8   8935855.910 8
  21525496.355    21525498.989   -11596745.440 9  -7781105.840 8
  20576970.695    20576975.656    -3467155.646 8  -1315269.218 8
 86  6 12  0 28 47.0800000  0  4G 6G 8G 9G11
  20386413.800    20386418.462    -4082569.697 8  -1500028.890 8
  22829903.195    22829907.485     9999216.895 8   8951841.937 9
  21522507.306    21522510.589   -11612446.642 7  -7793340.530 8
  20577462.274    20577467.944    -3464565.258 6  -1313250.730 8
 86  6 12  0 28 53.0800000  0  4G 6G 8G 9G11
  20386297.918    20386301.413    -4083179.399 8  -1500503.975 8
  22833809.783    22833813.179    10019740.508 8   8967834.370 8
  21519521.495    21519524.546   -11628138.549 8  -7805567.986 8
  20577960.622    20577965.080    -3461953.263 7  -1311215.411 9
 86  6 12  0 28 59.0800000  0  4G 6G 8G 9G11
  20386184.971    20386187.277    -4083769.864 9  -1500964.082 8
  22837716.415    22837720.322    10040272.368 8   8983833.200 8
  21516536.111    21516540.663   -11643821.080 8  -7817788.142 8
  20578460.518    20578465.681    -3459319.706 8  -1309163.290 8
 86  6 12  0 29  5.0800000  0  4G 6G 8G 9G11
  20386077.199    20386080.605    -4084341.111 9  -1501409.217 7
  22841624.551    22841628.826    10060812.350 8   8999838.389 9
  21513555.558    21513558.570   -11659494.225 8  -7830000.989 8
  20578965.816    20578970.959    -3456664.588 8  -1307094.367 8
 86  6 12  0 29 11.0800000  0  4G 6G 8G 9G11
  20385971.057    20385975.318    -4084893.117 8  -1501839.359 8
  22845535.762    22845539.179    10081360.511 8   9015849.923 9
  21510573.352    21510576.595   -11675158.033 9  -7842206.542 8
  20579474.658    20579480.428    -3453987.942 7  -1305008.662 8
 86  6 12  0 29 17.0800000  0  4G 6G 8G 9G11
  20385869.750    20385874.415    -4085425.813 7  -1502254.451 7
  22849445.329    22849450.662    10101916.844 7   9031867.836 8
  21507594.949    21507598.474   -11690812.286 8  -7854404.650 8
  20579988.062    20579995.088    -3451289.760 6  -1302906.188 8
 86  6 12  0 29 23.0800000  0  4G 6G 8G 9G11
  20385772.943    20385775.527    -4085939.128 9  -1502654.439 7
  22853358.842    22853364.029    10122481.383 8   9047892.154 8
  21504617.866    21504620.207   -11706457.024 8  -7866595.360 8
  20580506.237    20580512.545    -3448569.998 8  -1300786.880 8
 86  6 12  0 29 29.0800000  0  4G 6G 8G 9G11
  20385679.232    20385681.842    -4086433.109 7  -1503039.360 7
  22857273.296    22857279.557    10143054.072 6   9063922.798 8
  21501641.872    21501647.012   -11722092.260 8  -7878778.654 7
  20581027.109    20581033.706    -3445828.632 7  -1298650.753 7
 86  6 12  0 29 35.0800000  0  4G 6G 8G 9G11
  20385588.417    20385591.740    -4086907.826 8  -1503409.271 7
  22861191.208    22861195.104    10163634.794 7   9079959.737 8
  21498669.050    21498672.760   -11737717.960 8  -7890954.533 8
  20581553.823    20581558.490    -3443065.754 7  -1296497.857 8
 86  6 12  0 29 41.0800000  0  4G 6G 8G 9G11
  20385501.320    20385504.431    -4087363.242 8  -1503764.128 8
  22865109.186    22865113.142    10184223.548 8   9096002.910 8
  21495696.549    21495700.967   -11753334.203 8  -7903123.023 8
  20582082.568    20582088.580    -3440281.408 7  -1294328.244 8
 86  6 12  0 29 47.0800000  0  4G 6G 8G 9G11
  20385418.581    20385422.445    -4087799.381 9  -1504103.986 7
  22869025.716    22869032.867    10204820.213 7   9112052.245 8
  21492728.217    21492731.115   -11768940.879 7  -7915284.065 8
  20582618.039    20582622.643    -3437475.711 7  -1292141.967 8
 86  6 12  0 29 53.0800000  0  4G 6G 8G 9G11
  20385339.074    20385342.079    -4088216.348 8  -1504428.897 8
  22872949.007    22872954.525    10225424.720 8   9128107.695 8
  21489758.801    21489763.608   -11784538.125 8  -7927437.768 9
  20583155.435    20583161.004    -3434648.682 7  -1289939.101 8
 86  6 12  0 29 59.0800000  0  4G 6G 8G 9G11
  20385264.082    20385268.209    -4088614.102 9  -1504738.835 8
  22876871.284    22876876.081    10246037.061 7   9144169.254 8
  21486792.674    21486797.015   -11800126.045 8  -7939584.189 8
  20583697.964    20583703.073    -3431800.344 8  -1287719.609 8
 86  6 12  0 30  5.0800000  0  4G 6G 8G 9G11
  20385191.566    20385194.665    -4088992.521 7  -1505033.713 7
  22880794.190    22880799.295    10266657.254 7   9160236.924 8
  21483827.869    21483833.721   -11815704.278 8  -7951723.079 9
  20584243.562    20584247.897    -3428930.601 7  -1285483.456 8
 86  6 12  0 30 11.0800000  0  4G 6G 8G 9G11
  20385122.899    20385127.063    -4089351.629 7  -1505313.537 6
  22884720.200    22884724.004    10287285.314 7   9176310.741 8
  21480865.608    21480869.504   -11831272.968 7  -7963854.518 8
  20584794.256    20584798.708    -3426039.508 8  -1283230.653 8
 86  6 12  0 30 17.0800000  0  4G 6G 8G 9G11
  20385058.931    20385061.767    -4089691.441 7  -1505578.313 7
  22888647.651    22888652.109    10307921.214 7   9192390.656 8
  21477905.092    21477910.145   -11846832.077 7  -7975978.503 8
  20585348.578    20585354.132    -3423127.059 8  -1280961.206 8
 86  6 12  0 30 23.0800000  0  4G 6G 8G 9G11
  20384998.375    20385000.713    -4090011.882 9  -1505828.020 8
  22892575.315    22892580.667    10328564.903 8   9208476.638 8
  21474946.723    21474951.206   -11862381.493 8  -7988094.922 7
  20585906.847    20585911.891    -3420193.269 8  -1278675.148 8
 86  6 12  0 30 29.0800000  0  4G 6G 8G 9G11
  20384940.013    20384942.898    -4090312.940 8  -1506062.598 7
  22896506.825    22896509.835    10349216.375 7   9224568.685 8
  21471988.245    21471993.511   -11877921.376 8  -8000203.921 8
  20586470.476    20586472.717    -3417238.146 8  -1276372.446 8
 86  6 12  0 30 35.0800000  0  4G 6G 8G 9G11
  20384888.088    20384890.446    -4090594.580 8  -1506282.062 7
  22900436.650    22900441.629    10369875.642 8   9240666.807 8
  21469032.876    21469037.777   -11893451.564 8  -8012305.354 9
  20587035.593    20587039.799    -3414261.639 8  -1274053.090 7
 86  6 12  0 30 41.0800000  0  4G 6G 8G 9G11
  20384836.738    20384840.639    -4090856.810 8  -1506486.399 8
  22904369.570    22904375.013    10390542.695 7   9256770.999 7
  21466079.687    21466084.056   -11908971.943 8  -8024399.158 9
  20587605.357    20587610.800    -3411263.792 8  -1271717.115 8
 86  6 12  0 30 47.0800000  0  4G 6G 8G 9G11
  20384790.894    20384794.930    -4091099.551 8  -1506675.543 7
  22908303.714    22908307.429    10411217.510 8   9272881.235 8
  21463128.703    21463133.271   -11924482.567 8  -8036485.358 8
  20588181.612    20588186.210    -3408244.585 8  -1269364.492 8
 86  6 12  0 30 53.0800000  0  4G 6G 8G 9G11
  20384748.402    20384750.365    -4091322.805 8  -1506849.512 8
  22912239.798    22912244.423    10431900.060 8   9288997.501 7
  21460179.003    21460184.234   -11939983.376 8  -8048563.918 9
  20588759.516    20588763.183    -3405203.997 9  -1266995.202 8
 86  6 12  0 30 59.0800000  0  4G 6G 8G 9G11
  20384709.492    20384712.377    -4091526.604 8  -1507008.327 7
  22916177.557    22916181.296    10452590.314 8   9305119.775 7
  21457230.656    21457236.594   -11955474.422 8  -8060634.862 8
  20589342.027    20589346.477    -3402142.084 8  -1264609.297 9
 86  6 12  0 31  5.0800000  0  4G 6G 8G 9G11
  20384674.718    20384677.628    -4091710.958 8  -1507151.980 7
  22920115.202    22920119.626    10473288.189 8   9321247.983 8
  21454284.764    21454290.131   -11970955.629 8  -8072698.146 8
  20589929.086    20589933.248    -3399058.884 9  -1262206.798 8
 86  6 12  0 31 11.0800000  0  4G 6G 8G 9G11
  20384643.378    20384646.509    -4091875.935 8  -1507280.532 8
  22924055.851    22924059.557    10493993.635 7   9337382.097 8
  21451340.365    21451345.490   -11986427.137 7  -8084753.847 8
  20590520.037    20590522.771    -3395954.438 8  -1259787.758 8
 86  6 12  0 31 17.0800000  0  4G 6G 8G 9G11
  20384615.063    20384618.245    -4092021.384 9  -1507393.871 8
  22927997.627    22928001.823    10514706.682 8   9353522.120 7
  21448397.360    21448403.045   -12001888.755 8  -8096801.856 8
  20591114.487    20591118.686    -3392828.694 8  -1257352.116 8
 86  6 12  0 31 23.0800000  0  4G 6G 8G 9G11
  20384590.866    20384594.252    -4092147.299 9  -1507492.000 8
  22931940.235    22931945.556    10535427.304 8   9369668.063 8
  21445457.588    21445462.863   -12017340.527 8  -8108842.206 9
  20591712.101    20591717.305    -3389681.743 8  -1254899.944 8
 86  6 12  0 31 29.0800000  0  4G 6G 8G 9G11
  20384570.556    20384574.282    -4092253.792 8  -1507574.971 7
  22935884.142    22935890.946    10556155.460 8   9385819.871 8
  21442520.545    21442524.626   -12032782.409 7  -8120874.833 8
  20592315.746    20592319.194    -3386513.595 8  -1252431.265 8
 86  6 12  0 31 35.0800000  0  4G 6G 8G 9G11
  20384554.114    20384557.941    -4092340.678 8  -1507642.681 6
  22939829.873    22939835.184    10576891.123 7   9401977.528 8
  21439583.040    21439588.224   -12048214.442 7  -8132899.794 7
  20592922.369    20592925.364    -3383324.218 8  -1249946.042 9
 86  6 12  0 31 41.0800000  0  4G 6G 8G 9G11
  20384541.102    20384545.354    -4092408.049 7  -1507695.172 7
  22943778.187    22943781.849    10597634.348 7   9418141.064 8
  21436648.340    21436652.807   -12063636.423 8  -8144916.922 8
  20593534.002    20593538.472    -3380113.572 9  -1247444.225 8
 86  6 12  0 31 47.0800000  0  4G 6G 8G 9G11
  20384532.476    20384534.983    -4092455.835 8  -1507732.419 8
  22947726.022    22947732.315    10618385.042 7   9434310.425 8
  21433714.491    21433721.545   -12079048.422 8  -8156926.267 8
  20594149.701    20594152.758    -3376881.683 8  -1244925.878 8
 86  6 12  0 31 53.0800000  0  4G 6G 8G 9G11
  20384526.729    20384530.072    -4092484.123 8  -1507754.461 7
  22951677.003    22951680.836    10639143.152 8   9450485.561 8
  21430783.201    21430789.528   -12094450.499 9  -8168927.886 8
  20594767.228    20594771.731    -3373628.656 8  -1242391.043 8
 86  6 12  0 31 59.0800000  0  4G 6G 8G 9G11
  20384524.509    20384527.599    -4092492.869 8  -1507761.297 7
  22955627.151    22955633.601    10659908.681 7   9466666.508 7
  21427854.027    21427861.034   -12109842.627 7  -8180921.745 8
  20595390.948    20595395.510    -3370354.445 7  -1239839.719 8
 86  6 12  0 32  5.0800000  0  4G 6G 8G 9G11
  20384527.202    20384530.301    -4092481.980 8  -1507752.798 7
  22959580.113    22959585.668    10680681.621 7   9482853.199 8
  21424928.052    21424934.376   -12125224.673 8  -8192907.760 8
  20596018.263    20596021.328    -3367059.080 8  -1237271.898 8
 86  6 12  0 32 11.0800000  0  4G 6G 8G 9G11
  20384533.658    20384536.883    -4092451.450 8  -1507729.026 8
  22963534.608    22963540.744    10701461.944 7   9499045.658 8
  21422002.451    21422008.077   -12140596.685 8  -8204885.956 9
  20596649.497    20596652.638    -3363742.522 7  -1234687.573 8
 86  6 12  0 32 17.0800000  0  4G 6G 8G 9G11
  20384543.383    20384546.659    -4092401.282 8  -1507689.934 8
  22967490.668    22967495.393    10722249.690 8   9515243.896 7
  21419078.764    21419085.139   -12155958.495 8  -8216856.192 8
  20597284.274    20597288.183    -3360404.775 8  -1232086.718 8
 86  6 12  0 32 23.0800000  0  4G 6G 8G 9G11
  20384556.012    20384560.121    -4092331.447 7  -1507635.506 7
  22971446.838    22971452.375    10743044.799 7   9531447.865 8
  21416158.746    21416164.450   -12171310.274 8  -8228818.606 9
  20597923.197    20597926.797    -3357045.875 8  -1229469.394 8
 86  6 12  0 32 29.0800000  0  4G 6G 8G 9G11
  20384572.722    20384577.086    -4092241.903 8  -1507565.734 8
  22975406.417    22975411.467    10763847.273 9   9547657.568 7
  21413239.671    21413244.726   -12186651.820 8  -8240773.058 9
  20598565.233    20598569.545    -3353665.805 8  -1226835.593 8
 86  6 12  0 32 35.0800000  0  4G 6G 8G 9G11
  20384593.716    20384597.233    -4092132.816 8  -1507480.732 8
  22979367.065    22979372.257    10784656.951 7   9563872.908 8
  21410321.686    21410326.368   -12201983.327 8  -8252719.686 8
  20599213.099    20599217.397    -3350264.679 7  -1224185.348 8
 86  6 12  0 32 41.0800000  0  4G 6G 8G 9G11
  20384618.411    20384621.376    -4092004.048 8  -1507380.406 7
  22983328.431    22983333.232    10805473.864 7   9580093.873 7
  21407405.955    21407411.527   -12217304.667 8  -8264658.398 8
  20599862.792    20599868.579    -3346842.470 8  -1221518.698 8
 86  6 12  0 32 47.0800000  0  4G 6G 8G 9G11
  20384647.287    20384651.082    -4091855.554 8  -1507264.683 7
  22987291.200    22987296.279    10826298.056 7   9596320.500 8
  21404493.863    21404497.000   -12232615.770 8  -8276589.130 9
  20600519.298    20600523.690    -3343399.198 7  -1218835.629 9
 86  6 12  0 32 53.0800000  0  4G 6G 8G 9G11
  20384679.085    20384681.486    -4091687.418 8  -1507133.669 8
  22991254.502    22991260.456    10847129.382 7   9612552.707 8
  21401581.168    21401586.425   -12247916.651 8  -8288511.893 9
  20601178.104    20601182.485    -3339934.891 8  -1216136.148 7
 86  6 12  0 32 59.0800000  0  4G 6G 8G 9G11
  20384714.832    20384718.261    -4091499.545 7  -1506987.285 8
  22995220.553    22995225.916    10867967.922 6   9628790.512 8
  21398670.652    21398676.920   -12263207.393 8  -8300426.754 8
  20601840.563    20601846.526    -3336449.484 8  -1213420.273 8
 86  6 12  0 33  5.0800000  0  4G 6G 8G 9G11
  20384754.480    20384757.920    -4091291.912 8  -1506825.499 8
  22999187.350    22999192.552    10888813.647 8   9645033.930 7
  21395762.853    21395768.259   -12278487.750 8  -8312333.527 9
  20602508.314    20602513.881    -3332943.038 7  -1210687.966 8
 86  6 12  0 33 11.0800000  0  4G 6G 8G 9G11
  20384797.760    20384800.567    -4091064.629 8  -1506648.394 8
  23003154.627    23003161.693    10909666.530 7   9661282.917 8
  21392855.627    21392863.010   -12293757.867 8  -8324232.309 8
  20603180.019    20603185.255    -3329415.584 7  -1207939.311 7
 86  6 12  0 33 17.0800000  0  4G 6G 8G 9G11
  20384844.179    20384848.142    -4090817.559 9  -1506455.863 8
  23007124.334    23007128.999    10930526.540 7   9677537.477 8
  21389952.687    21389958.649   -12309017.751 9  -8336123.128 8
  20603854.925    20603859.931    -3325867.087 8  -1205174.246 7
 86  6 12  0 33 23.0800000  0  4G 6G 8G 9G11
  20384895.345    20384897.772    -4090550.696 8  -1506247.925 7
  23011095.238    23011100.334    10951393.688 8   9693797.563 8
  21387051.987    21387056.940   -12324267.247 8  -8348005.850 8
  20604534.337    20604539.138    -3322297.542 8  -1202392.777 8
 86  6 12  0 33 29.0800000  0  4G 6G 8G 9G11
  20384949.660    20384953.154    -4090263.988 8  -1506024.512 7
  23015068.909    23015073.610    10972267.888 8   9710063.177 7
  21384152.541    21384158.013   -12339506.337 8  -8359880.467 8
  20605218.069    20605222.774    -3318706.983 7  -1199594.944 8
 86  6 12  0 33 35.0800000  0  4G 6G 8G 9G11
  20385007.882    20385011.696    -4089957.494 8  -1505785.699 8
  23019042.347    23019045.902    10993149.111 8   9726334.253 8
  21381254.016    21381258.455   -12354735.010 8  -8371746.976 9
  20605906.075    20605910.011    -3315095.440 7  -1196780.739 8
 86  6 12  0 33 41.0800000  0  4G 6G 8G 9G11
  20385070.201    20385073.535    -4089631.211 7  -1505531.438 7
  23023016.200    23023020.934    11014037.397 9   9742610.828 8
  21378358.263    21378364.290   -12369953.291 9  -8383605.372 8
  20606596.998    20606602.960    -3311462.899 8  -1193950.208 7
 86  6 12  0 33 47.0800000  0  4G 6G 8G 9G11
  20385136.149    20385140.181    -4089285.152 9  -1505261.794 7
  23026991.586    23026997.369    11034932.663 8   9758892.844 8
  21375463.572    21375469.528   -12385161.203 8  -8395455.694 9
  20607291.518    20607296.830    -3307809.425 7  -1191103.333 7
 86  6 12  0 33 53.0800000  0  4G 6G 8G 9G11
  20385206.175    20385208.476    -4088919.346 8  -1504976.752 7
  23030970.178    23030974.752    11055834.800 8   9775180.231 8
  21372571.711    21372578.785   -12400358.669 8  -8407297.869 8
  20607991.338    20607995.409    -3304135.109 8  -1188240.226 9
 86  6 12  0 33 59.0800000  0  4G 6G 8G 9G11
  20385278.869    20385282.586    -4088533.770 8  -1504676.308 7
  23034949.344    23034954.233    11076743.823 9   9791472.970 8
  21369681.684    21369688.431   -12415545.835 8  -8419132.017 9
  20608694.660    20608699.289    -3300439.867 8  -1185360.826 7
 86  6 12  0 34  5.0800000  0  4G 6G 8G 9G11
  20385356.222    20385357.704    -4088128.426 8  -1504360.454 7
  23038929.806    23038934.550    11097659.721 7   9807771.081 7
  21366793.860    21366799.902   -12430722.469 8  -8430957.970 9
  20609403.195    20609407.529    -3296723.748 8  -1182465.149 8
 86  6 12  0 34 11.0800000  0  4G 6G 8G 9G11
  20385437.612    20385440.291    -4087703.167 7  -1504029.083 7
  23042911.355    23042915.984    11118582.485 7   9824074.522 8
  21363907.236    21363914.082   -12445888.607 8  -8442775.730 8
  20610113.445    20610117.977    -3292986.705 9  -1179553.162 8
 86  6 12  0 34 17.0800000  0  4G 6G 8G 9G11
  20385521.493    20385524.292    -4087258.047 7  -1503682.239 7
  23046894.449    23046899.075    11139512.140 9   9840383.339 8
  21361024.875    21361029.720   -12461044.264 9  -8454585.339 8
  20610828.926    20610832.242    -3289228.740 8  -1176624.887 9
 86  6 12  0 34 23.0800000  0  4G 6G 8G 9G11
  20385609.649    20385612.900    -4086793.039 8  -1503319.894 7
  23050877.498    23050883.951    11160448.672 8   9856697.500 7
  21358142.149    21358147.805   -12476189.325 8  -8466386.680 8
  20611548.849    20611552.648    -3285449.866 8  -1173680.309 9
 86  6 12  0 34 29.0800000  0  4G 6G 8G 9G11
  20385703.265    20385705.686    -4086308.129 8  -1502942.044 7
  23054863.186    23054868.450    11181392.045 7   9873017.021 8
  21355261.618    21355267.682   -12491323.820 8  -8478179.797 9
  20612270.636    20612276.451    -3281650.060 8  -1170719.425 8
 86  6 12  0 34 35.0800000  0  4G 6G 8G 9G11
  20385798.333    20385801.123    -4085803.351 8  -1502548.718 8
  23058850.637    23058854.743    11202342.166 8   9889341.787 8
  21352384.729    21352388.984   -12506447.622 7  -8489964.571 9
  20612997.578    20613003.072    -3277829.467 8  -1167742.340 9
 86  6 12  0 34 41.0800000  0  4G 6G 8G 9G11
  20385898.554    20385902.392    -4085278.637 8  -1502139.858 8
  23062838.170    23062843.501    11223299.004 8   9905671.788 9
  21349508.957    21349513.399   -12521560.948 8  -8501741.196 9
  20613729.063    20613733.250    -3273988.096 8  -1164749.063 8
 86  6 12  0 34 47.0800000  0  4G 6G 8G 9G11
  20386002.476    20386004.662    -4084734.058 8  -1501715.490 8
  23066828.037    23066832.089    11244262.596 8   9922007.052 8
  21346636.351    21346638.993   -12536663.613 8  -8513509.505 9
  20614463.528    20614467.814    -3270125.948 8  -1161739.603 8
 86  6 12  0 34 53.0800000  0  4G 6G 8G 9G11
  20386110.007    20386111.443    -4084169.523 8  -1501275.605 7
  23070818.222    23070823.503    11265232.926 9   9938347.551 8
  21343763.158    21343767.679   -12551755.588 8  -8525269.479 8
  20615203.562    20615207.644    -3266242.951 9  -1158713.885 8
 86  6 12  0 34 59.0800000  0  4G 6G 8G 9G11
  20386221.003    20386223.656    -4083585.040 8  -1500820.169 8
  23074809.053    23074814.824    11286209.930 8   9954693.272 7
  21340893.303    21340897.327   -12566836.932 9  -8537021.169 9
  20615945.001    20615950.949    -3262339.131 7  -1155671.957 7
 86  6 12  0 35  5.0800000  0  4G 6G 8G 9G11
  20386335.915    20386338.656    -4082980.628 8  -1500349.198 8
  23078801.381    23078807.509    11307193.599 8   9971044.187 8
  21338024.768    21338029.479   -12581907.553 9  -8548764.507 9
  20616692.857    20616697.581    -3258414.483 8  -1152613.805 8
 86  6 12  0 35 11.0800000  0  4G 6G 8G 9G11
  20386455.050    20386458.224    -4082356.252 8  -1499862.671 7
  23082797.156    23082802.256    11328183.898 8   9987400.244 8
  21335158.720    21335164.748   -12596967.458 9  -8560499.509 8
  20617443.981    20617447.453    -3254469.079 8  -1149539.444 8
 86  6 12  0 35 17.0800000  0  4G 6G 8G 9G11
  20386576.962    20386580.144    -4081711.921 8  -1499360.599 7
  23086792.118    23086797.497    11349180.801 8  10003761.470 8
  21332295.081    21332300.404   -12612016.597 8  -8572226.106 8
  20618198.632    20618202.945    -3250502.951 9  -1146448.954 8
 86  6 12  0 35 23.0800000  0  4G 6G 8G 9G11
  20386703.249    20386706.603    -4081047.604 8  -1498842.936 8
  23090788.334    23090793.628    11370184.284 8  10020127.796 8
  21329434.243    21329439.041   -12627055.055 9  -8583944.394 8
  20618956.818    20618960.776    -3246516.105 8  -1143342.333 8
 86  6 12  0 35 29.0800000  0  4G 6G 8G 9G11
  20386833.597    20386836.456    -4080363.240 8  -1498309.677 7
  23094786.959    23094792.170    11391194.310 8  10036499.239 7
  21326574.321    21326578.161   -12642082.779 9  -8595654.291 9
  20619720.359    20619723.301    -3242508.547 8  -1140219.564 8
 86  6 12  0 35 35.0800000  0  4G 6G 8G 9G11
  20386966.715    20386970.911    -4079658.906 9  -1497760.844 8
  23098787.040    23098791.857    11412210.858 7  10052875.774 8
  21323718.118    21323721.543   -12657099.631 8  -8607355.737 9
  20620486.145    20620491.327    -3238480.315 8  -1137080.674 8
 86  6 12  0 35 41.0800000  0  4G 6G 8G 9G11
  20387105.211    20387108.387    -4078934.603 8  -1497196.466 8
  23102786.506    23102792.837    11433233.871 8  10069257.336 8
  21320861.634    21320865.186   -12672105.657 8  -8619048.742 8
  20621255.973    20621261.113    -3234431.413 8  -1133925.688 8
 86  6 12  0 35 47.0800000  0  4G 6G 8G 9G11
  20387246.546    20387251.096    -4078190.304 8  -1496616.494 8
  23106787.414    23106794.229    11454263.328 7  10085643.914 8
  21318007.806    21318012.687   -12687100.941 8  -8630733.378 8
  20622030.130    20622035.205    -3230361.908 8  -1130754.647 7
 86  6 12  0 35 53.0800000  0  4G 6G 8G 9G11
  20387392.093    20387395.734    -4077426.043 8  -1496020.971 7
  23110791.603    23110798.203    11475299.177 8  10102035.474 8
  21315156.045    21315160.507   -12702085.357 9  -8642409.545 8
  20622809.611    20622814.118    -3226271.748 8  -1127567.520 8
 86  6 12  0 35 59.0800000  0  4G 6G 8G 9G11
  20387542.374    20387545.179    -4076641.814 7  -1495409.871 8
  23114795.862    23114800.407    11496341.396 7  10118432.010 8
  21312306.479    21312311.295   -12717058.870 9  -8654077.217 8
  20623590.012    20623595.944    -3222161.000 7  -1124364.329 8
 86  6 12  0 36  5.0800000  0  4G 6G 8G 9G11
  20387696.169    20387698.361    -4075837.453 8  -1494783.102 9
  23118801.787    23118806.182    11517390.081 7  10134833.573 8
  21309459.467    21309463.618   -12732021.538 9  -8665736.437 8
  20624376.883    20624382.303    -3218029.560 7  -1121145.028 7
 86  6 12  0 36 11.0800000  0  4G 6G 8G 9G11
  20387851.120    20387856.592    -4075012.963 7  -1494140.662 7
  23122807.152    23122812.675    11538445.257 7  10151240.188 8
  21306616.203    21306618.680   -12746973.147 9  -8677387.034 8
  20625166.694    20625172.870    -3213877.450 8  -1117909.618 8
 86  6 12  0 36 17.0800000  0  4G 6G 8G 9G11
  20388012.336    20388016.489    -4074168.351 8  -1493482.525 8
  23126815.440    23126821.049    11559506.792 7  10167651.766 8
  21303773.105    21303775.525   -12761913.780 8  -8689029.082 9
  20625960.626    20625965.807    -3209704.651 8  -1114658.085 7
 86  6 12  0 36 23.0800000  0  4G 6G 8G 9G11
  20388176.967    20388180.713    -4073303.587 9  -1492808.677 8
  23130824.021    23130831.233    11580574.723 8  10184068.326 8
  21300930.930    21300933.352   -12776843.304 8  -8700662.480 7
  20626758.613    20626763.209    -3205511.224 8  -1111390.482 7
 86  6 12  0 36 29.0800000  0  4G 6G 8G 9G11
  20388345.732    20388348.205    -4072418.638 8  -1492119.116 8
  23134835.599    23134840.828    11601649.026 7  10200489.875 8
  21298092.669    21298094.987   -12791761.791 9  -8712287.268 8
  20627561.226    20627566.895    -3201297.174 8  -1108106.797 8
 86  6 12  0 36 35.0800000  0  4G 6G 8G 9G11
  20388518.152    20388521.208    -4071513.550 8  -1491413.847 8
  23138847.009    23138852.579    11622729.684 7  10216916.346 8
  21295255.844    21295259.914   -12806669.269 9  -8723903.492 8
  20628365.973    20628371.946    -3197062.492 7  -1104807.041 9
 86  6 12  0 36 41.0800000  0  4G 6G 8G 9G11
  20388693.337    20388696.759    -4070588.286 7  -1490692.862 8
  23142859.815    23142865.594    11643816.637 8  10233347.725 8
  21292419.164    21292424.092   -12821565.518 8  -8735510.951 7
  20629176.306    20629182.335    -3192807.167 8  -1101491.206 8
 86  6 12  0 36 47.0800000  0  4G 6G 8G 9G11
  20388874.271    20388878.068    -4069642.747 8  -1489956.090 8
  23146873.703    23146878.431    11664909.998 7  10249784.092 8
  21289587.945    21289591.700   -12836450.637 9  -8747109.744 8
  20629989.787    20629995.308    -3188531.199 8  -1098159.279 8
 86  6 12  0 36 53.0800000  0  4G 6G 8G 9G11
  20389057.880    20389060.722    -4068676.912 8  -1489203.486 8
  23150888.264    23150894.943    11686009.674 7  10266225.411 8
  21286757.615    21286760.695   -12851324.465 9  -8758699.745 7
  20630806.476    20630812.190    -3184234.561 8  -1094811.242 8
 86  6 12  0 36 59.0800000  0  4G 6G 8G 9G11
  20389245.623    20389249.214    -4067690.857 8  -1488435.128 8
  23154905.618    23154910.471    11707115.639 8  10282671.596 9
  21283929.375    21283931.949   -12866187.156 8  -8770281.048 7
  20631629.207    20631633.443    -3179917.325 8  -1091447.172 6
 86  6 12  0 37  5.0800000  0  4G 6G 8G 9G11
  20389436.825    20389441.404    -4066684.594 8  -1487651.043 7
  23158922.323    23158928.586    11728227.784 8  10299122.617 8
  21281102.908    21281106.503   -12881038.605 9  -8781853.616 8
  20632454.550    20632457.955    -3175579.585 7  -1088067.123 7
 86  6 12  0 37 11.0800000  0  4G 6G 8G 9G11
  20389632.042    20389635.826    -4065658.178 9  -1486851.240 7
  23162941.006    23162946.878    11749346.021 8  10315578.379 9
  21278278.845    21278282.480   -12895878.951 9  -8793417.512 7
  20633283.418    20633288.239    -3171221.408 8  -1084671.138 7
 86  6 12  0 37 17.0800000  0  4G 6G 8G 9G11
  20389831.922    20389834.953    -4064611.644 8  -1486035.747 8
  23166962.098    23166966.538    11770470.358 7  10332038.892 8
  21275456.271    21275460.596   -12910708.112 8  -8804972.704 9
  20634116.903    20634121.840    -3166842.801 8  -1081259.231 8
 86  6 12  0 37 23.0800000  0  4G 6G 8G 9G11
  20390034.978    20390038.767    -4063545.036 8  -1485204.641 8
  23170981.881    23170987.388    11791600.630 7  10348504.030 9
  21272637.616    21272639.926   -12925526.240 9  -8816519.293 8
  20634953.856    20634959.581    -3162443.867 8  -1077831.481 8
 86  6 12  0 37 29.0800000  0  4G 6G 8G 9G11
  20390241.208    20390244.590    -4062458.301 7  -1484357.833 7
  23175004.425    23175010.906    11812736.873 7  10364973.821 8
  21269820.077    21269822.527   -12940333.173 8  -8828057.152 8
  20635795.329    20635799.850    -3158024.536 8  -1074387.858 8
 86  6 12  0 37 35.0800000  0  4G 6G 8G 9G11
  20390452.085    20390454.970    -4061351.312 9  -1483495.255 7
  23179027.969    23179032.642    11833879.181 7  10381448.344 9
  21267005.088    21267005.368   -12955128.982 8  -8839586.349 8
  20636640.585    20636644.788    -3153584.854 8  -1070928.368 8
 86  6 12  0 37 41.0800000  0  4G 6G 8G 9G11
  20390666.732    20390669.528    -4060224.094 9  -1482616.893 8
  23183052.655    23183057.376    11855027.494 7  10397927.544 8
  21264191.330    21264193.766   -12969913.434 9  -8851106.714 7
  20637489.120    20637494.486    -3149124.732 7  -1067452.945 7
 86  6 12  0 37 47.0800000  0  4G 6G 8G 9G11
  20390884.300    20390887.897    -4059076.668 8  -1481722.804 8
  23187078.409    23187083.587    11876181.775 8  10414411.392 8
  21261379.800    21261381.556   -12984686.591 8  -8862618.255 8
  20638340.824    20638347.871    -3144644.164 8  -1063961.596 7
 86  6 12  0 37 53.0800000  0  4G 6G 8G 9G11
  20391106.502    20391109.770    -4057908.948 8  -1480812.904 7
  23191102.771    23191109.702    11897342.017 8  10430899.881 9
  21258570.077    21258572.954   -12999448.461 8  -8874120.991 8
  20639198.070    20639201.562    -3140143.224 8  -1060454.367 7
 86  6 12  0 37 59.0800000  0  4G 6G 8G 9G11
  20391332.006    20391336.468    -4056720.976 7  -1479887.200 7
  23195132.685    23195135.893    11918508.206 8  10447393.010 8
  21255763.728    21255765.820   -13014198.951 9  -8885614.889 8
  20640058.602    20640062.868    -3135621.892 8  -1056931.269 8
 86  6 12  0 38  5.0800000  0  4G 6G 8G 9G11
  20391563.669    20391566.582    -4055512.732 8  -1478945.710 7
  23199161.041    23199166.011    11939680.274 7  10463890.721 8
  21252958.873    21252962.080   -13028938.178 8  -8897099.985 8
  20640923.531    20640925.398    -3131080.262 8  -1053392.315 8
 86  6 12  0 38 11.0800000  0  4G 6G 8G 9G11
  20391795.632    20391799.547    -4054284.265 8  -1477988.478 8
  23203190.893    23203195.758    11960858.244 7  10480393.020 8
  21250156.444    21250158.221   -13043665.869 9  -8908576.116 8
  20641790.826    20641794.436    -3126518.312 8  -1049837.554 8
 86  6 12  0 38 17.0800000  0  4G 6G 8G 9G11
  20392035.494    20392036.713    -4053035.472 8  -1477015.399 7
  23207220.680    23207227.977    11982042.072 7  10496899.889 8
  21247356.619    21247358.345   -13058382.285 8  -8920043.443 8
  20642663.215    20642668.085    -3121936.005 8  -1046266.944 8
 86  6 12  0 38 23.0800000  0  4G 6G 8G 9G11
  20392275.368    20392278.253    -4051766.360 8  -1476026.478 7
  23211254.428    23211259.543    12003231.780 8  10513411.346 8
  21244557.540    21244560.190   -13073087.159 8  -8931501.779 8
  20643538.193    20643542.923    -3117333.368 8  -1042680.464 8
 86  6 12  0 38 29.0800000  0  4G 6G 8G 9G11
  20392521.870    20392524.577    -4050476.850 8  -1475021.659 8
  23215288.394    23215293.558    12024427.374 8  10529927.375 8
  21241762.441    21241763.847   -13087780.524 8  -8942951.163 8
  20644419.259    20644423.953    -3112710.370 8  -1039078.139 7
 86  6 12  0 38 35.0800000  0  4G 6G 8G 9G11
  20392770.143    20392773.774    -4049166.950 8  -1474000.961 7
  23219321.242    23219327.393    12045628.782 7  10546447.960 8
  21238967.998    21238969.133   -13102462.374 8  -8954391.546 8
  20645302.467    20645306.614    -3108067.055 9  -1035459.958 7
 86  6 12  0 38 41.0800000  0  4G 6G 8G 9G11
  20393023.538    20393027.116    -4047836.603 8  -1472964.341 7
  23223357.885    23223363.703    12066836.084 7  10562973.120 9
  21236174.787    21236176.708   -13117132.627 8  -8965822.919 7
  20646190.450    20646192.895    -3103403.386 8  -1031825.943 7
 86  6 12  0 38 47.0800000  0  4G 6G 8G 9G11
  20393279.922    20393284.933    -4046485.861 8  -1471911.821 7
  23227394.635    23227399.957    12088049.220 7  10579502.826 9
  21233386.291    21233389.702   -13131791.351 8  -8977245.292 7
  20647081.503    20647085.593    -3098719.382 8  -1028176.060 7
 86  6 12  0 38 53.0800000  0  4G 6G 8G 9G11
  20393541.036    20393544.485    -4045114.725 7  -1470843.384 7
  23231430.689    23231437.012    12109268.166 6  10596037.046 9
  21230599.493    21230601.292   -13146438.313 9  -8988658.515 7
  20647975.981    20647980.996    -3094015.029 8  -1024510.333 8
 86  6 12  0 38 59.0800000  0  4G 6G 8G 9G11
  20393806.191    20393809.222    -4043723.131 8  -1469759.032 7
  23235470.772    23235477.025    12130492.826 7  10612575.730 9
  21227814.324    21227817.644   -13161073.768 8  -9000062.756 7
  20648874.654    20648880.247    -3089290.419 8  -1020828.831 7
 86  6 12  0 39  5.0800000  0  4G 6G 8G 9G11
  20394075.103    20394078.498    -4042311.138 7  -1468658.794 7
  23239511.694    23239516.718    12151723.164 7  10629118.841 9
  21225031.469    21225033.119   -13175697.607 7  -9011457.952 8
  20649778.182    20649783.648    -3084545.620 8  -1017131.579 8
 86  6 12  0 39 11.0800000  0  4G 6G 8G 9G11
  20394347.754    20394351.483    -4040878.774 7  -1467542.671 7
  23243552.409    23243557.067    12172959.202 7  10645666.404 8
  21222249.308    21222252.057   -13190309.792 9  -9022844.071 8
  20650685.694    20650689.665    -3079780.607 8  -1013418.589 7
 86  6 12  0 39 17.0800000  0  4G 6G 8G 9G11
  20394622.725    20394628.909    -4039425.936 8  -1466410.595 8
  23247593.748    23247600.355    12194200.906 7  10662218.367 9
  21219472.264    21219473.412   -13204910.279 8  -9034221.071 8
  20651595.891    20651600.434    -3074995.397 8  -1009689.847 7
 86  6 12  0 39 23.0800000  0  4G 6G 8G 9G11
  20394904.564    20394907.492    -4037952.668 8  -1465262.595 8
  23251637.223    23251644.362    12215448.212 7  10678774.704 8
  21216696.648    21216697.303   -13219499.079 8  -9045588.959 8
  20652509.181    20652514.373    -3070189.979 8  -1005945.377 8
 86  6 12  0 39 29.0800000  0  4G 6G 8G 9G11
  20395186.699    20395191.467    -4036458.975 7  -1464098.665 7
  23255681.565    23255688.470    12236701.185 7  10695335.449 8
  21213922.013    21213925.093   -13234076.190 8  -9056947.732 8
  20653428.052    20653432.987    -3065364.364 8  -1002185.154 8
 86  6 12  0 39 35.0800000  0  4G 6G 8G 9G11
  20395477.027    20395480.758    -4034944.790 8  -1462918.793 7
  23259727.963    23259732.948    12257959.724 6  10711900.542 9
  21211149.495    21211151.714   -13248641.555 8  -9068297.374 8
  20654350.842    20654354.862    -3060518.599 8   -998409.243 8
 86  6 12  0 39 41.0800000  0  4G 6G 8G 9G11
  20395767.941    20395771.418    -4033410.140 8  -1461722.956 8
  23263774.220    23263780.003    12279223.809 6  10728469.948 9
  21208380.752    21208382.672   -13263195.179 8  -9079637.870 8
  20655276.190    20655281.287    -3055652.706 8   -994617.630 8
 86  6 12  0 39 47.0800000  0  4G 6G 8G 9G11
  20396064.791    20396067.813    -4031855.070 8  -1460511.221 8
  23267821.438    23267826.843    12300493.404 7  10745043.638 8
  21205613.640    21205614.575   -13277737.060 8  -9090969.178 8
  20656207.239    20656211.270    -3050766.694 7   -990810.351 8
 86  6 12  0 39 53.0800000  0  4G 6G 8G 9G11
  20396363.781    20396367.024    -4030279.517 8  -1459283.518 7
  23271869.534    23271875.497    12321768.425 7  10761621.572 9
  21202847.502    21202850.506   -13292267.151 8  -9102291.339 7
  20657140.004    20657145.497    -3045860.676 8   -986987.478 7
 86  6 12  0 39 59.0800000  0  4G 6G 8G 9G11
  20396667.735    20396670.860    -4028683.598 7  -1458039.951 8
  23275919.474    23275923.557    12343048.859 7  10778203.720 8
  21200085.681    21200088.677   -13306785.526 9  -9113604.358 8
  20658076.672    20658081.477    -3040934.573 8   -983148.968 8
 86  6 12  0 40  5.0800000  0  4G 6G 8G 9G11
  20396976.075    20396978.645    -4027067.259 8  -1456780.462 7
  23279970.422    23279975.087    12364334.699 7  10794790.077 8
  21197324.724    21197327.575   -13321292.128 8  -9124908.196 8
  20659017.912    20659023.423    -3035988.499 8   -979294.880 8
 86  6 12  0 40 11.0800000  0  4G 6G 8G 9G11
  20397286.192    20397290.459    -4025430.461 8  -1455505.039 7
  23284021.097    23284027.021    12385625.872 8  10811380.584 8
  21194566.480    21194570.420   -13335787.018 8  -9136202.921 7
  20659963.864    20659967.719    -3031022.437 8   -975425.210 8
 86  6 12  0 40 17.0800000  0  4G 6G 8G 9G11
  20397601.979    20397606.910    -4023773.211 8  -1454213.681 8
  23288074.243    23288079.874    12406922.404 7  10827975.286 8
  21191809.903    21191813.731   -13350269.978 8  -9147488.328 7
  20660910.921    20660917.141    -3026036.313 9   -971539.928 9
 86  6 12  0 40 23.0800000  0  4G 6G 8G 9G11
  20397921.412    20397924.774    -4022095.470 8  -1452906.335 7
  23292127.264    23292134.089    12428224.304 8  10844574.154 8
  21189055.982    21189060.552   -13364741.062 7  -9158764.517 7
  20661864.402    20661869.839    -3021030.211 7   -967639.083 7
 86  6 12  0 40 29.0800000  0  4G 6G 8G 9G11
  20398245.592    20398248.242    -4020397.231 9  -1451583.054 7
  23296182.966    23296188.456    12449531.442 8  10861177.113 8
  21186304.187    21186307.251   -13379200.294 8  -9170031.440 8
  20662820.903    20662826.212    -3016004.161 9   -963722.670 8
 86  6 12  0 40 35.0800000  0  4G 6G 8G 9G11
  20398571.738    20398576.220    -4018678.510 8  -1450243.789 7
  23300237.861    23300243.975    12470843.865 8  10877784.196 8
  21183555.041    21183559.694   -13393647.613 8  -9181289.086 9
  20663781.618    20663786.792    -3010958.189 8   -959790.737 8
 86  6 12  0 40 41.0800000  0  4G 6G 8G 9G11
  20398903.016    20398905.314    -4016939.209 7  -1448888.489 6
  23304295.923    23304299.668    12492161.623 7  10894395.427 9
  21180807.737    21180812.073   -13408083.008 8  -9192537.429 8
  20664745.290    20664751.232    -3005892.219 8   -955843.234 8
 86  6 12  0 40 47.0800000  0  4G 6G 8G 9G11
  20399238.077    20399241.592    -4015179.302 7  -1447517.124 8
  23308353.179    23308357.729    12513484.701 7  10911010.804 8
  21178064.892    21178067.853   -13422506.365 9  -9203776.413 8
  20665712.480    20665717.952    -3000806.250 8   -951880.130 8
 86  6 12  0 40 53.0800000  0  4G 6G 8G 9G11
  20399576.776    20399580.056    -4013398.732 8  -1446129.676 8
  23312411.038    23312415.321    12534813.126 8  10927630.342 8
  21175321.302    21175324.311   -13436917.623 8  -9215005.967 8
  20666684.323    20666689.505    -2995700.284 8   -947901.461 8
 86  6 12  0 40 59.0800000  0  4G 6G 8G 9G11
  20399920.386    20399921.553    -4011597.513 9  -1444726.134 7
  23316471.818    23316475.497    12556146.840 8  10944254.016 8
  21172581.156    21172585.646   -13451316.854 8  -9226226.145 8
  20667658.151    20667665.044    -2990574.287 7   -943907.179 8
 86  6 12  0 41  5.0800000  0  4G 6G 8G 9G11
  20400266.883    20400269.009    -4009775.655 8  -1443306.510 7
  23320532.378    23320537.265    12577485.823 8  10960881.785 8
  21169843.855    21169847.511   -13465703.891 8  -9237436.827 9
  20668638.679    20668643.952    -2985428.301 8   -939897.323 8
 86  6 12  0 41 11.0800000  0  4G 6G 8G 9G11
  20400616.285    20400619.561    -4007933.173 8  -1441870.807 6
  23324593.944    23324599.088    12598830.063 8  10977513.649 8
  21167107.912    21167111.991   -13480078.834 9  -9248638.075 9
  20669621.591    20669628.158    -2980262.372 7   -935871.918 8
 86  6 12  0 41 17.0800000  0  4G 6G 8G 9G11
  20400970.946    20400975.299    -4006070.021 8  -1440418.996 7
  23328654.839    23328661.991    12620179.474 8  10994149.561 9
  21164374.226    21164379.020   -13494441.540 8  -9259829.795 8
  20670608.353    20670615.475    -2975076.523 7   -931830.986 7
 86  6 12  0 41 23.0800000  0  4G 6G 8G 9G11
  20401329.661    20401333.104    -4004186.196 9  -1438951.083 8
  23332719.635    23332726.462    12641534.034 9  11010789.465 7
  21161643.634    21161648.414   -13508792.168 9  -9271012.106 8
  20671600.342    20671605.751    -2969870.701 7   -927774.510 9
 86  6 12  0 41 29.0800000  0  4G 6G 8G 9G11
  20401692.264    20401696.443    -4002281.744 8  -1437467.096 7
  23336784.311    23336789.992    12662893.748 8  11027433.384 8
  21158915.925    21158919.422   -13523130.611 9  -9282184.913 7
  20672593.792    20672597.343    -2964644.985 8   -923702.520 7
 86  6 12  0 41 35.0800000  0  4G 6G 8G 9G11
  20402058.488    20402061.750    -4000356.612 8  -1435966.993 8
  23340848.910    23340853.834    12684258.573 8  11044081.288 8
  21156188.796    21156193.992   -13537456.863 8  -9293348.216 8
  20673592.707    20673596.817    -2959399.432 7   -919615.094 8
 86  6 12  0 41 41.0800000  0  4G 6G 8G 9G11
  20402429.717    20402432.393    -3998410.790 8  -1434450.768 7
  23344916.978    23344921.016    12705628.491 8  11060733.171 7
  21153464.806    21153470.294   -13551770.822 8  -9304501.961 7
  20674593.875    20674599.196    -2954133.974 8   -915512.143 8
 86  6 12  0 41 47.0800000  0  4G 6G 8G 9G11
  20402804.675    20402806.618    -3996444.215 7  -1432918.381 7
  23348983.511    23348988.064    12727003.561 8  11077389.070 8
  21150743.973    21150748.897   -13566072.511 8  -9315646.131 8
  20675600.271    20675605.198    -2948848.630 8   -911393.688 8
 86  6 12  0 41 53.0800000  0  4G 6G 8G 9G11
  20403181.096    20403184.329    -3994456.916 8  -1431369.835 8
  23353052.024    23353058.297    12748383.734 7  11094048.933 8
  21148024.974    21148029.012   -13580361.868 8  -9326780.676 8
  20676610.364    20676614.371    -2943543.449 8   -907259.775 8
 86  6 12  0 41 59.0800000  0  4G 6G 8G 9G11
  20403562.836    20403566.974    -3992448.887 8  -1429805.136 7
  23357122.675    23357127.187    12769768.947 7  11110712.730 7
  21145307.427    21145311.993   -13594638.945 8  -9337905.683 8
  20677623.065    20677627.547    -2938218.451 8   -903110.426 7
 86  6 12  0 42  5.0800000  0  4G 6G 8G 9G11
  20403949.013    20403953.162    -3990420.115 8  -1428224.266 7
  23361193.615    23361198.089    12791159.117 8  11127380.393 8
  21142593.315    21142598.485   -13608903.693 9  -9349021.072 8
  20678640.809    20678645.156    -2932873.624 7   -898945.624 8
 86  6 12  0 42 11.0800000  0  4G 6G 8G 9G11
  20404340.455    20404343.042    -3988370.653 8  -1426627.296 7
  23365262.789    23365269.460    12812554.253 8  11144051.914 8
  21139881.179    21139887.020   -13623156.082 8  -9360126.835 8
  20679661.040    20679665.953    -2927509.004 8   -894765.401 8
 86  6 12  0 42 17.0800000  0  4G 6G 8G 9G11
  20404732.876    20404736.173    -3986300.437 8  -1425014.156 7
  23369336.051    23369341.167    12833954.354 7  11160727.321 8
  21137172.245    21137177.073   -13637396.102 8  -9371222.959 8
  20680685.499    20680689.891    -2922124.616 8   -890569.773 7
 86  6 12  0 42 23.0800000  0  4G 6G 8G 9G11
  20405130.634    20405135.193    -3984209.560 8  -1423384.878 7
  23373408.345    23373414.609    12855359.356 9  11177406.529 8
  21134464.173    21134469.077   -13651623.778 8  -9382309.448 8
  20681715.799    20681717.604    -2916720.506 7   -886358.784 7
 86  6 12  0 42 29.0800000  0  4G 6G 8G 9G11
  20405532.877    20405536.583    -3982097.918 9  -1421739.451 7
  23377483.660    23377489.583    12876769.210 8  11194089.530 8
  21131758.819    21131763.774   -13665839.213 9  -9393386.404 8
  20682747.581    20682750.581    -2911296.659 8   -882132.407 8
 86  6 12  0 42 35.0800000  0  4G 6G 8G 9G11
  20405938.359    20405942.352    -3979965.532 8  -1420077.861 7
  23381558.724    23381563.165    12898183.926 7  11210776.301 8
  21129056.535    21129061.295   -13680042.112 8  -9404453.604 8
  20683783.002    20683786.292    -2905853.116 8   -877890.692 9
 86  6 12  0 42 41.0800000  0  4G 6G 8G 9G11
  20406348.338    20406352.482    -3977812.433 8  -1418400.126 8
  23385634.936    23385640.036    12919603.447 8  11227466.847 7
  21126356.103    21126360.985   -13694232.607 9  -9415511.129 8
  20684821.518    20684825.311    -2900389.894 9   -873633.644 8
 86  6 12  0 42 47.0800000  0  4G 6G 8G 9G11
  20406762.217    20406764.392    -3975638.536 8  -1416706.193 7
  23389711.835    23389716.780    12941027.794 8  11244161.130 8
  21123657.612    21123662.339   -13708410.604 8  -9426558.915 9
  20685864.784    20685868.672    -2894907.074 8   -869361.300 7
 86  6 12  0 42 53.0800000  0  4G 6G 8G 9G11
  20407180.168    20407182.735    -3973443.843 8  -1414996.038 7
  23393790.056    23393794.822    12962456.991 8  11260859.208 8
  21120962.390    21120967.645   -13722576.087 8  -9437596.957 8
  20686911.928    20686917.188    -2889404.488 8   -865073.586 7
 86  6 12  0 42 59.0800000  0  4G 6G 8G 9G11
  20407600.401    20407605.091    -3971228.308 7  -1413269.646 8
  23397868.666    23397873.126    12983891.066 8  11277561.077 9
  21118269.315    21118275.341   -13736728.979 8  -9448625.179 9
  20687963.577    20687966.866    -2883882.212 7   -860770.530 8
 86  6 12  0 43  5.0800000  0  4G 6G 8G 9G11
  20408027.341    20408030.772    -3968991.972 9  -1411527.044 7
  23401948.394    23401953.143    13005329.865 9  11294266.617 7
  21115577.873    21115583.125   -13750869.394 8  -9459643.680 8
  20689017.173    20689021.751    -2878340.295 8   -856452.138 7
 86  6 12  0 43 11.0800000  0  4G 6G 8G 9G11
  20408456.045    20408458.927    -3966734.865 8  -1409768.257 8
  23406027.920    23406033.819    13026773.322 8  11310975.805 8
  21112890.746    21112894.788   -13764997.313 7  -9470652.460 9
  20690076.227    20690080.820    -2872778.842 8   -852118.538 8
 86  6 12  0 43 17.0800000  0  4G 6G 8G 9G11
  20408890.028    20408893.588    -3964457.027 8  -1407993.333 7
  23410109.877    23410115.288    13048221.445 7  11327688.623 8
  21110203.366    21110209.706   -13779112.725 8  -9481651.481 9
  20691138.083    20691141.678    -2867197.864 8   -847769.722 7
 86  6 12  0 43 23.0800000  0  4G 6G 8G 9G11
  20409328.021    20409331.129    -3962158.384 8  -1406202.192 8
  23414192.513    23414197.461    13069674.200 8  11344405.051 8
  21107521.107    21107525.102   -13793215.568 8  -9492640.706 8
  20692204.632    20692209.177    -2861597.378 8   -843405.719 7
 86  6 12  0 43 29.0800000  0  4G 6G 8G 9G11
  20409768.203    20409771.904    -3959838.984 9  -1404394.867 7
  23418275.755    23418281.387    13091131.552 8  11361125.049 8
  21104838.678    21104843.863   -13807305.795 9  -9503620.101 8
  20693272.804    20693277.455    -2855977.393 8   -839026.515 7
 86  6 12  0 43 35.0800000  0  4G 6G 8G 9G11
  20410214.052    20410217.772    -3957498.683 9  -1402571.254 8
  23422357.754    23422364.971    13112593.524 9  11377848.664 7
  21102160.740    21102165.165   -13821383.447 9  -9514589.706 8
  20694345.707    20694350.694    -2850337.866 8   -834632.082 7
 86  6 12  0 43 41.0800000  0  4G 6G 8G 9G11
  20410662.966    20410667.974    -3955137.636 8  -1400731.478 8
  23426445.108    23426449.946    13134060.072 7  11394575.847 7
  21099484.263    21099489.479   -13835448.424 9  -9525549.422 8
  20695423.095    20695427.594    -2844678.809 8   -830222.434 8
 86  6 12  0 43 47.0800000  0  4G 6G 8G 9G11
  20411116.721    20411119.337    -3952755.707 8  -1398875.437 7
  23430530.510    23430536.560    13155531.217 8  11411306.593 7
  21096809.587    21096815.202   -13849500.768 8  -9536499.304 8
  20696504.128    20696508.876    -2839000.284 8   -825797.616 7
 86  6 12  0 43 53.0800000  0  4G 6G 8G 9G11
  20411573.917    20411577.792    -3950352.923 8  -1397003.132 7
  23434617.889    23434621.564    13177006.933 8  11428040.917 7
  21094138.203    21094143.431   -13863540.347 8  -9547439.234 8
  20697587.909    20697593.125    -2833302.251 7   -821357.584 7
 86  6 12  0 43 59.0800000  0  4G 6G 8G 9G11
  20412034.999    20412038.577    -3947929.304 9  -1395114.607 8
  23438704.872    23438709.874    13198487.133 7  11444778.732 7
  21091469.683    21091474.112   -13877567.327 8  -9558369.343 8
  20698676.322    20698680.434    -2827584.690 7   -816902.349 8
 86  6 12  0 44  5.0800000  0  4G 6G 8G 9G11
  20412500.414    20412504.736    -3945484.893 8  -1393209.866 7
  23442794.095    23442798.052    13219971.781 8  11461520.000 8
  21088802.993    21088807.233   -13891581.601 9  -9569289.557 8
  20699766.756    20699772.882    -2821847.715 8   -812431.982 8
 86  6 12  0 44 11.0800000  0  4G 6G 8G 9G11
  20412970.185    20412973.127    -3943019.669 8  -1391288.916 8
  23446882.237    23446887.068    13241460.790 8  11478264.689 7
  21086137.907    21086142.662   -13905583.071 8  -9580199.796 8
  20700862.585    20700868.514    -2816091.402 8   -807946.541 7
 86  6 12  0 44 17.0800000  0  4G 6G 8G 9G11
  20413443.419    20413445.823    -3940533.580 8  -1389351.707 8
  23450973.013    23450977.348    13262954.245 7  11495012.829 7
  21083476.023    21083480.017   -13919571.849 8  -9591100.146 8
  20701962.047    20701967.357    -2810315.685 8   -803445.983 8
 86  6 12  0 44 23.0800000  0  4G 6G 8G 9G11
  20413920.204    20413923.246    -3938026.650 8  -1387398.262 8
  23455062.771    23455067.753    13284452.089 9  11511764.388 8
  21080816.258    21080820.788   -13933547.849 8  -9601990.524 8
  20703064.143    20703070.715    -2804520.539 8   -798930.280 7
 86  6 12  0 44 29.0800000  0  4G 6G 8G 9G11
  20414400.452    20414404.230    -3935498.833 8  -1385428.543 8
  23459153.995    23459160.663    13305954.318 7  11528519.375 8
  21078160.701    21078164.351   -13947511.041 9  -9612870.938 9
  20704170.406    20704177.027    -2798706.066 7   -794399.525 7
 86  6 12  0 44 35.0800000  0  4G 6G 8G 9G11
  20414886.581    20414889.014    -3932950.164 8  -1383442.562 7
  23463247.101    23463252.588    13327460.869 7  11545277.706 7
  21075505.174    21075510.158   -13961461.388 9  -9623741.342 8
  20705281.025    20705285.703    -2792872.255 7   -789853.708 7
 86  6 12  0 44 41.0800000  0  4G 6G 8G 9G11
  20415374.914    20415378.542    -3930380.569 8  -1381440.282 8
  23467340.077    23467346.099    13348971.776 8  11562039.451 8
  21072853.219    21072857.417   -13975398.912 8  -9634601.746 9
  20706394.300    20706398.820    -2787019.078 8   -785292.787 7
 86  6 12  0 44 47.0800000  0  4G 6G 8G 9G11
  20415868.297    20415871.282    -3927789.929 7  -1379421.600 8
  23471434.379    23471440.081    13370487.101 8  11578804.635 7
  21070203.500    21070208.065   -13989323.414 8  -9645452.008 8
  20707512.555    20707517.205    -2781146.457 8   -780716.730 8
 86  6 12  0 44 53.0800000  0  4G 6G 8G 9G11
  20416364.340    20416368.584    -3925178.252 8  -1377386.537 8
  23475530.179    23475535.325    13392006.905 8  11595573.302 7
  21067556.500    21067560.655   -14003234.860 8  -9656292.098 9
  20708633.730    20708638.036    -2775254.387 8   -776125.512 7
 86  6 12  0 44 59.0800000  0  4G 6G 8G 9G11
  20416865.356    20416869.377    -3922545.504 7  -1375335.024 7
  23479626.817    23479631.485    13413531.094 8  11612345.380 8
  21064911.820    21064915.250   -14017133.270 9  -9667122.014 8
  20709759.349    20709762.742    -2769342.912 8   -771519.156 7
 86  6 12  0 45  5.0800000  0  4G 6G 8G 9G11
  20417371.312    20417374.463    -3919891.684 8  -1373267.123 7
  23483723.279    23483727.774    13435059.692 8  11629120.914 8
  21062270.078    21062273.508   -14031018.564 9  -9677941.737 8
  20710887.552    20710891.554    -2763412.009 7   -766897.670 8
 86  6 12  0 45 11.0800000  0  4G 6G 8G 9G11
  20417878.968    20417882.731    -3917216.719 8  -1371182.745 8
  23487821.438    23487825.750    13456592.667 8  11645899.858 8
  21059628.435    21059632.943   -14044890.776 8  -9688751.243 8
  20712018.703    20712024.750    -2757461.654 7   -762261.056 6
 86  6 12  0 45 17.0800000  0  4G 6G 8G 9G11
  20418392.994    20418395.693    -3914520.723 8  -1369081.970 7
  23491918.754    23491924.241    13478129.950 7  11662682.149 8
  21056992.823    21056996.075   -14058749.818 8  -9699550.499 8
  20713155.521    20713160.193    -2751491.952 7   -757609.320 8
 86  6 12  0 45 23.0800000  0  4G 6G 8G 9G11
  20418909.942    20418912.661    -3911803.652 8  -1366964.775 8
  23496016.722    23496023.107    13499671.468 8  11679467.750 8
  21054356.125    21054361.969   -14072595.737 9  -9710339.532 8
  20714295.229    20714300.783    -2745502.928 7   -752942.550 7
 86  6 12  0 45 29.0800000  0  4G 6G 8G 9G11
  20419430.250    20419434.203    -3909065.500 8  -1364831.157 8
  23500117.495    23500122.825    13521217.299 7  11696256.697 7
  21051724.403    21051730.413   -14086428.499 8  -9721118.301 7
  20715438.437    20715443.540    -2739494.595 8   -748260.732 8
 86  6 12  0 45 35.0800000  0  4G 6G 8G 9G11
  20419955.941    20419959.567    -3906306.315 8  -1362681.143 8
  23504219.661    23504224.617    13542767.353 7  11713048.930 8
  21049094.204    21049099.088   -14100248.177 8  -9731886.887 9
  20716584.444    20716590.023    -2733467.004 8   -743563.906 8
 86  6 12  0 45 41.0800000  0  4G 6G 8G 9G11
  20420483.873    20420488.641    -3903526.081 8  -1360514.723 7
  23508321.454    23508325.793    13564321.578 7  11729844.427 7
  21046467.693    21046471.780   -14114054.708 9  -9742645.216 8
  20717734.605    20717740.761    -2727420.263 7   -738852.164 7
 86  6 12  0 45 47.0800000  0  4G 6G 8G 9G11
  20421016.937    20421021.080    -3900724.800 9  -1358331.915 8
  23512423.925    23512427.344    13585879.872 7  11746643.098 8
  21043843.416    21043846.885   -14127848.059 8  -9753393.281 7
  20718889.998    20718895.710    -2721354.363 7   -734125.486 8
 86  6 12  0 45 53.0800000  0  4G 6G 8G 9G11
  20421555.354    20421558.848    -3897902.632 8  -1356132.829 7
  23516526.301    23516531.399    13607442.178 8  11763444.876 8
  21041220.659    21041224.805   -14141628.320 8  -9764131.145 8
  20720048.595    20720053.490    -2715269.318 7   -729383.905 8
 86  6 12  0 45 59.0800000  0  4G 6G 8G 9G11
  20422095.114    20422100.486    -3895059.552 9  -1353917.446 7
  23520631.150    23520634.574    13629008.452 7  11780249.778 8
  21038600.582    21038605.026   -14155395.528 8  -9774858.845 8
  20721208.967    20721215.028    -2709165.225 8   -724627.446 8
 86  6 12  0 46  5.0800000  0  4G 6G 8G 9G11
  20422640.039    20422644.544    -3892195.507 8  -1351685.710 7
  23524734.858    23524739.987    13650578.651 7  11797057.703 8
  21035982.034    21035986.973   -14169149.629 8  -9785576.314 8
  20722375.856    20722381.072    -2703042.092 6   -719856.194 8
 86  6 12  0 46 11.0800000  0  4G 6G 8G 9G11
  20423189.561    20423193.588    -3889310.509 7  -1349437.670 8
  23528840.441    23528844.842    13672152.758 8  11813868.698 8
  21033368.423    21033371.680   -14182890.654 8  -9796283.603 8
  20723544.398    20723549.328    -2696899.918 7   -715070.075 8
 86  6 12  0 46 17.0800000  0  4G 6G 8G 9G11
  20423741.661    20423746.850    -3886404.477 7  -1347173.241 8
  23532947.059    23532952.001    13693730.882 7  11830682.806 8
  21030754.826    21030759.852   -14196618.452 8  -9806980.580 7
  20724716.070    20724721.368    -2690738.668 8   -710269.111 7
 86  6 12  0 46 23.0800000  0  4G 6G 8G 9G11
  20424300.100    20424304.136    -3883477.351 8  -1344892.358 7
  23537054.070    23537058.609    13715312.911 7  11847499.955 7
  21028146.143    21028149.557   -14210332.914 8  -9817667.187 8
  20725892.718    20725898.574    -2684558.298 8   -705453.238 8
 86  6 12  0 46 29.0800000  0  4G 6G 8G 9G11
  20424860.992    20424864.260    -3880529.198 8  -1342595.108 8
  23541160.732    23541165.212    13736898.842 7  11864320.163 7
  21025539.581    21025542.389   -14224034.144 8  -9828343.457 8
  20727071.511    20727078.052    -2678358.883 7   -700622.540 8
 86  6 12  0 46 35.0800000  0  4G 6G 8G 9G11
  20425424.857    20425429.359    -3877559.877 8  -1340281.347 8
  23545269.143    23545274.031    13758488.788 7  11881143.502 8
  21022934.765    21022938.502   -14237721.996 8  -9839009.318 8
  20728255.568    20728260.865    -2672140.380 8   -695776.943 7
 86  6 12  0 46 41.0800000  0  4G 6G 8G 9G11
  20425994.518    20425998.344    -3874569.379 8  -1337951.094 7
  23549376.810    23549384.412    13780082.784 7  11897969.969 8
  21020331.893    21020336.663   -14251396.307 8  -9849664.625 8
  20729442.127    20729449.096    -2665902.726 8   -690916.433 7
 86  6 12  0 46 47.0800000  0  4G 6G 8G 9G11
  20426567.518    20426570.780    -3871557.689 8  -1335604.320 8
  23553488.999    23553494.134    13801680.776 7  11914799.559 8
  21017731.933    21017738.198   -14265057.234 8  -9860309.509 9
  20730633.426    20730638.723    -2659645.958 8   -686041.032 7
 86  6 12  0 46 53.0800000  0  4G 6G 8G 9G11
  20427145.698    20427149.049    -3868524.820 8  -1333241.059 8
  23557598.512    23557604.062    13823282.634 8  11931632.168 8
  21015135.565    21015139.746   -14278704.776 8  -9870943.952 8
  20731828.049    20731832.801    -2653370.160 7   -681150.796 7
 86  6 12  0 46 59.0800000  0  4G 6G 8G 9G11
  20427726.969    20427730.391    -3865470.778 8  -1330861.281 8
  23561712.037    23561715.918    13844888.407 7  11948467.825 8
  21012540.852    21012544.889   -14292338.722 8  -9881567.814 7
  20733025.766    20733030.335    -2647075.256 7   -676245.681 8
 86  6 12  0 47  5.0800000  0  4G 6G 8G 9G11
  20428312.132    20428316.015    -3862395.576 8  -1328465.030 7
  23565820.914    23565827.860    13866498.058 7  11965306.508 8
  21009949.598    21009953.196   -14305959.178 8  -9892181.141 8
  20734226.867    20734232.369    -2640761.320 8   -671325.724 8
 86  6 12  0 47 11.0800000  0  4G 6G 8G 9G11
  20428901.799    20428904.472    -3859299.127 8  -1326052.212 8
  23569934.585    23569940.847    13888111.571 7  11982148.191 8
  21007361.124    21007364.303   -14319566.124 9  -9902783.953 8
  20735433.262    20735436.872    -2634428.319 8   -666390.925 8
 86  6 12  0 47 17.0800000  0  4G 6G 8G 9G11
  20429494.643    20429498.298    -3856181.502 8  -1323622.910 7
  23574049.374    23574054.318    13909728.930 7  11998992.880 8
  21004772.449    21004776.856   -14333159.605 8  -9913376.267 8
  20736640.724    20736645.388    -2628076.332 8   -661441.322 8
 86  6 12  0 47 23.0800000  0  4G 6G 8G 9G11
  20430091.706    20430095.100    -3853042.632 9  -1321177.035 6
  23578164.259    23578168.497    13931350.108 6  12015840.526 8
  21002188.493    21002192.646   -14346739.462 8  -9923957.982 8
  20737854.084    20737858.993    -2621705.368 8   -656476.926 7
 86  6 12  0 47 29.0800000  0  4G 6G 8G 9G11
  20430691.836    20430697.002    -3849882.604 8  -1318714.677 7
  23582278.759    23582284.347    13952975.001 7  12032691.109 9
  20999606.513    20999610.391   -14360305.732 9  -9934529.101 9
  20739068.895    20739074.333    -2615315.468 8   -651497.796 7
 86  6 12  0 47 35.0800000  0  4G 6G 8G 9G11
  20431298.165    20431302.607    -3846701.431 7  -1316235.841 7
  23586395.230    23586399.426    13974603.606 7  12049544.532 8
  20997026.995    20997032.523   -14373858.523 8  -9945089.705 7
  20740290.596    20740293.342    -2608906.722 8   -646503.965 7
 86  6 12  0 47 41.0800000  0  4G 6G 8G 9G11
  20431907.934    20431911.537    -3843499.158 8  -1313740.557 7
  23590510.541    23590515.530    13996235.781 7  12066400.765 8
  20994450.455    20994455.576   -14387397.723 7  -9955639.736 9
  20741511.810    20741517.721    -2602479.121 8   -641495.453 7
 86  6 12  0 47 47.0800000  0  4G 6G 8G 9G11
  20432521.058    20432524.154    -3840275.783 8  -1311228.837 7
  23594629.888    23594633.377    14017871.537 7  12083259.789 9
  20991875.885    20991881.557   -14400923.473 8  -9966179.279 9
  20742738.602    20742743.279    -2596032.751 7   -636472.303 8
 86  6 12  0 47 53.0800000  0  4G 6G 8G 9G11
  20433138.453    20433142.815    -3837031.322 8  -1308700.692 7
  23598747.221    23598750.774    14039510.866 7  12100121.604 9
  20989305.923    20989310.309   -14414435.631 7  -9976708.228 8
  20743968.859    20743973.881    -2589567.653 8   -631434.563 7
 86  6 12  0 47 59.0800000  0  4G 6G 8G 9G11
  20433760.262    20433763.204    -3833765.716 8  -1306156.056 8
  23602865.576    23602870.583    14061153.737 8  12116986.166 9
  20986736.794    20986740.864   -14427934.224 7  -9987226.616 9
  20745203.493    20745206.051    -2583083.739 8   -626382.157 7
 86  6 12  0 48  5.0800000  0  4G 6G 8G 9G11
  20434385.946    20434387.852    -3830478.969 7  -1303594.958 7
  23606984.899    23606989.070    14082800.168 8  12133853.503 8
  20984171.702    20984174.195   -14441419.194 8  -9997734.378 8
  20746441.134    20746444.490    -2576581.068 8   -621315.162 7
 86  6 12  0 48 11.0800000  0  4G 6G 8G 9G11
  20435014.425    20435019.957    -3827170.967 8  -1301017.304 8
  23611105.787    23611108.343    14104450.110 7  12150723.579 8
  20981608.151    20981610.572   -14454890.576 9 -10008231.562 8
  20747681.476    20747685.027    -2570059.591 8   -616233.493 7
 86  6 12  0 48 17.0800000  0  4G 6G 8G 9G11
  20435648.998    20435650.816    -3823841.823 8  -1298423.173 8
  23615223.662    23615229.318    14126103.524 7  12167596.364 8
  20979046.346    20979050.444   -14468348.187 8 -10018718.007 8
  20748926.070    20748929.449    -2563519.408 7   -611137.248 7
 86  6 12  0 48 23.0800000  0  4G 6G 8G 9G11
  20436285.205    20436289.835    -3820491.502 8  -1295812.525 6
  23619345.163    23619350.667    14147760.500 7  12184471.905 7
  20976487.720    20976491.385   -14481792.125 8 -10029193.794 9
  20750172.956    20750177.806    -2556960.431 8   -606026.345 7
 86  6 12  0 48 29.0800000  0  4G 6G 8G 9G11
  20436927.490    20436929.307    -3817119.888 9  -1293185.290 8
  23623468.475    23623472.893    14169421.011 7  12201350.232 8
  20973932.926    20973936.122   -14495222.185 9 -10039658.770 8
  20751426.185    20751428.735    -2550382.653 8   -600900.820 7
 86  6 12  0 48 35.0800000  0  4G 6G 8G 9G11
  20437574.374    20437575.997    -3813726.975 8  -1290541.469 8
  23627589.700    23627595.132    14191085.079 8  12218231.302 8
  20971379.995    20971383.118   -14508638.444 8 -10050112.999 8
  20752681.364    20752685.919    -2543786.094 7   -595760.635 7
 86  6 12  0 48 41.0800000  0  4G 6G 8G 9G11
  20438222.964    20438226.499    -3810312.694 8  -1287880.978 7
  23631712.417    23631719.296    14212752.657 7  12235115.130 8
  20968829.813    20968832.265   -14522040.824 8 -10060556.415 8
  20753939.748    20753942.741    -2537170.685 7   -590605.781 7
 86  6 12  0 48 47.0800000  0  4G 6G 8G 9G11
  20438876.946    20438879.278    -3806877.128 8  -1285203.931 7
  23635837.801    23635842.513    14234423.752 7  12252001.671 8
  20966280.860    20966285.169   -14535429.162 7 -10070988.886 8
  20755202.579    20755205.625    -2530536.562 8   -585436.325 7
 86  6 12  0 48 53.0800000  0  4G 6G 8G 9G11
  20439534.619    20439537.930    -3803420.201 9  -1282510.211 6
  23639961.686    23639966.305    14256098.317 8  12268890.935 8
  20963736.307    20963740.410   -14548803.780 8 -10081410.652 7
  20756468.162    20756472.010    -2523883.694 7   -580252.272 7
 86  6 12  0 48 59.0800000  0  4G 6G 8G 9G11
  20440198.036    20440199.358    -3799941.979 9  -1279799.910 8
  23644086.453    23644091.830    14277776.294 7  12285782.855 8
  20961193.656    20961198.124   -14562164.399 8 -10091821.524 7
  20757737.524    20757741.477    -2517212.065 8   -575053.604 8
 86  6 12  0 49  5.0800000  0  4G 6G 8G 9G11
  20440863.537    20440865.663    -3796442.422 8  -1277072.989 7
  23648211.872    23648218.572    14299457.706 7  12302677.452 9
  20958654.174    20958658.325   -14575511.058 8 -10102221.528 7
  20759009.945    20759015.035    -2510521.780 7   -569840.390 7
 86  6 12  0 49 11.0800000  0  4G 6G 8G 9G11
  20441532.423    20441535.905    -3792921.528 8  -1274329.450 8
  23652338.395    23652344.430    14321142.493 8  12319574.681 8
  20956117.291    20956120.404   -14588843.760 8 -10112610.646 7
  20760287.792    20760291.779    -2503812.835 8   -564612.650 8
 86  6 12  0 49 17.0800000  0  4G 6G 8G 9G11
  20442206.300    20442210.029    -3789379.287 7  -1271569.262 9
  23656467.218    23656471.674    14342830.668 8  12336474.548 8
  20953583.191    20953587.118   -14602162.469 8 -10122988.852 7
  20761567.590    20761572.218    -2497085.187 8   -559370.330 7
 86  6 12  0 49 23.0800000  0  4G 6G 8G 9G11
  20442885.174    20442888.142    -3785815.697 8  -1268792.425 7
  23660593.674    23660599.419    14364522.246 7  12353377.074 7
  20951051.181    20951054.431   -14615467.078 9 -10133356.074 7
  20762851.104    20762856.289    -2490338.850 9   -554113.455 7
 86  6 12  0 49 29.0800000  0  4G 6G 8G 9G11
  20443567.121    20443571.434    -3782230.702 8  -1265998.929 8
  23664722.245    23664727.802    14386217.145 7  12370282.173 9
  20948521.974    20948525.452   -14628757.687 9 -10143712.393 7
  20764137.595    20764144.421    -2483573.904 8   -548842.056 7
 86  6 12  0 49 35.0800000  0  4G 6G 8G 9G11
  20444253.072    20444256.833    -3778624.434 8  -1263188.858 7
  23668851.636    23668856.884    14407915.247 8  12387189.784 8
  20945995.798    20945998.289   -14642034.282 8 -10154057.793 7
  20765429.305    20765433.676    -2476790.421 8   -543556.236 7
 86  6 12  0 49 41.0800000  0  4G 6G 8G 9G11
  20444943.308    20444947.549    -3774996.872 7  -1260362.184 8
  23672981.915    23672985.406    14429616.572 7  12404099.894 7
  20943472.658    20943475.780   -14655296.878 8 -10164392.280 8
  20766722.933    20766728.159    -2469988.363 7   -538255.936 7
 86  6 12  0 49 47.0800000  0  4G 6G 8G 9G11
  20445637.541    20445641.739    -3771347.898 9  -1257518.830 7
  23677111.554    23677116.340    14451321.149 7  12421012.545 8
  20940950.751    20940954.260   -14668545.356 8 -10174715.765 7
  20768021.728    20768026.730    -2463167.752 8   -532941.168 7
 86  6 12  0 49 53.0800000  0  4G 6G 8G 9G11
  20446336.222    20446340.016    -3767677.516 8  -1254658.809 7
  23681242.630    23681247.487    14473029.012 8  12437927.745 9
  20938432.703    20938435.709   -14681779.666 8 -10185028.222 8
  20769322.706    20769328.139    -2456328.561 7   -527611.936 8
 86  6 12  0 49 59.0800000  0  4G 6G 8G 9G11
  20447038.268    20447042.077    -3763985.760 9  -1251782.100 8
  23685374.454    23685379.043    14494740.107 8  12454845.484 8
  20935916.683    20935918.736   -14694999.834 8 -10195329.632 8
  20770628.563    20770633.230    -2449470.801 7   -522268.228 7
 86  6 12  0 50  5.0800000  0  4G 6G 8G 9G11
  20447746.126    20447748.476    -3760272.573 9  -1248888.734 8
  23689504.729    23689510.433    14516454.402 8  12471765.709 8
  20933404.448    20933407.631   -14708205.771 8 -10205619.987 7
  20771936.403    20771942.537    -2442594.542 7   -516910.104 7
 86  6 12  0 50 11.0800000  0  4G 6G 8G 9G11
  20448454.806    20448459.545    -3756538.002 8  -1245978.667 8
  23693638.515    23693643.732    14538171.875 7  12488688.407 8
  20930892.847    20930896.326   -14721397.538 9 -10215899.264 8
  20773247.796    20773253.621    -2435699.806 8   -511537.586 8
 86  6 12  0 50 17.0800000  0  4G 6G 8G 9G11
  20449169.539    20449174.107    -3752782.102 7  -1243051.996 7
  23697772.663    23697776.274    14559892.370 7  12505613.460 9
  20928386.989    20928388.578   -14734575.113 8 -10226167.513 8
  20774565.136    20774569.346    -2428786.647 8   -506150.700 8
 86  6 12  0 50 23.0800000  0  4G 6G 8G 9G11
  20449889.000    20449892.794    -3749004.885 8  -1240108.714 7
  23701905.494    23701909.570    14581615.857 8  12522540.860 9
  20925882.653    20925884.644   -14747738.653 8 -10236424.817 8
  20775883.492    20775887.381    -2421855.147 8   -500749.530 8
 86  6 12  0 50 29.0800000  0  4G 6G 8G 9G11
  20450611.985    20450615.637    -3745206.416 8  -1237148.880 7
  23706040.098    23706045.780    14603342.291 8  12539470.525 8
  20923379.029    20923381.656   -14760887.985 9 -10246671.043 8
  20777205.852    20777211.230    -2414905.328 7   -495334.087 7
 86  6 12  0 50 35.0800000  0  4G 6G 8G 9G11
  20451338.964    20451342.304    -3741386.694 8  -1234172.467 8
  23710176.297    23710179.237    14625071.665 8  12556402.499 9
  20920879.017    20920882.834   -14774023.238 8 -10256906.297 7
  20778530.469    20778536.369    -2407937.263 7   -489904.417 8
 86  6 12  0 50 41.0800000  0  4G 6G 8G 9G11
  20452070.149    20452073.922    -3737545.572 8  -1231179.382 8
  23714310.840    23714315.707    14646804.032 9  12573336.809 8
  20918382.343    20918386.081   -14787144.215 8 -10267130.432 8
  20779861.197    20779866.746    -2400950.808 7   -484460.439 7
 86  6 12  0 50 47.0800000  0  4G 6G 8G 9G11
  20452805.302    20452808.241    -3733683.150 8  -1228169.717 7
  23718447.239    23718451.262    14668539.337 8  12590273.412 7
  20915888.511    20915892.832   -14800250.924 8 -10277343.441 8
  20781194.519    20781198.601    -2393946.102 8   -479002.225 7
 86  6 12  0 50 53.0800000  0  4G 6G 8G 9G11
  20453544.995    20453547.637    -3729799.359 8  -1225143.388 8
  23722584.300    23722587.934    14690277.538 8  12607212.250 7
  20913396.993    20913400.874   -14813343.478 8 -10287545.434 8
  20782530.666    20782537.993    -2386923.141 7   -473529.795 7
 86  6 12  0 50 59.0800000  0  4G 6G 8G 9G11
  20454287.390    20454291.675    -3725894.185 7  -1222100.387 8
  23726719.892    23726724.477    14712018.667 9  12624153.392 7
  20910908.569    20910911.060   -14826421.666 9 -10297736.230 8
  20783870.041    20783874.751    -2379881.905 8   -468043.131 7
 86  6 12  0 51  5.0800000  0  4G 6G 8G 9G11
  20455034.219    20455038.408    -3721967.562 8  -1219040.682 7
  23730857.595    23730863.770    14733762.735 8  12641096.812 8
  20908422.743    20908425.613   -14839485.418 9 -10307915.780 7
  20785214.985    20785218.269    -2372822.278 7   -462542.121 7
 86  6 12  0 51 11.0800000  0  4G 6G 8G 9G11
  20455785.886    20455788.519    -3718019.458 8  -1215964.244 8
  23734997.454    23735000.802    14755509.778 9  12658042.554 8
  20905938.925    20905941.492   -14852534.738 8 -10318084.079 7
  20786560.365    20786565.962    -2365744.351 8   -457026.836 7
 86  6 12  0 51 17.0800000  0  4G 6G 8G 9G11
  20456541.403    20456544.331    -3714049.875 8  -1212871.070 7
  23739136.477    23739140.477    14777259.727 7  12674990.556 8
  20903458.998    20903462.800   -14865569.687 8 -10328241.173 8
  20787910.645    20787916.495    -2358648.112 8   -451497.300 7
 86  6 12  0 51 23.0800000  0  4G 6G 8G 9G11
  20457301.988    20457303.656    -3710058.815 8  -1209761.159 8
  23743274.667    23743280.600    14799012.570 9  12691940.822 8
  20900980.930    20900984.044   -14878590.153 8 -10338386.986 8
  20789263.997    20789270.474    -2351533.567 8   -445953.508 8
 86  6 12  0 51 29.0800000  0  4G 6G 8G 9G11
  20458064.296    20458069.129    -3706046.314 7  -1206634.526 8
  23747414.723    23747419.698    14820768.275 8  12708893.329 7
  20898506.646    20898509.738   -14891596.113 7 -10348521.500 8
  20790622.304    20790627.417    -2344400.795 8   -440395.519 8
 86  6 12  0 51 35.0800000  0  4G 6G 8G 9G11
  20458831.706    20458835.873    -3702012.261 8  -1203491.117 8
  23751555.117    23751560.021    14842526.849 9  12725848.047 7
  20896034.471    20896037.011   -14904587.508 8 -10358644.656 8
  20791983.760    20791987.957    -2337249.717 8   -434823.230 8
 86  6 12  0 51 41.0800000  0  4G 6G 8G 9G11
  20459603.504    20459607.390    -3697956.741 8  -1200330.981 8
  23755696.477    23755701.497    14864288.236 8  12742804.964 7
  20893565.905    20893567.197   -14917564.389 8 -10368756.513 8
  20793347.328    20793351.601    -2330080.386 8   -429236.734 8
 86  6 12  0 51 47.0800000  0  4G 6G 8G 9G11
  20460378.894    20460383.092    -3693879.762 8  -1197154.106 9
  23759838.523    23759843.995    14886052.415 9  12759764.069 7
  20891098.372    20891101.067   -14930526.765 9 -10378857.069 9
  20794715.778    20794721.273    -2322892.818 9   -423636.038 7
 86  6 12  0 51 53.0800000  0  4G 6G 8G 9G11
  20461158.401    20461162.439    -3689781.272 9  -1193960.482 7
  23763980.990    23763985.023    14907819.406 8  12776725.351 8
  20888635.100    20888637.996   -14943474.511 8 -10388946.211 7
  20796086.331    20796091.497    -2315687.049 7   -418021.152 7
 86  6 12  0 51 59.0800000  0  4G 6G 8G 9G11
  20461942.676    20461946.583    -3685661.252 8  -1190750.081 8
  23768123.015    23768126.798    14929589.145 8  12793688.768 9
  20886173.114    20886175.741   -14956407.739 7 -10399024.059 8
  20797460.929    20797465.236    -2308463.136 7   -412392.126 7
 86  6 12  0 52  5.0800000  0  4G 6G 8G 9G11
  20462731.242    20462735.546    -3681519.748 8  -1187522.934 7
  23772266.051    23772271.354    14951361.576 9  12810654.307 7
  20883715.999    20883717.764   -14969326.206 8 -10409090.393 9
  20798838.415    20798843.358    -2301221.023 9   -406748.926 8
 86  6 12  0 52 11.0800000  0  4G 6G 8G 9G11
  20463523.058    20463527.657    -3677356.748 8  -1184279.055 7
  23776410.340    23776415.439    14973136.680 8  12827621.910 7
  20881258.401    20881262.909   -14982230.099 8 -10419145.372 8
  20800220.391    20800226.202    -2293960.837 9   -401091.635 8
 86  6 12  0 52 17.0800000  0  4G 6G 8G 9G11
  20464319.728    20464322.756    -3673172.324 7  -1181018.462 7
  23780554.001    23780559.147    14994914.429 9  12844591.593 7
  20878806.660    20878809.324   -14995119.451 9 -10429189.024 9
  20801605.929    20801611.352    -2286682.573 7   -395420.276 7
 86  6 12  0 52 23.0800000  0  4G 6G 8G 9G11
  20465119.875    20465123.796    -3668966.405 9  -1177741.121 7
  23784698.866    23784702.779    15016694.742 8  12861563.265 8
  20876356.068    20876360.391   -15007994.122 8 -10439221.238 8
  20802994.829    20802998.613    -2279386.313 8   -389734.858 7
 86  6 12  0 52 29.0800000  0  4G 6G 8G 9G11
  20465924.724    20465929.128    -3664738.979 8  -1174447.031 8
  23788843.329    23788850.140    15038477.734 8  12878537.013 8
  20873908.825    20873912.542   -15020854.102 9 -10449242.002 8
  20804386.369    20804391.419    -2272071.934 8   -384035.353 7
 86  6 12  0 52 35.0800000  0  4G 6G 8G 9G11
  20466733.897    20466737.587    -3660489.969 8  -1171136.109 7
  23792988.381    23792991.846    15060263.370 8  12895512.832 7
  20871464.411    20871468.122   -15033699.321 7 -10459251.251 8
  20805782.023    20805785.617    -2264739.458 9   -378321.730 8
 86  6 12  0 52 41.0800000  0  4G 6G 8G 9G11
  20467545.461    20467549.192    -3656219.367 9  -1167808.377 7
  23797135.344    23797141.073    15082051.663 8  12912490.715 8
  20869022.235    20869027.360   -15046529.756 9 -10469249.001 8
  20807180.851    20807184.446    -2257388.797 8   -372593.939 8
 86  6 12  0 52 47.0800000  0  4G 6G 8G 9G11
  20468363.468    20468366.310    -3651927.136 8  -1164463.788 8
  23801281.706    23801288.104    15103842.635 9  12929470.697 8
  20866583.146    20866588.329   -15059345.287 8 -10479235.130 8
  20808582.925    20808587.656    -2250020.009 8   -366852.041 7
 86  6 12  0 52 53.0800000  0  4G 6G 8G 9G11
  20469184.261    20469186.691    -3647613.309 8  -1161102.353 8
  23805429.235    23805434.637    15125636.171 9  12946452.669 8
  20864147.237    20864152.089   -15072146.000 8 -10489209.697 7
  20809988.352    20809993.764    -2242633.153 8   -361096.040 7
 86  6 12  0 52 59.0800000  0  4G 6G 8G 9G11
  20470009.504    20470011.272    -3643277.924 9  -1157724.137 9
  23809577.139    23809582.450    15147432.255 8  12963436.636 7
  20861715.929    20861719.267   -15084931.868 9 -10499172.723 9
  20811397.790    20811401.348    -2235228.311 8   -355326.038 7
 86  6 12  0 53  5.0800000  0  4G 6G 8G 9G11
  20470838.578    20470840.862    -3638920.936 8  -1154329.081 8
  23813725.501    23813729.699    15169230.884 8  12980422.565 8
  20859285.540    20859288.481   -15097702.871 8 -10509124.144 8
  20812810.230    20812813.343    -2227805.547 8   -349542.070 8
 86  6 12  0 53 11.0800000  0  4G 6G 8G 9G11
  20471670.623    20471673.874    -3634542.372 8  -1150917.227 8
  23817873.046    23817877.986    15191031.978 7  12997410.425 7
  20856858.383    20856862.528   -15110458.973 9 -10519063.974 8
  20814226.746    20814230.530    -2220364.825 7   -343744.107 8
 86  6 12  0 53 17.0800000  0  4G 6G 8G 9G11
  20472509.382    20472511.557    -3630142.303 8  -1147488.583 8
  23822023.239    23822028.848    15212835.516 8  13014400.177 8
  20854432.462    20854437.930   -15123200.225 8 -10528992.217 8
  20815644.652    20815649.547    -2212906.186 8   -337932.164 7
 86  6 12  0 53 23.0800000  0  4G 6G 8G 9G11
  20473349.472    20473353.607    -3625720.656 8  -1144043.146 7
  23826172.594    23826175.606    15234641.474 9  13031391.815 7
  20852011.203    20852015.372   -15135926.627 9 -10538908.896 8
  20817068.055    20817072.845    -2205429.563 7   -332106.255 7
 86  6 12  0 53 29.0800000  0  4G 6G 8G 9G11
  20474195.792    20474199.292    -3621277.481 7  -1140580.931 8
  23830321.862    23830327.514    15256449.798 7  13048385.315 7
  20849591.945    20849595.989   -15148638.101 9 -10548813.942 8
  20818493.958    20818498.463    -2197935.089 8   -326266.384 8
 86  6 12  0 53 35.0800000  0  4G 6G 8G 9G11
  20475045.063    20475048.131    -3616812.707 8  -1137101.895 7
  23834472.762    23834478.085    15278260.505 8  13065380.677 8
  20847175.924    20847181.340   -15161334.665 8 -10558707.353 8
  20819923.952    20819929.508    -2190422.747 8   -320412.623 8
 86  6 12  0 53 41.0800000  0  4G 6G 8G 9G11
  20475899.493    20475902.378    -3612326.334 8  -1133606.016 8
  23838623.330    23838628.479    15300073.551 7  13082377.842 7
  20844763.682    20844766.891   -15174016.251 8 -10568589.121 8
  20821357.639    20821362.017    -2182892.572 8   -314544.941 7
 86  6 12  0 53 47.0800000  0  4G 6G 8G 9G11
  20476756.287    20476759.968    -3607818.453 9  -1130093.388 7
  23842775.587    23842779.306    15321888.907 6  13099376.817 7
  20842352.926    20842357.149   -15186682.888 9 -10578459.224 8
  20822794.265    20822797.184    -2175344.513 8   -308663.348 8
 86  6 12  0 53 53.0800000  0  4G 6G 8G 9G11
  20477618.410    20477619.790    -3603288.984 8  -1126563.940 8
  23846925.322    23846931.464    15343706.668 7  13116377.657 8
  20839945.431    20839949.613   -15199334.501 8 -10588317.620 9
  20824233.251    20824237.294    -2167778.634 8   -302767.847 7
 86  6 12  0 53 59.0800000  0  4G 6G 8G 9G11
  20478485.204    20478487.688    -3598737.821 8  -1123017.583 8
  23851077.406    23851084.070    15365526.723 7  13133380.290 7
  20837540.488    20837545.099   -15211971.030 9 -10598164.287 8
  20825676.177    20825679.771    -2160194.972 8   -296858.505 8
 86  6 12  0 54  5.0800000  0  4G 6G 8G 9G11
  20479353.970    20479357.670    -3594165.069 7  -1119454.396 8
  23855230.416    23855236.867    15387349.057 7  13150384.691 8
  20835138.289    20835142.717   -15224592.431 8 -10607999.136 9
  20827121.698    20827127.743    -2152593.504 8   -290935.288 8
 86  6 12  0 54 11.0800000  0  4G 6G 8G 9G11
  20480228.825    20480232.769    -3589570.715 8  -1115874.380 8
  23859384.324    23859389.998    15409173.638 6  13167390.858 7
  20832738.836    20832743.877   -15237198.849 9 -10617822.319 9
  20828573.297    20828576.641    -2144974.321 7   -284998.271 7
 86  6 12  0 54 17.0800000  0  4G 6G 8G 9G11
  20481107.953    20481110.265    -3584954.783 8  -1112277.551 7
  23863537.612    23863543.260    15431000.386 6  13184398.698 7
  20830343.277    20830346.955   -15249790.245 8 -10627633.789 8
  20830025.807    20830030.786    -2137337.420 8   -279047.429 8
 86  6 12  0 54 23.0800000  0  4G 6G 8G 9G11
  20481989.522    20481993.154    -3580317.373 7  -1108663.988 7
  23867688.915    23867698.006    15452829.213 6  13201408.156 7
  20827950.379    20827955.747   -15262366.547 8 -10637433.512 8
  20831482.490    20831486.309    -2129682.938 8   -273082.899 7
 86  6 12  0 54 29.0800000  0  4G 6G 8G 9G11
  20482875.533    20482880.164    -3575658.438 8  -1105033.653 9
  23871845.977    23871851.268    15474660.162 7  13218419.287 8
  20825560.772    20825565.153   -15274927.788 8 -10647221.490 8
  20832942.813    20832946.750    -2122010.812 8   -267104.628 8
 86  6 12  0 54 35.0800000  0  4G 6G 8G 9G11
  20483767.268    20483772.044    -3570977.812 8  -1101386.414 7
  23875998.854    23876006.792    15496493.315 6  13235432.116 7
  20823173.708    20823177.179   -15287473.837 9 -10656997.634 8
  20834406.491    20834409.769    -2114321.005 8   -261112.565 8
 86  6 12  0 54 41.0800000  0  4G 6G 8G 9G11
  20484660.963    20484665.190    -3566275.609 8  -1097722.368 7
  23880155.554    23880161.172    15518328.615 6  13252446.626 8
  20820788.399    20820791.507   -15300004.691 8 -10666761.943 8
  20835872.562    20835876.744    -2106613.514 8   -255106.730 8
 86  6 12  0 54 47.0800000  0  4G 6G 8G 9G11
  20485560.807    20485562.868    -3561551.726 8  -1094041.426 8
  23884311.901    23884317.477    15540166.014 6  13269462.782 8
  20818405.627    20818411.283   -15312520.349 8 -10676514.397 8
  20837343.013    20837344.859    -2098888.322 8   -249087.116 7
 86  6 12  0 54 53.0800000  0  4G 6G 8G 9G11
  20486463.901    20486468.554    -3556806.170 7  -1090343.576 8
  23888466.950    23888472.927    15562005.595 7  13286480.618 8
  20816026.155    20816031.824   -15325020.695 7 -10686254.942 8
  20838816.689    20838820.791    -2091145.444 8   -243053.696 7
 86  6 12  0 54 59.0800000  0  4G 6G 8G 9G11
  20487371.249    20487373.651    -3552038.988 8  -1086628.901 8
  23892621.782    23892629.531    15583847.225 7  13303500.065 7
  20813652.115    20813656.052   -15337505.802 9 -10695983.592 9
  20840292.521    20840296.432    -2083384.990 8   -237006.582 8
 86  6 12  0 55  5.0800000  0  4G 6G 8G 9G11
  20488282.785    20488285.673    -3547250.147 9  -1082897.336 8
  23896779.013    23896787.350    15605690.914 6  13320521.107 8
  20811277.822    20811283.547   -15349975.610 8 -10705700.320 8
  20841773.295    20841777.921    -2075606.963 8   -230945.778 7
 86  6 12  0 55 11.0800000  0  4G 6G 8G 9G11
  20489198.216    20489201.799    -3542439.567 8  -1079148.846 7
  23900936.406    23900943.960    15627536.642 5  13337543.740 8
  20808908.877    20808913.286   -15362430.093 8 -10715405.120 9
  20843255.840    20843259.429    -2067811.295 8   -224871.236 8
 86  6 12  0 55 17.0800000  0  4G 6G 8G 9G11
  20490117.244    20490120.529    -3537607.354 8  -1075383.480 7
  23905095.236    23905100.650    15649384.421 6  13354567.970 8
  20806541.562    20806544.816   -15374869.281 8 -10725097.982 8
  20844742.308    20844748.605    -2059998.117 9   -218783.064 8
 86  6 12  0 55 23.0800000  0  4G 6G 8G 9G11
  20491041.529    20491044.102    -3532753.472 8  -1071601.225 8
  23909252.450    23909257.606    15671234.214 7  13371593.768 9
  20804177.400    20804181.991   -15387292.998 8 -10734778.810 8
  20846233.039    20846236.860    -2052167.370 8   -212681.183 8
 86  6 12  0 55 29.0800000  0  4G 6G 8G 9G11
  20491969.325    20491972.459    -3527877.817 9  -1067802.021 9
  23913412.268    23913415.860    15693086.021 6  13388621.137 8
  20801816.407    20801820.504   -15399701.369 8 -10744447.679 8
  20847726.338    20847731.779    -2044319.000 8   -206565.555 8
 86  6 12  0 55 35.0800000  0  4G 6G 8G 9G11
  20492900.708    20492904.153    -3522980.508 8  -1063985.938 8
  23917569.019    23917574.811    15714939.834 7  13405650.070 8
  20799457.424    20799461.127   -15412094.237 8 -10754104.452 8
  20849223.672    20849227.759    -2036453.071 8   -200436.256 7
 86  6 12  0 55 41.0800000  0  4G 6G 8G 9G11
  20493836.097    20493840.472    -3518061.475 9  -1060152.937 8
  23921729.552    23921733.832    15736795.582 7  13422680.520 8
  20797101.387    20797106.511   -15424471.713 8 -10763749.229 8
  20850723.743    20850727.355    -2028569.613 8   -194293.306 8
 86  6 12  0 55 47.0800000  0  4G 6G 8G 9G11
  20494775.882    20494780.792    -3513120.726 9  -1056302.994 8
  23925887.493    23925893.514    15758653.280 7  13439712.462 7
  20794749.697    20794754.124   -15436833.743 8 -10773381.983 8
  20852226.038    20852231.480    -2020668.672 8   -188136.725 8
 86  6 12  0 55 53.0800000  0  4G 6G 8G 9G11
  20495721.685    20495725.170    -3508158.315 8  -1052436.185 8
  23930047.749    23930053.433    15780512.814 7  13456745.879 7
  20792400.729    20792404.754   -15449180.324 8 -10783002.701 7
  20853734.015    20853737.527    -2012750.272 9   -181966.542 8
 86  6 12  0 55 59.0800000  0  4G 6G 8G 9G11
  20496669.743    20496673.137    -3503174.124 8  -1048552.424 7
  23934208.133    23934213.839    15802374.235 6  13473780.747 8
  20790054.135    20790058.275   -15461511.404 8 -10792611.330 8
  20855242.855    20855247.962    -2004814.411 8   -175782.764 7
 86  6 12  0 56  5.0800000  0  4G 6G 8G 9G11
  20497621.639    20497625.225    -3498168.251 8  -1044651.728 7
  23938368.687    23938373.558    15824237.587 7  13490817.116 7
  20787710.432    20787714.285   -15473826.863 8 -10802207.788 8
  20856757.896    20856762.238    -1996861.085 8   -169585.355 8
 86  6 12  0 56 11.0800000  0  4G 6G 8G 9G11
  20498577.991    20498582.264    -3493140.552 8  -1040734.043 8
  23942530.843    23942534.678    15846102.808 7  13507854.936 8
  20785370.707    20785373.589   -15486126.692 8 -10811792.066 7
  20858273.503    20858278.308    -1988890.287 8   -163374.359 7
 86  6 12  0 56 17.0800000  0  4G 6G 8G 9G11
  20499538.885    20499543.332    -3488091.135 8  -1036799.441 8
  23946689.377    23946695.927    15867969.938 7  13524894.236 8
  20783032.753    20783035.347   -15498410.884 8 -10821364.168 8
  20859794.607    20859798.301    -1980902.043 7   -157149.744 8
 86  6 12  0 56 23.0800000  0  4G 6G 8G 9G11
  20500504.936    20500508.173    -3483019.962 7  -1032847.871 8
  23950849.262    23950857.973    15889838.892 7  13541934.968 8
  20780698.264    20780702.352   -15510679.537 8 -10830924.149 7
  20861316.839    20861322.463    -1972896.415 7   -150911.588 7
 86  6 12  0 56 29.0800000  0  4G 6G 8G 9G11
  20501474.924    20501478.862    -3477927.051 8  -1028879.384 8
  23955013.536    23955020.415    15911709.577 8  13558977.062 8
  20778367.869    20778369.807   -15522932.500 8 -10840471.928 8
  20862844.432    20862849.972    -1964873.405 8   -144659.899 7
 86  6 12  0 56 35.0800000  0  4G 6G 8G 9G11
  20502446.971    20502451.509    -3472812.385 8  -1024893.932 8
  23959176.096    23959181.670    15933582.017 7  13576020.505 7
  20776037.792    20776040.919   -15535169.939 8 -10850007.586 8
  20864375.116    20864380.069    -1956833.046 8   -138394.680 8
 86  6 12  0 56 41.0800000  0  4G 6G 8G 9G11
  20503424.769    20503428.003    -3467675.922 8  -1020891.496 7
  23963340.351    23963343.548    15955456.269 7  13593065.383 8
  20773711.948    20773715.229   -15547391.588 8 -10859530.946 8
  20865907.381    20865911.949    -1948775.266 7   -132115.885 8
 86  6 12  0 56 47.0800000  0  4G 6G 8G 9G11
  20504406.566    20504409.116    -3462517.658 8  -1016872.083 7
  23967500.678    23967507.080    15977332.249 7  13610111.584 8
  20771389.278    20771393.260   -15559597.493 8 -10869042.047 8
  20867444.495    20867449.263    -1940700.148 7   -125823.587 7
 86  6 12  0 56 53.0800000  0  4G 6G 8G 9G11
  20505391.802    20505395.563    -3457337.630 8  -1012835.687 8
  23971665.455    23971669.442    15999209.971 8  13627159.149 9
  20769068.700    20769073.198   -15571787.703 9 -10878540.897 8
  20868983.947    20868988.965    -1932607.712 9   -119517.803 8
 86  6 12  0 56 59.0800000  0  4G 6G 8G 9G11
  20506382.270    20506385.473    -3452135.846 8  -1008782.349 8
  23975828.113    23975833.593    16021089.383 7  13644208.029 9
  20766752.700    20766756.267   -15583962.110 8 -10888027.455 7
  20870527.352    20870532.035    -1924498.025 7   -113198.572 8
 86  6 12  0 57  5.0800000  0  4G 6G 8G 9G11
  20507375.749    20507379.756    -3446912.316 7  -1004712.079 7
  23979992.575    23979997.732    16042970.377 6  13661258.148 8
  20764440.588    20764443.109   -15596120.801 8 -10897501.757 8
  20872074.981    20872079.088    -1916371.151 8   -106865.932 7
 86  6 12  0 57 11.0800000  0  4G 6G 8G 9G11
  20508375.942    20508377.495    -3441667.071 9  -1000624.869 8
  23984155.920    23984161.648    16064852.966 6  13678309.507 8
  20762129.256    20762131.762   -15608263.829 9 -10906963.847 8
  20873623.617    20873628.289    -1908227.058 7   -100519.890 7
 86  6 12  0 57 17.0800000  0  4G 6G 8G 9G11
  20509377.353    20509380.805    -3436400.043 8   -996520.709 8
  23988319.574    23988325.722    16086737.177 7  13695362.134 8
  20759821.097    20759824.976   -15620391.044 8 -10916413.630 8
  20875176.545    20875181.936    -1900065.766 8    -94160.442 7
 86  6 12  0 57 23.0800000  0  4G 6G 8G 9G11
  20510384.357    20510386.678    -3431111.290 8   -992399.593 8
  23992484.955    23992490.714    16108622.959 7  13712415.968 8
  20757516.062    20757519.319   -15632502.428 8 -10925851.065 8
  20876733.530    20876739.064    -1891887.301 8    -87787.618 8
 86  6 12  0 57 29.0800000  0  4G 6G 8G 9G11
  20511393.650    20511397.714    -3425800.803 8   -988261.557 8
  23996649.791    23996656.390    16130510.238 8  13729470.988 8
  20755214.418    20755218.514   -15644598.029 8 -10935276.209 8
  20878293.099    20878297.705    -1883691.694 8    -81401.430 7
 86  6 12  0 57 35.0800000  0  4G 6G 8G 9G11
  20512407.865    20512411.858    -3420468.562 8   -984106.573 8
  24000815.407    24000821.699    16152399.046 8  13746527.190 9
  20752915.537    20752918.974   -15656677.808 8 -10944689.031 8
  20879855.967    20879859.898    -1875479.014 8    -75001.933 9
 86  6 12  0 57 41.0800000  0  4G 6G 8G 9G11
  20513427.058    20513430.369    -3415114.645 8   -979934.683 8
  24004980.578    24004986.638    16174289.270 8  13763584.495 9
  20750620.341    20750623.977   -15668741.736 8 -10954089.491 7
  20881421.080    20881427.575    -1867249.233 8    -68589.113 7
 86  6 12  0 57 47.0800000  0  4G 6G 8G 9G11
  20514450.408    20514453.087    -3409738.977 9   -975745.849 8
  24009147.831    24009152.048    16196180.933 9  13780642.916 9
  20748326.947    20748330.314   -15680789.848 8 -10963477.619 8
  20882991.485    20882995.459    -1859002.366 8    -62162.996 8
 86  6 12  0 57 53.0800000  0  4G 6G 8G 9G11
  20515477.694    20515480.080    -3404341.479 8   -971540.021 8
  24013312.137    24013318.399    16218074.141 7  13797702.553 9
  20746037.734    20746040.874   -15692822.002 9 -10972853.323 9
  20884562.689    20884568.722    -1850738.388 8    -55723.531 8
 86  6 12  0 57 59.0800000  0  4G 6G 8G 9G11
  20516508.820    20516512.083    -3398922.047 9   -967317.077 8
  24017479.218    24017485.831    16239968.928 8  13814763.420 9
  20743751.724    20743754.632   -15704838.004 8 -10982216.440 8
  20886140.081    20886143.558    -1842457.197 8    -49270.658 8
 86  6 12  0 58  5.0800000  0  4G 6G 8G 9G11
  20517544.490    20517547.507    -3393480.727 8   -963077.096 8
  24021647.005    24021652.312    16261865.241 8  13831825.481 9
  20741467.149    20741471.218   -15716837.998 8 -10991567.082 8
  20887718.804    20887723.342    -1834158.874 8    -42804.435 8
 86  6 12  0 58 11.0800000  0  4G 6G 8G 9G11
  20518582.911    20518586.446    -3388017.601 7   -958820.126 8
  24025812.290    24025818.204    16283763.004 7  13848888.671 8
  20739187.918    20739190.501   -15728821.928 8 -11000905.200 7
  20889301.017    20889306.102    -1825843.484 7    -36324.908 8
 86  6 12  0 58 17.0800000  0  4G 6G 8G 9G11
  20519627.136    20519631.795    -3382532.582 8   -954546.083 8
  24029980.075    24029986.456    16305662.190 8  13865952.952 8
  20736908.355    20736913.035   -15740789.730 8 -11010230.769 9
  20890887.374    20890891.583    -1817511.008 7    -29832.070 9
 86  6 12  0 58 23.0800000  0  4G 6G 8G 9G11
  20520675.241    20520679.102    -3377025.736 8   -950255.034 7
  24034149.602    24034153.771    16327562.818 8  13883018.361 7
  20734636.199    20734638.814   -15752741.565 8 -11019543.879 7
  20892475.793    20892479.584    -1809161.460 8    -23325.937 8
 86  6 12  0 58 29.0800000  0  4G 6G 8G 9G11
  20521726.904    20521731.286    -3371497.086 7   -945947.001 7
  24038316.085    24038321.316    16349464.850 6  13900084.882 8
  20732364.350    20732367.779   -15764677.167 8 -11028844.345 8
  20894068.560    20894072.252    -1800794.838 8    -16806.499 8
 86  6 12  0 58 35.0800000  0  4G 6G 8G 9G11
  20522783.277    20522786.623    -3365946.571 8   -941621.932 7
  24042484.627    24042489.386    16371368.175 8  13917152.401 8
  20730095.517    20730098.594   -15776596.725 7 -11038132.324 7
  20895663.079    20895668.312    -1792411.257 8    -10273.827 8
 86  6 12  0 58 41.0800000  0  4G 6G 8G 9G11
  20523844.547    20523846.991    -3360374.267 8   -937279.875 7
  24046652.118    24046658.018    16393272.823 8  13934220.947 9
  20727829.058    20727834.651   -15788500.248 8 -11047407.788 8
  20897261.223    20897266.068    -1784010.785 8     -3728.003 7
 86  6 12  0 58 47.0800000  0  4G 6G 8G 9G11
  20524908.109    20524912.539    -3354780.151 8   -932920.821 7
  24050821.137    24050827.170    16415178.750 9  13951290.484 9
  20725569.062    20725572.037   -15800387.580 8 -11056670.638 8
  20898863.454    20898869.045    -1775593.377 8      2831.004 8
 86  6 12  0 58 53.0800000  0  4G 6G 8G 9G11
  20525976.866    20525980.291    -3349164.248 8   -928544.800 7
  24054990.721    24054995.547    16437085.921 8  13968361.002 8
  20723308.355    20723313.807   -15812258.780 8 -11065920.928 8
  20900468.237    20900471.985    -1767159.074 8      9403.179 8
 86  6 12  0 58 59.0800000  0  4G 6G 8G 9G11
  20527049.892    20527053.012    -3343526.535 8   -924151.782 8
  24059158.543    24059164.293    16458994.300 8  13985432.450 9
  20721053.166    20721057.616   -15824113.766 8 -11075158.577 8
  20902076.572    20902081.074    -1758707.893 9     15988.522 8
 86  6 12  0 59  5.0800000  0  4G 6G 8G 9G11
  20528128.007    20528130.757    -3337866.967 8   -919741.739 8
  24063329.794    24063332.832    16480903.859 8  14002504.829 9
  20718800.068    20718804.374   -15835952.688 8 -11084383.705 8
  20903687.808    20903693.020    -1750239.889 8     22586.961 9
 86  6 12  0 59 11.0800000  0  4G 6G 8G 9G11
  20529208.079    20529212.068    -3332185.648 8   -915314.739 8
  24067497.171    24067502.899    16502814.611 7  14019578.144 8
  20716550.974    20716554.242   -15847775.402 7 -11093596.202 7
  20905302.744    20905307.165    -1741755.052 9     29198.510 8
 86  6 12  0 59 17.0800000  0  4G 6G 8G 9G11
  20530293.543    20530295.927    -3326482.407 8   -910870.662 8
  24071666.564    24071672.921    16524726.582 7  14036652.385 9
  20714303.368    20714308.472   -15859581.910 8 -11102796.085 8
  20906920.657    20906925.887    -1733253.330 8     35823.225 8
 86  6 12  0 59 23.0800000  0  4G 6G 8G 9G11
  20531383.025    20531386.516    -3320757.259 8   -906409.508 8
  24075837.598    24075842.583    16546639.783 8  14053727.598 8
  20712060.177    20712065.470   -15871371.891 8 -11111983.081 8
  20908541.411    20908545.995    -1724734.721 8     42461.107 8
 86  6 12  0 59 29.0800000  0  4G 6G 8G 9G11
  20532475.085    20532481.226    -3315010.164 8   -901931.244 7
  24080007.345    24080013.405    16568554.305 8  14070803.844 9
  20709818.784    20709824.357   -15883145.474 8 -11121157.293 7
  20910165.008    20910170.533    -1716199.166 8     49112.191 8
 86  6 12  0 59 35.0800000  0  4G 6G 8G 9G11
  20533574.397    20533577.465    -3309241.114 8   -897435.883 9
  24084178.624    24084183.614    16590469.990 7  14087880.996 9
  20707582.111    20707586.812   -15894902.670 8 -11130318.741 9
  20911793.243    20911798.645    -1707646.729 9     55776.430 9
 86  6 12  0 59 41.0800000  0  4G 6G 8G 9G11
  20534674.897    20534679.771    -3303450.153 8   -892923.452 7
  24088349.111    24088354.252    16612386.880 8  14104959.083 8
  20705348.222    20705352.130   -15906643.550 7 -11139467.477 8
  20913422.811    20913428.618    -1699077.514 8     62453.733 7
 86  6 12  0 59 47.0800000  0  4G 6G 8G 9G11
  20535781.810    20535785.253    -3297637.322 8   -888393.971 8
  24092519.656    24092525.369    16634304.909 8  14122038.053 8
  20703116.298    20703122.574   -15918367.925 8 -11148603.370 7
  20915057.208    20915061.922    -1690491.509 8     69144.122 8
 86  6 12  0 59 53.0800000  0  4G 6G 8G 9G11
  20536892.833    20536895.349    -3291802.590 8   -883847.432 8
  24096691.325    24096695.686    16656223.968 9  14139117.823 8
  20700889.675    20700894.000   -15930075.974 9 -11157726.507 8
  20916694.777    20916700.038    -1681888.756 7     75847.563 9
 86  6 12  0 59 59.0800000  0  4G 6G 8G 9G11
  20538006.592    20538010.951    -3285946.004 9   -879283.862 8
  24100862.182    24100868.096    16678144.076 8  14156198.425 9
  20698663.964    20698668.433   -15941767.682 8 -11166836.935 8
  20918334.496    20918339.608    -1673269.267 8     82564.048 8
 86  6 12  1  0  5.0800000  0  4G 6G 8G 9G11
  20539125.239    20539129.729    -3280067.562 8   -874703.262 8
  24105032.917    24105039.553    16700065.141 8  14173279.755 9
  20696442.438    20696447.017   -15953442.913 7 -11175934.517 8
  20919978.284    20919983.662    -1664633.144 7     89293.488 8
 86  6 12  1  0 11.0800000  0  4G 6G 8G 9G11
  20540248.488    20540252.508    -3274167.288 7   -870105.654 8
  24109205.442    24109210.178    16721987.211 8  14190361.883 8
  20694224.798    20694228.508   -15965101.720 8 -11185019.301 8
  20921624.090    20921629.734    -1655980.430 8     96035.858 8
 86  6 12  1  0 17.0800000  0  4G 6G 8G 9G11
  20541375.723    20541379.569    -3268245.065 8   -865490.944 8
  24113376.244    24113382.796    16743910.306 7  14207444.797 8
  20692008.763    20692014.311   -15976744.027 8 -11194091.230 8
  20923272.889    20923279.547    -1647311.030 8    102791.238 9
 86  6 12  1  0 23.0800000  0  4G 6G 8G 9G11
  20542507.620    20542510.150    -3262300.917 8   -860859.127 7
  24117549.511    24117553.207    16765834.458 8  14224528.556 7
  20689796.126    20689801.152   -15988369.691 8 -11203150.166 8
  20924927.146    20924933.685    -1638624.853 8    109559.688 8
 86  6 12  1  0 29.0800000  0  4G 6G 8G 9G11
  20543640.888    20543647.158    -3256334.743 8   -856210.174 8
  24121720.678    24121725.544    16787759.642 8  14241613.102 8
  20687587.076    20687590.684   -15999978.762 8 -11212196.213 8
  20926584.058    20926588.188    -1629922.015 8    116341.124 8
 86  6 12  1  0 35.0800000  0  4G 6G 8G 9G11
  20544781.688    20544784.293    -3250346.559 9   -851544.067 8
  24125892.412    24125898.632    16809685.902 8  14258698.491 8
  20685380.480    20685386.281   -16011571.239 7 -11221229.313 8
  20928243.177    20928247.465    -1621202.428 8    123135.601 7
 86  6 12  1  0 41.0800000  0  4G 6G 8G 9G11
  20545925.368    20545927.981    -3244336.389 9   -846860.806 8
  24130066.458    24130071.226    16831613.197 8  14275784.688 8
  20683176.807    20683182.735   -16023146.943 8 -11230249.343 9
  20929904.981    20929910.312    -1612466.123 8    129943.096 8
 86  6 12  1  0 47.0800000  0  4G 6G 8G 9G11
  20547072.710    20547076.276    -3238304.222 7   -842160.417 8
  24134239.524    24134245.088    16853541.437 8  14292871.619 9
  20680979.001    20680982.770   -16034705.915 8 -11239256.332 8
  20931571.129    20931575.354    -1603713.272 9    136763.510 8
 86  6 12  1  0 53.0800000  0  4G 6G 8G 9G11
  20548225.622    20548227.983    -3232250.227 8   -837443.029 7
  24138412.065    24138417.365    16875470.518 8  14309959.195 7
  20678781.911    20678786.404   -16046248.335 8 -11248250.410 9
  20933239.369    20933244.704    -1594943.888 9    143596.791 9
 86  6 12  1  0 59.0800000  0  4G 6G 8G 9G11
  20549381.247    20549385.196    -3226174.353 8   -832708.580 8
  24142585.353    24142591.431    16897400.438 8  14327047.452 7
  20676588.940    20676594.509   -16057774.167 7 -11257231.589 9
  20934912.149    20934917.180    -1586157.979 8    150442.955 7
 86  6 12  1  1  5.0800000  0  4G 6G 8G 9G11
  20550540.844    20550544.572    -3220076.583 9   -827957.079 8
  24146758.448    24146763.979    16919331.101 8  14344136.262 8
  20674399.173    20674403.196   -16069283.439 9 -11266199.846 8
  20936586.089    20936591.412    -1577355.614 9    157301.949 9
 86  6 12  1  1 11.0800000  0  4G 6G 8G 9G11
  20551706.736    20551709.392    -3213957.026 8   -823188.591 8
  24150931.581    24150937.635    16941262.512 8  14361225.664 8
  20672212.846    20672216.811   -16080776.032 8 -11275155.115 8
  20938263.719    20938270.656    -1568536.820 8    164173.723 9
 86  6 12  1  1 17.0800000  0  4G 6G 8G 9G11
  20552874.249    20552877.950    -3207815.584 8   -818403.059 7
  24155106.459    24155110.690    16963194.690 8  14378315.659 7
  20670027.972    20670032.518   -16092252.035 8 -11284097.456 8
  20939945.265    20939949.701    -1559701.580 7    171058.343 8
 86  6 12  1  1 23.0800000  0  4G 6G 8G 9G11
  20554046.973    20554050.868    -3201652.240 8   -813600.444 8
  24159278.839    24159283.952    16985127.589 8  14395406.244 8
  20667846.793    20667852.204   -16103711.259 9 -11293026.719 8
  20941629.783    20941635.496    -1550849.910 9    177955.732 8
 86  6 12  1  1 29.0800000  0  4G 6G 8G 9G11
  20555224.686    20555229.207    -3195467.062 9   -808780.837 7
  24163453.886    24163458.904    17007061.170 8  14412497.317 8
  20665670.024    20665674.944   -16115153.751 8 -11301942.938 8
  20943318.384    20943323.902    -1541981.893 7    184865.876 9
 86  6 12  1  1 35.0800000  0  4G 6G 8G 9G11
  20556405.148    20556409.905    -3189259.933 8   -803944.111 7
  24167627.527    24167631.298    17028995.450 8  14429588.967 9
  20663495.112    20663499.851   -16126579.582 7 -11310846.185 8
  20945008.243    20945012.514    -1533097.503 8    191788.790 9
 86  6 12  1  1 41.0800000  0  4G 6G 8G 9G11
  20557590.430    20557594.637    -3183030.949 9   -799090.361 8
  24171800.990    24171806.569    17050930.484 8  14446681.181 9
  20661324.086    20661329.374   -16137988.488 8 -11319736.240 8
  20946702.393    20946708.622    -1524196.700 8    198724.478 9
 86  6 12  1  1 47.0800000  0  4G 6G 8G 9G11
  20558780.611    20558783.982    -3176780.027 8   -794219.524 8
  24175974.893    24175981.296    17072866.152 7  14463773.916 8
  20659156.389    20659161.343   -16149380.667 8 -11328613.271 8
  20948399.067    20948404.675    -1515279.474 8    205672.964 8
 86  6 12  1  1 53.0800000  0  4G 6G 8G 9G11
  20559973.437    20559978.760    -3170507.171 9   -789331.573 8
  24180149.794    24180154.593    17094802.503 9  14480867.173 8
  20656992.778    20656997.207   -16160756.056 8 -11337477.204 8
  20950098.653    20950104.810    -1506345.874 7    212634.199 8
 86  6 12  1  1 59.0800000  0  4G 6G 8G 9G11
  20561172.235    20561176.393    -3164212.406 8   -784426.577 8
  24184323.691    24184329.979    17116739.495 7  14497960.919 7
  20654829.433    20654835.421   -16172114.533 7 -11346327.963 9
  20951801.771    20951808.174    -1497395.948 8    219608.166 8
 86  6 12  1  2  5.0800000  0  4G 6G 8G 9G11
  20562374.042    20562379.001    -3157895.714 8   -779504.478 8
  24188499.214    24188503.784    17138677.170 7  14515055.192 8
  20652673.207    20652677.158   -16183456.150 8 -11355165.584 7
  20953508.650    20953513.667    -1488429.724 8    226594.830 8
